GFSCGP_sfc_thetae_000.txt.gz
Theta_e
299 294 295 295 295 295 293 292 291 293 296 294 293 293 292 293 290 290 290 289 290 291 295 296 294 295 295 297 296 297 299 302 306 307 310 313 314 320 320 321 321 321 320 322
295 290 295 295 294 294 293 290 290 293 295 291 291 289 290 291 287 288 289 288 289 290 293 293 293 293 294 296 295 296 298 300 305 306 307 309 311 315 320 321 320 320 319 319
290 291 294 293 293 291 291 289 290 288 290 292 289 287 288 289 288 288 288 289 289 289 289 291 290 291 293 294 294 295 296 299 303 303 303 304 307 310 313 318 318 318 319 317
290 294 293 292 291 290 287 291 289 286 285 282 288 279 287 288 286 285 286 287 287 288 288 289 289 290 292 293 295 294 295 298 302 303 299 297 299 302 306 310 318 318 317 318
289 290 290 290 289 291 290 289 287 286 285 284 284 281 286 290 283 282 285 286 287 287 288 288 289 290 291 294 294 294 294 297 299 301 299 297 296 299 304 306 312 316 316 317
290 293 292 292 291 290 288 287 287 286 285 279 281 278 281 282 279 282 285 286 286 286 287 288 289 290 291 293 293 295 293 293 296 297 299 296 296 297 299 302 305 314 315 315
289 289 290 290 287 289 286 284 278 277 279 278 281 277 280 281 282 283 283 284 285 286 286 287 287 289 290 291 291 292 291 291 292 293 296 297 296 296 297 301 303 306 313 313
284 281 288 289 286 283 284 284 277 270 273 275 279 274 280 283 284 285 285 284 285 285 286 286 288 289 289 290 291 291 291 291 292 292 294 297 296 296 297 298 301 305 304 314
282 281 285 284 286 285 284 280 282 275 274 272 276 279 283 283 283 283 283 283 283 283 285 286 287 288 288 289 290 290 290 291 292 292 293 296 296 295 295 296 297 297 304 306
284 279 283 283 284 283 281 283 276 277 268 267 274 275 276 278 279 281 280 281 282 284 285 286 286 287 288 289 289 289 289 289 291 292 293 295 296 296 295 294 295 295 298 303
283 281 279 280 279 279 278 276 276 275 274 268 267 273 280 279 280 279 280 281 282 284 285 285 286 287 287 287 286 286 286 287 289 291 292 293 295 296 295 295 295 295 296 294
281 279 275 277 279 280 279 278 276 271 269 272 271 270 282 281 281 281 280 281 283 284 284 284 284 284 282 280 279 278 279 280 282 284 286 292 293 295 295 295 294 295 294 294
281 277 274 272 276 278 276 276 276 276 274 269 267 271 282 282 280 280 280 281 283 283 282 282 283 280 277 275 275 275 275 276 278 279 282 285 289 292 292 293 295 294 292 292
282 277 276 274 276 276 273 275 276 275 270 270 271 273 277 278 278 279 280 281 281 281 281 281 279 276 275 274 273 273 273 274 276 277 278 280 282 287 289 292 294 293 292 291
280 274 276 276 277 276 275 274 275 273 273 269 272 272 276 277 277 279 280 280 279 279 279 277 275 274 273 272 272 272 273 274 275 275 276 277 279 280 282 286 291 292 291 290
280 274 274 272 275 275 273 274 275 275 274 274 274 273 279 279 280 279 279 277 278 277 276 275 274 272 272 271 271 271 272 273 275 274 275 276 276 277 279 285 287 290 290 289
276 274 271 272 272 271 269 273 274 274 275 274 270 274 278 277 278 278 277 278 276 274 274 273 271 271 271 270 270 271 271 272 271 274 275 274 275 276 278 279 287 289 288 289
276 274 273 269 268 265 274 277 276 274 275 276 276 277 278 278 279 278 280 277 274 273 272 272 270 270 270 270 270 270 270 270 271 274 275 275 275 275 277 279 284 287 287 288
279 275 271 268 266 271 273 274 274 272 272 277 276 277 279 279 276 278 280 276 273 272 272 271 271 271 270 269 269 267 268 268 269 270 274 275 275 274 276 278 280 285 286 288
278 278 273 266 265 265 272 275 278 276 268 277 278 277 277 275 272 275 276 273 272 272 272 270 271 270 269 268 268 267 266 266 267 269 270 273 276 275 275 277 281 283 286 287
272 272 269 269 267 270 276 277 278 267 271 279 279 278 275 272 274 274 273 272 271 270 270 270 269 268 268 268 267 266 265 265 267 268 270 271 273 276 276 278 281 282 285 288
271 269 268 270 267 264 278 276 272 277 280 280 278 276 273 272 272 272 270 269 268 268 268 268 267 266 267 267 266 264 264 266 267 267 267 267 269 276 279 279 282 284 286 287
270 274 270 272 272 278 279 279 281 281 279 278 275 274 271 270 270 269 267 267 266 266 266 267 265 264 265 265 265 262 264 266 265 263 264 266 269 273 280 280 283 286 286 287
276 278 274 273 276 277 279 280 281 279 278 275 273 271 269 268 267 265 266 265 265 265 265 264 263 262 262 263 264 263 264 264 262 263 266 270 271 274 279 284 286 286 287 287
277 277 276 276 278 279 280 281 282 277 274 272 271 269 268 266 265 264 263 263 263 263 263 263 261 260 260 262 261 262 262 261 262 265 269 271 274 276 278 284 287 287 288 289
278 276 274 274 279 279 280 280 278 275 273 271 267 266 266 265 264 263 262 263 262 261 261 260 260 259 259 260 260 261 260 260 262 265 267 268 273 280 280 284 286 289 289 290

GFSCGP_sfc_thetae_003.txt.gz
Theta_e
303 297 296 298 296 295 294 293 292 295 297 294 292 292 293 290 290 289 288 289 289 289 291 292 293 293 293 294 295 296 295 297 298 300 304 303 303 305 308 311 317 324 325 322
300 297 297 296 296 295 294 292 291 294 296 293 291 290 291 288 287 288 287 288 288 289 289 290 291 292 292 292 294 295 294 295 296 298 301 303 302 301 304 308 311 311 323 323
295 298 295 295 295 293 293 290 290 289 292 293 291 288 288 287 287 288 288 289 289 288 287 289 289 290 292 292 293 294 295 295 295 297 299 300 302 300 299 300 302 307 309 321
293 295 294 294 293 292 288 291 289 289 287 283 290 280 288 286 286 286 287 287 287 287 288 288 289 289 290 292 294 294 295 294 295 297 296 296 296 296 297 298 300 303 306 308
293 291 291 290 291 292 290 289 288 289 287 286 286 283 288 289 287 284 285 286 286 287 287 287 288 289 291 292 293 293 294 294 294 296 295 294 294 298 299 299 298 300 304 306
292 295 294 294 293 291 289 289 289 289 287 280 285 282 284 286 284 283 285 285 285 286 287 287 289 290 290 292 292 293 293 292 294 293 294 293 293 294 296 297 296 297 302 304
292 292 293 291 289 292 289 286 280 281 282 281 283 279 283 283 283 283 283 284 285 286 286 286 287 288 289 290 290 291 291 290 291 291 292 292 293 294 295 296 296 296 296 296
286 285 290 291 289 286 285 284 279 273 276 279 281 276 282 285 285 285 285 284 285 285 286 286 287 288 288 288 289 288 286 287 288 289 290 292 293 294 294 296 296 296 296 296
286 284 288 285 287 287 286 282 285 279 279 274 279 282 284 285 284 284 283 283 283 284 285 286 287 287 287 287 286 284 281 281 281 282 282 283 289 293 293 295 297 297 296 296
288 282 287 284 285 284 283 286 277 278 270 271 278 278 279 280 280 282 281 282 282 284 284 285 286 286 286 285 283 281 279 278 278 279 280 282 284 285 288 294 295 296 296 295
287 284 282 283 281 282 280 278 278 278 277 271 271 276 282 280 281 280 281 282 282 284 284 284 285 286 284 282 280 278 277 277 277 278 279 280 281 283 284 287 294 295 296 295
285 283 279 281 282 282 280 280 280 274 274 274 273 272 284 283 283 282 281 281 283 284 283 284 284 283 281 280 278 277 276 276 276 277 277 278 279 281 283 285 286 294 295 295
283 280 276 277 278 279 277 279 280 279 276 273 270 273 283 283 284 282 280 281 283 282 282 283 283 281 279 278 276 276 275 274 275 275 275 276 277 278 279 281 283 287 288 294
286 281 279 278 281 278 275 277 278 277 273 273 273 275 279 281 280 280 280 281 282 281 282 281 280 279 278 277 275 274 274 273 273 274 274 274 276 277 278 279 281 281 284 287
282 277 279 280 281 279 277 276 276 274 276 273 275 275 278 280 280 279 281 281 280 280 280 279 278 277 277 275 274 273 273 273 272 271 272 271 273 275 276 277 277 279 280 285
282 276 277 273 277 277 274 276 277 276 276 276 276 274 281 282 280 280 280 280 279 280 278 278 277 276 275 274 273 273 271 271 270 269 269 271 272 272 276 276 276 277 279 280
279 277 274 272 275 273 271 275 276 277 278 276 272 277 281 278 278 279 279 279 279 278 276 276 275 274 273 273 273 270 270 270 269 268 269 269 270 271 275 276 275 276 277 280
278 277 275 271 272 267 277 278 277 277 278 279 278 278 279 279 280 281 281 279 277 276 275 274 274 273 272 272 272 271 270 269 268 268 268 269 270 270 272 274 275 275 277 278
282 277 272 269 269 274 276 278 274 273 274 278 277 278 279 280 280 278 281 278 276 275 274 274 273 272 271 270 270 269 268 268 267 267 268 268 268 268 270 270 274 276 276 279
279 279 274 271 267 267 273 276 279 277 270 279 279 278 278 278 272 276 279 277 275 274 273 272 271 270 269 269 268 267 266 266 266 267 267 268 268 267 267 269 271 276 277 280
272 273 270 271 268 272 279 278 279 268 272 279 279 279 278 275 278 278 277 275 274 272 271 271 269 268 267 268 267 265 265 264 265 266 266 266 266 266 267 268 271 277 277 280
271 270 270 271 269 267 282 277 272 278 280 280 280 280 277 277 276 275 274 272 271 269 269 268 267 266 266 266 265 263 263 265 265 264 263 264 266 268 270 270 272 279 279 280
272 276 273 274 274 280 281 281 281 282 280 281 279 279 275 273 273 272 271 269 268 267 267 267 265 264 265 265 264 261 263 263 262 260 262 266 269 271 274 273 274 280 281 283
277 280 276 274 277 278 280 282 282 282 281 280 277 275 272 271 271 268 268 267 266 266 265 265 263 262 262 263 263 262 262 261 259 259 264 267 267 269 273 277 278 283 284 286
278 279 276 276 279 281 281 282 283 281 279 275 274 273 271 269 268 267 266 265 265 264 263 263 261 261 260 261 261 261 260 259 258 260 265 265 267 268 270 275 281 283 288 288
279 277 274 275 280 280 281 283 283 281 277 276 274 270 269 267 267 266 264 264 264 262 262 260 259 259 259 259 258 259 258 257 258 260 263 264 265 266 268 270 272 285 289 289

GFSCGP_sfc_thetae_006.txt.gz
Theta_e
301 293 292 293 292 291 290 289 288 292 294 289 290 289 290 290 287 285 284 284 284 284 286 287 288 287 288 287 288 289 290 291 292 291 290 291 291 294 297 299 300 301 305 305
297 293 294 294 293 293 291 288 288 290 294 290 289 288 287 287 287 286 284 283 283 284 284 286 286 286 287 287 288 289 290 291 291 292 291 291 292 293 295 299 299 299 300 302
291 296 295 293 292 291 289 287 286 286 289 290 288 285 283 285 285 286 286 285 284 283 283 284 285 284 286 287 288 289 290 290 291 292 291 291 292 292 292 293 296 299 299 300
291 293 293 291 291 290 285 288 287 287 283 279 285 276 282 282 282 284 284 282 281 282 284 284 284 285 286 287 288 289 289 289 290 291 289 289 287 287 290 291 294 296 299 299
291 289 288 288 289 290 288 288 286 285 283 282 282 278 281 283 280 282 282 282 281 281 282 282 284 286 287 288 287 288 287 288 288 287 285 286 287 287 288 291 291 293 297 299
291 293 290 289 292 290 290 287 286 285 282 275 280 279 280 280 283 281 282 280 282 281 281 283 286 286 286 287 286 286 286 285 285 283 281 280 281 281 284 287 288 291 294 297
290 289 290 290 287 289 287 282 275 275 274 274 280 276 279 280 281 281 280 280 280 280 282 283 284 284 285 284 285 284 283 281 280 279 278 278 278 279 280 282 287 290 292 295
284 282 288 289 286 282 283 281 275 269 271 273 278 273 279 282 283 283 282 281 281 281 282 283 283 284 283 284 283 282 281 279 279 278 277 277 278 278 279 282 283 284 290 294
285 284 286 285 286 285 283 278 282 276 268 267 273 279 281 282 281 281 280 281 279 280 282 282 283 283 283 283 282 281 279 278 277 277 276 276 277 277 278 279 281 282 285 292
285 280 285 282 283 282 280 283 275 275 264 264 273 275 276 277 278 279 278 278 278 280 282 282 282 282 283 282 281 280 279 277 277 276 275 275 276 276 276 278 278 281 283 285
284 283 280 281 279 279 277 275 277 277 276 268 266 272 279 278 280 277 278 279 279 280 280 281 281 282 282 281 280 279 277 276 275 275 274 274 273 274 276 276 277 280 282 283
284 283 277 280 280 280 278 278 278 270 271 272 271 272 283 281 280 279 279 279 279 281 280 281 281 281 280 279 278 277 276 275 275 274 273 273 272 274 273 275 277 278 278 283
282 279 276 277 276 278 275 276 277 277 276 271 270 271 281 281 280 280 278 277 279 280 280 281 280 279 279 278 276 275 275 274 274 273 272 271 271 271 272 272 273 275 277 278
287 281 279 281 282 278 274 275 276 275 272 273 273 274 279 281 281 279 277 278 278 279 280 280 278 278 277 277 275 274 273 274 273 272 271 270 269 270 270 272 273 273 275 277
283 277 279 280 279 278 277 276 275 274 275 272 275 275 279 280 277 277 276 279 279 279 279 277 277 276 276 275 273 272 272 272 272 270 270 269 270 270 270 270 271 272 275 276
282 276 279 275 276 276 274 276 276 276 276 275 276 275 281 282 280 275 278 278 277 277 276 276 276 275 274 273 272 272 270 270 270 269 269 269 269 269 269 270 271 272 275 275
279 276 274 273 275 274 270 274 275 276 277 276 272 277 280 278 277 276 277 277 277 276 276 275 274 273 272 271 271 269 269 269 269 269 268 268 268 268 269 269 269 270 270 273
279 276 276 271 273 266 277 276 275 275 277 279 279 279 278 276 277 278 278 275 275 275 275 274 273 271 271 271 269 269 269 268 268 268 267 268 267 267 268 268 268 269 270 271
282 278 272 270 269 273 277 277 273 272 272 278 278 279 278 278 277 276 277 276 274 274 274 273 272 271 270 269 268 268 267 267 267 267 266 266 266 264 265 265 266 267 268 270
280 280 275 271 267 265 272 274 277 276 268 278 278 276 276 277 268 272 275 275 274 273 272 271 270 270 269 268 267 266 265 265 265 265 265 265 264 263 263 265 266 267 268 269
273 273 271 271 269 271 278 276 278 268 273 277 277 277 277 274 275 275 275 273 273 272 270 270 269 267 267 267 266 264 264 264 265 264 263 262 263 263 266 268 269 268 268 270
272 270 269 271 268 266 279 276 272 277 279 279 278 278 277 277 275 274 273 271 270 269 268 268 266 265 266 266 264 262 262 264 263 262 260 261 262 267 268 268 270 272 269 270
272 275 272 273 273 279 279 278 280 280 279 279 278 278 277 275 273 273 270 269 268 267 267 267 264 263 264 264 263 259 261 262 261 258 258 261 265 265 267 267 269 274 273 273
277 280 276 276 278 279 280 281 281 281 280 279 278 276 274 272 272 269 269 268 266 266 265 264 263 261 261 261 261 260 260 260 257 256 259 262 263 264 266 268 269 271 275 279
278 278 277 276 279 280 280 280 281 280 279 276 275 274 273 271 269 268 266 265 265 264 263 262 261 260 259 260 259 258 258 257 256 258 260 261 262 263 264 266 267 269 272 276
280 277 275 275 281 280 280 281 281 279 277 275 273 270 271 270 268 266 264 265 264 262 262 260 259 258 258 257 256 256 256 255 256 258 259 260 260 262 263 263 264 268 271 274

GFSCGP_sfc_thetae_012.txt.gz
Theta_e
295 291 289 290 288 288 285 284 283 285 290 288 288 289 287 289 285 282 280 280 280 281 283 283 283 282 283 283 283 284 285 285 285 285 283 283 282 283 284 284 285 285 288 289
291 288 292 292 290 288 286 285 284 287 289 287 286 286 288 288 286 285 282 280 280 281 281 282 282 281 282 282 283 284 284 285 284 284 283 283 282 281 281 282 282 282 283 283
289 291 292 290 287 286 285 284 284 284 285 285 284 282 287 285 285 282 282 282 281 281 281 281 282 279 280 281 282 284 284 284 283 283 283 282 281 281 280 280 279 280 281 281
288 290 289 287 287 288 283 286 285 284 281 277 281 276 281 280 283 281 282 279 279 280 281 281 281 279 279 282 282 282 283 284 284 282 280 278 277 276 278 278 279 279 280 280
290 286 286 286 287 288 285 285 284 282 280 277 279 276 280 280 280 280 281 279 278 279 280 280 281 282 282 283 281 281 282 282 282 281 279 278 277 277 278 278 277 277 278 279
289 289 287 287 288 287 287 285 283 280 278 273 278 277 276 276 280 282 282 279 279 279 279 281 282 282 282 281 281 281 281 281 281 279 278 277 276 276 276 275 275 275 276 278
286 286 286 288 285 286 285 280 276 273 271 275 276 275 283 282 281 283 282 279 279 279 279 280 280 280 280 280 280 281 280 279 279 278 278 277 276 276 275 275 275 274 275 275
282 281 285 287 286 284 283 281 276 270 271 278 277 275 279 279 280 282 282 280 278 278 279 279 280 280 279 280 280 279 279 279 279 278 277 277 276 276 276 275 274 274 274 274
281 281 283 283 284 284 281 278 281 275 262 266 274 277 281 277 277 277 277 278 277 278 278 279 280 280 279 279 279 279 278 278 278 277 276 275 275 275 274 274 274 274 274 274
285 281 281 280 282 281 281 282 276 275 270 267 273 274 279 275 275 276 276 277 277 278 279 279 279 280 279 279 279 278 278 276 276 276 275 274 274 274 274 274 274 273 274 273
283 283 279 279 278 280 276 276 277 278 278 272 271 279 279 278 279 276 277 278 277 278 279 279 279 279 279 278 277 276 275 275 275 275 274 273 273 273 274 273 273 273 273 273
284 281 277 277 279 279 278 280 280 276 273 276 274 278 280 281 281 280 278 278 278 278 278 278 278 278 277 276 276 275 274 274 274 273 272 272 272 272 272 272 273 273 272 273
283 279 273 278 277 276 276 277 280 278 278 276 271 278 279 278 278 279 277 277 278 278 277 277 277 276 276 275 274 273 272 272 273 271 271 270 270 271 271 272 272 272 271 271
289 280 281 280 282 279 275 274 277 280 277 277 277 279 284 280 277 276 276 277 277 277 277 277 275 275 274 274 272 271 272 271 271 270 269 269 269 270 271 271 271 270 270 269
284 279 279 284 285 280 282 282 276 276 279 278 281 282 285 288 284 277 278 277 276 276 277 275 275 273 272 272 271 271 271 270 270 268 268 268 270 270 270 270 269 269 269 269
280 279 279 278 281 280 279 282 282 281 282 281 281 280 288 288 281 276 276 276 277 276 276 276 275 274 273 272 271 271 269 268 269 267 268 269 269 270 269 268 268 267 267 267
277 278 278 278 280 278 274 279 280 282 283 282 277 283 287 283 277 276 276 277 277 276 276 275 273 272 271 270 271 268 268 268 267 267 267 267 268 267 267 266 265 265 266 267
279 279 279 277 276 271 284 279 281 280 282 283 282 283 282 278 276 277 278 277 276 275 274 273 271 270 269 269 269 267 268 267 267 266 266 266 265 264 264 264 263 264 266 267
287 284 280 276 276 279 283 284 276 275 280 281 282 283 283 276 275 273 276 275 274 273 273 272 271 270 269 268 267 266 266 265 265 264 264 264 264 262 262 261 262 265 265 266
284 284 281 274 271 272 284 275 277 279 274 283 282 282 275 276 271 272 274 274 273 272 271 270 269 269 267 266 266 264 264 263 262 263 263 263 262 260 260 263 263 264 265 266
275 277 276 278 276 274 281 276 278 273 280 278 279 278 276 276 276 275 275 272 272 271 269 269 268 266 265 265 265 262 262 261 262 262 261 260 260 260 263 263 263 264 264 266
275 273 272 276 271 271 280 275 276 280 277 277 276 277 277 275 274 275 274 271 270 268 268 268 266 265 265 264 262 261 260 261 261 260 258 258 259 262 262 261 262 263 263 264
278 281 276 277 277 281 281 278 282 280 278 277 278 278 278 275 274 274 272 270 269 268 268 266 264 263 263 263 262 259 260 260 259 256 255 257 261 261 261 261 261 261 262 263
277 282 280 278 284 281 279 281 282 281 280 280 280 279 278 277 275 273 272 270 268 267 266 264 263 262 261 261 260 259 258 257 254 253 256 259 260 260 261 261 262 261 261 262
283 282 281 280 283 282 284 281 281 281 281 279 279 279 279 278 276 273 271 269 268 266 264 263 261 260 259 259 258 258 257 254 253 255 257 258 259 259 260 261 261 262 263 265
282 284 280 282 285 286 285 282 282 280 279 280 279 276 276 278 275 273 270 268 266 264 262 261 260 258 258 257 256 255 253 252 251 253 255 256 257 258 259 259 259 264 266 267

GFSCGP_sfc_thetae_015.txt.gz
Theta_e
293 290 287 290 289 287 284 283 282 284 289 287 287 288 292 287 286 284 281 282 282 281 282 283 282 282 282 282 283 283 283 284 283 282 281 281 280 280 280 281 282 282 282 282
290 288 291 291 289 286 284 283 283 286 287 287 285 285 289 287 287 287 285 283 282 281 280 281 281 281 282 281 282 282 283 283 283 282 281 281 279 279 280 281 281 281 281 281
289 290 291 289 286 285 284 283 283 284 285 284 282 280 284 285 287 287 287 285 283 281 280 281 281 280 280 280 281 283 283 283 282 282 281 280 280 279 277 278 279 280 280 280
288 289 288 286 286 286 282 286 285 284 280 277 282 277 280 283 284 283 284 281 282 280 281 281 280 280 280 281 281 282 282 283 283 282 280 277 276 276 277 277 278 278 279 279
290 286 286 285 286 287 286 285 282 281 280 277 278 276 279 279 281 285 282 282 282 281 281 280 280 281 282 282 280 280 281 282 282 281 279 277 276 277 277 277 276 277 278 278
289 288 287 287 286 286 287 283 282 278 277 273 278 277 276 279 282 282 282 282 281 280 279 280 281 281 281 281 280 280 280 280 281 280 278 277 275 276 275 275 275 276 277 277
285 285 286 288 284 285 284 281 277 275 272 275 276 274 283 286 286 283 282 281 280 280 279 279 279 280 280 280 280 280 280 279 279 278 277 276 276 275 275 274 274 275 275 275
283 283 285 287 285 284 282 283 278 270 271 277 276 275 281 282 280 280 281 282 280 279 279 279 279 279 279 279 279 279 279 278 278 277 276 276 275 275 274 274 274 274 274 275
281 281 282 283 283 284 281 278 282 277 261 267 276 277 282 279 278 277 279 279 278 279 278 279 279 279 279 278 279 278 277 277 277 276 275 274 273 273 273 273 274 274 275 275
286 282 281 280 281 280 280 282 277 274 267 265 273 275 280 281 279 276 276 277 278 278 278 278 279 279 279 278 279 277 276 276 276 275 274 274 273 273 273 273 273 273 274 274
285 284 279 279 279 280 277 277 277 277 277 270 267 278 282 284 282 277 277 278 278 278 278 278 278 279 278 278 277 276 275 275 274 274 273 272 272 272 272 272 272 273 273 273
285 283 277 278 277 279 279 280 281 276 272 272 273 279 283 282 283 278 278 279 278 278 278 278 278 278 277 276 275 274 274 273 274 273 272 271 271 271 270 271 272 273 272 273
285 281 273 277 278 277 276 278 280 278 277 277 273 279 280 280 278 278 278 278 278 277 277 277 277 276 276 275 274 273 272 272 272 271 270 270 270 269 270 270 271 272 272 271
292 282 281 280 281 278 275 276 278 280 276 279 280 281 286 287 284 279 277 277 277 277 277 276 275 275 274 274 272 271 270 270 270 269 269 268 269 269 270 270 270 270 270 269
286 282 281 286 287 281 281 283 276 276 280 279 283 283 286 289 290 287 283 278 277 276 277 276 275 274 273 272 271 270 269 269 269 268 268 268 269 269 270 269 269 269 268 268
281 282 281 281 283 281 280 284 283 280 282 282 283 282 290 292 292 290 281 277 276 277 277 277 276 275 274 273 271 271 269 268 268 267 268 268 268 269 268 268 267 267 267 266
277 277 275 279 281 280 277 283 284 285 286 285 280 285 290 289 282 281 278 278 277 277 277 276 275 274 273 270 271 267 267 268 267 267 267 267 267 266 266 266 265 265 265 266
277 277 279 277 277 273 285 283 286 284 286 287 287 288 289 288 280 281 279 278 277 278 276 275 273 270 270 269 268 267 267 267 266 266 266 265 265 264 264 263 263 264 265 265
286 282 280 278 278 282 285 285 280 279 284 286 285 287 288 278 276 276 277 278 278 277 275 273 271 270 268 267 267 266 265 265 264 264 264 263 263 261 261 260 262 264 263 263
282 285 284 281 276 276 285 278 279 281 276 289 287 285 285 277 273 281 275 275 274 273 272 270 270 269 267 266 266 264 264 263 262 262 262 262 262 260 260 261 263 263 263 264
278 279 278 280 279 282 287 277 279 275 283 282 284 284 277 277 281 277 275 273 273 272 269 269 268 266 265 265 264 263 262 262 261 261 261 260 260 259 260 262 262 262 262 263
278 277 276 279 278 276 280 276 280 285 279 281 280 278 278 277 275 275 275 271 271 269 269 268 267 265 265 264 263 261 261 261 260 259 258 257 257 259 262 260 261 261 261 261
282 284 282 282 281 283 282 288 285 283 281 279 279 279 279 276 275 275 272 270 269 269 269 268 266 264 263 262 262 260 259 260 258 255 254 255 259 260 260 259 260 260 261 261
284 284 283 279 286 283 281 283 281 282 281 279 279 279 279 277 275 274 272 271 269 269 267 265 264 263 261 260 260 259 258 257 253 252 255 259 258 258 259 260 261 260 261 261
289 283 284 283 286 284 287 286 284 282 281 280 279 279 279 277 275 274 272 271 269 268 266 265 264 262 260 259 258 257 256 254 253 254 256 257 257 257 259 260 259 261 263 265
286 287 283 284 291 290 291 289 285 281 280 281 279 278 279 279 276 275 273 271 268 266 264 263 262 260 258 257 257 255 252 251 250 252 254 255 256 256 258 258 258 263 265 267

GFSCGP_sfc_thetae_018.txt.gz
Theta_e
292 290 287 288 289 288 287 283 282 283 287 286 286 287 291 291 285 285 284 283 284 285 284 283 282 281 281 281 282 282 282 283 283 281 280 280 279 279 279 280 281 281 281 281
289 287 290 291 289 286 284 282 282 285 285 286 285 285 288 291 288 287 287 284 284 285 280 282 281 280 281 281 282 282 282 282 282 281 281 280 279 279 279 280 280 280 280 280
287 289 291 289 286 285 283 282 282 283 283 283 281 280 283 287 287 287 287 288 286 285 282 281 281 280 280 280 281 282 282 282 282 282 281 280 279 278 277 277 277 279 279 279
289 289 288 286 286 286 282 284 283 282 280 278 282 279 281 287 287 285 286 284 285 284 284 282 281 280 279 280 280 282 282 282 283 281 279 277 276 276 276 276 277 278 278 278
289 286 285 285 286 286 284 283 281 280 278 275 277 275 279 280 283 288 288 285 285 283 283 282 282 282 281 281 280 280 280 281 281 281 279 277 276 276 276 275 275 275 276 277
288 287 286 286 285 285 285 282 280 277 276 272 279 278 277 279 283 284 284 283 283 282 281 282 282 281 281 280 280 279 279 280 280 279 278 276 275 274 275 275 274 275 275 276
285 285 285 287 284 284 282 281 277 274 272 276 276 274 283 284 286 286 286 283 281 280 279 280 279 280 280 279 279 279 279 279 279 278 277 276 275 274 274 274 273 274 274 274
282 282 284 286 286 284 281 283 278 270 270 278 275 275 282 284 286 283 280 280 281 278 279 280 280 280 279 279 279 278 279 278 277 277 276 275 275 274 273 273 273 273 273 274
282 282 282 283 283 284 281 279 281 277 263 268 278 279 282 284 282 281 279 280 280 277 278 279 279 280 279 278 278 278 277 277 276 276 275 274 273 273 272 272 273 273 273 275
287 283 281 280 281 279 280 282 277 276 270 266 276 277 281 285 285 284 279 278 279 277 277 278 279 279 278 278 278 277 276 276 275 275 274 274 273 272 272 272 272 272 273 273
287 286 281 280 279 279 277 277 277 279 276 271 269 279 282 285 286 285 282 280 279 278 278 278 279 279 278 277 277 276 275 275 274 274 273 272 272 272 271 271 271 272 272 273
287 285 283 283 277 278 279 280 281 278 275 271 272 280 284 285 285 284 281 281 278 278 278 278 279 278 277 276 275 274 274 273 273 272 272 271 271 271 270 270 271 272 271 272
286 283 277 279 278 278 277 279 280 279 278 275 273 280 283 283 282 281 279 279 278 277 276 277 277 277 276 275 274 273 272 271 271 270 270 270 269 269 269 270 270 271 271 270
292 284 282 281 282 280 277 278 280 282 279 279 279 282 287 289 289 291 286 279 278 277 277 277 277 276 275 275 273 271 270 269 270 269 268 268 268 269 269 270 270 270 269 268
287 283 284 286 287 280 280 281 280 278 281 279 283 282 286 289 290 291 292 285 278 276 276 277 277 275 274 272 272 271 269 269 269 268 267 268 268 269 269 269 269 268 268 268
282 283 284 282 285 282 281 284 284 280 282 281 282 282 290 293 293 292 291 289 279 277 277 278 277 276 274 274 271 272 269 267 268 267 268 268 268 268 268 267 267 266 266 266
277 279 274 279 283 279 276 282 285 286 287 284 279 285 290 289 289 290 290 284 281 279 278 277 277 276 274 272 272 268 267 267 267 267 267 267 266 266 265 265 265 264 264 265
277 277 278 279 275 273 284 289 287 285 287 288 288 289 291 290 292 282 286 282 280 278 277 277 276 273 271 269 268 267 268 267 267 266 265 265 264 264 263 263 263 263 264 264
287 283 280 277 278 281 283 285 282 281 284 289 287 289 290 291 279 284 279 280 281 278 278 277 274 270 268 267 267 266 266 265 264 263 263 263 263 261 261 260 261 263 263 263
287 287 284 281 276 274 283 288 286 284 280 291 290 290 289 280 279 287 280 277 276 277 275 272 270 268 267 266 266 265 264 263 262 262 262 262 262 260 259 260 261 262 262 263
278 281 279 280 279 282 288 280 283 278 283 289 290 290 289 282 286 279 275 273 274 273 271 269 269 267 266 266 265 264 263 261 261 261 261 260 260 259 259 261 261 261 261 262
282 279 278 279 277 277 289 283 282 289 293 287 284 284 283 283 277 275 274 272 271 270 270 269 267 265 265 265 265 263 262 261 260 259 258 258 257 258 261 258 259 260 260 260
282 286 284 283 282 286 286 291 292 293 293 284 283 282 282 278 275 274 272 271 270 270 269 268 266 264 264 264 264 262 260 260 259 255 255 255 258 259 259 258 259 259 260 261
287 290 286 286 288 289 288 287 291 292 290 285 282 281 280 277 275 274 273 271 270 270 268 267 265 263 261 262 262 261 259 258 254 251 256 259 258 257 259 260 260 259 260 261
289 287 287 287 289 291 292 292 291 286 285 282 280 281 280 279 275 274 273 271 270 269 267 267 266 264 261 261 259 259 257 256 256 256 257 257 257 256 258 259 258 261 263 265
291 288 285 285 291 290 292 295 294 289 283 283 281 278 280 279 277 275 273 272 270 268 267 266 265 262 260 260 258 256 254 254 253 255 255 255 255 256 257 256 257 262 265 267

GFSCGP_sfc_thetae_021.txt.gz
Theta_e
292 290 287 289 289 287 287 286 285 286 287 287 286 288 292 294 287 289 288 286 286 286 289 287 285 284 284 284 284 285 285 286 286 285 284 283 283 284 283 284 283 284 283 283
289 288 291 291 289 288 285 284 284 286 286 286 285 286 290 291 293 293 291 288 287 287 285 284 284 283 283 284 284 284 285 285 285 284 284 284 283 283 283 283 283 283 282 282
287 288 290 290 286 286 284 283 283 285 284 284 282 281 283 287 289 290 291 290 288 288 286 284 283 282 283 283 283 284 284 285 285 285 284 283 283 282 281 281 281 282 281 281
289 289 289 286 287 287 284 285 284 283 282 279 283 280 282 286 288 289 291 287 289 287 288 285 283 282 282 283 284 284 284 284 285 284 283 281 280 279 280 280 281 280 281 280
287 286 285 286 287 287 285 284 283 282 280 277 279 277 282 281 285 289 291 288 287 287 287 285 283 284 283 284 283 284 284 284 284 284 283 281 279 279 280 279 278 278 279 279
288 287 287 288 285 284 285 283 282 278 277 273 281 280 279 281 285 287 289 289 288 285 284 285 284 284 283 284 283 283 282 282 283 282 281 280 279 278 277 277 276 277 277 278
285 284 285 286 285 285 283 282 278 275 273 277 276 276 284 285 286 288 291 289 286 284 282 282 282 282 282 282 282 282 281 281 281 281 280 279 278 277 276 276 276 275 275 276
283 282 284 286 287 284 282 283 278 271 273 279 275 275 283 286 290 288 286 285 283 283 281 281 282 282 282 282 282 282 281 281 280 279 279 278 277 277 276 276 275 274 274 275
282 282 282 283 283 284 281 280 283 277 263 270 280 281 284 285 285 284 284 281 282 282 280 280 281 282 282 282 282 281 281 280 279 279 278 277 276 275 274 274 274 274 274 275
286 283 281 281 281 279 282 283 278 277 272 268 279 281 283 284 286 287 285 285 283 282 280 280 280 281 282 282 281 280 280 279 278 278 276 276 275 274 274 274 273 273 274 274
288 287 282 280 280 280 278 278 278 280 277 273 274 281 283 286 286 287 287 285 284 283 280 279 280 281 281 281 280 279 278 277 276 276 275 274 274 273 273 272 272 272 273 273
287 286 283 284 278 279 280 281 282 278 275 273 273 280 287 286 287 286 287 285 284 283 281 279 279 279 280 280 278 277 276 276 275 275 273 272 272 272 271 271 271 272 272 273
287 283 279 281 279 278 279 279 280 280 279 278 274 281 287 284 285 285 286 283 283 282 279 278 278 279 279 278 277 276 275 274 273 272 271 271 270 270 270 270 271 272 271 271
293 285 284 281 283 280 277 277 281 282 280 280 280 283 288 290 289 287 285 282 283 282 280 278 278 279 280 278 276 274 272 272 271 271 270 269 269 270 270 270 270 270 270 269
288 284 286 287 288 284 281 281 281 279 282 279 283 283 287 290 291 292 292 292 289 280 278 278 278 278 277 276 275 273 272 271 270 269 269 269 269 270 270 269 269 269 269 269
284 283 285 283 286 285 283 284 285 284 283 282 283 283 290 292 292 292 292 292 290 287 281 279 278 278 277 276 273 273 270 269 269 268 268 269 268 268 268 268 268 267 267 267
281 281 278 279 284 282 276 283 285 286 287 286 282 287 291 290 290 291 291 291 291 290 282 279 278 278 277 275 274 270 269 269 268 268 268 267 267 266 266 266 265 265 265 265
284 280 282 279 280 272 283 288 287 285 287 288 288 289 291 291 293 293 292 292 291 286 281 279 278 277 275 272 270 268 268 268 268 267 266 266 265 264 264 264 264 264 264 265
289 285 281 277 277 281 283 286 283 281 283 289 288 289 291 292 287 289 285 287 289 285 280 278 277 274 271 269 268 268 267 267 266 265 265 264 264 263 262 261 262 263 264 263
288 288 283 280 276 274 283 288 290 286 280 290 291 290 290 290 283 289 290 283 280 278 277 274 272 271 269 268 268 267 266 265 264 264 264 263 263 261 261 262 262 263 262 263
278 282 279 279 278 281 287 290 286 277 283 292 289 290 290 288 290 286 277 276 276 275 273 272 271 269 267 267 268 266 265 264 264 263 262 262 261 260 260 262 261 261 261 262
282 278 278 280 277 276 289 285 282 289 293 293 290 286 287 288 286 279 276 273 272 271 272 271 268 267 267 267 267 265 264 263 262 261 260 260 259 260 261 258 259 260 260 260
282 286 284 283 282 287 287 290 293 294 292 293 288 286 288 285 282 278 274 272 271 271 270 270 267 266 266 267 267 264 262 262 260 259 258 258 260 260 259 257 259 259 260 261
286 291 286 286 289 286 286 290 292 292 292 293 291 289 283 284 280 277 274 272 271 270 269 268 267 265 264 265 266 264 262 261 257 257 259 260 259 259 259 260 260 259 260 261
288 287 286 286 289 290 291 292 293 293 288 287 287 286 285 284 279 278 274 272 271 270 269 268 267 265 264 263 262 261 260 259 259 259 259 258 258 256 258 259 258 261 263 266
290 288 285 285 290 290 291 294 295 293 292 292 288 283 283 284 282 278 275 273 271 269 268 267 267 265 263 261 260 258 258 259 259 258 258 256 257 256 257 257 257 262 265 267

GFSCGP_sfc_thetae_024.txt.gz
Theta_e
301 299 296 299 300 299 295 294 294 298 295 294 296 295 298 300 300 298 299 301 301 298 299 299 296 294 292 292 292 292 292 292 292 291 291 290 290 291 290 290 289 288 288 287
297 295 300 299 297 295 295 294 295 297 292 292 294 292 295 297 298 299 300 301 302 299 298 297 295 292 290 290 291 291 291 292 291 291 291 290 290 290 290 289 289 288 287 286
295 298 295 296 295 293 294 294 295 293 292 291 289 290 292 296 296 298 299 300 301 300 298 295 293 291 291 290 290 290 290 291 291 290 289 288 288 288 287 288 288 287 286 286
296 297 295 294 294 295 292 296 294 291 290 289 290 286 294 296 295 296 300 301 299 298 297 296 293 292 291 291 292 290 290 290 290 290 288 287 287 287 288 287 287 286 286 285
294 292 292 293 294 295 294 291 290 289 289 286 290 285 291 289 290 295 298 301 300 299 297 295 293 292 292 291 291 290 290 289 289 289 288 288 287 287 287 286 285 285 285 284
295 294 294 295 290 291 290 290 288 286 287 283 290 288 289 290 292 295 298 300 298 296 296 297 295 293 291 291 290 291 289 288 289 288 288 287 286 286 285 284 283 283 283 283
293 292 292 292 291 290 290 290 287 286 284 284 286 284 288 293 295 296 298 301 297 296 295 294 292 290 290 289 289 289 289 287 288 288 287 287 286 285 284 283 282 281 281 281
289 288 289 292 294 294 289 292 288 282 283 285 283 281 290 295 297 297 295 296 294 293 293 293 292 290 289 288 288 288 288 288 288 287 286 286 285 284 283 282 281 280 280 280
287 289 288 288 289 292 288 287 291 287 279 280 288 292 293 293 292 293 292 294 295 294 293 291 291 290 289 288 288 289 288 288 287 286 286 284 283 282 281 280 280 279 280 279
293 287 288 285 288 286 287 289 285 286 282 281 286 288 289 291 291 293 292 294 297 295 294 292 290 289 289 289 289 289 289 288 287 286 285 283 282 281 280 279 278 278 279 278
292 292 288 285 285 288 283 285 285 284 284 282 281 286 293 292 293 292 294 297 298 296 295 293 290 289 289 289 288 288 288 287 286 284 283 281 280 279 278 277 277 277 277 277
293 291 288 290 285 285 287 288 288 284 283 284 284 285 292 294 295 294 294 294 296 295 295 294 291 289 288 287 287 287 287 286 284 283 281 279 278 277 276 276 276 277 276 277
290 287 285 287 283 283 284 284 287 288 288 284 282 284 294 295 295 295 294 296 294 295 294 292 289 287 286 286 286 286 285 284 282 280 279 277 276 276 275 275 275 275 275 275
294 288 287 283 287 287 283 284 285 287 284 284 285 287 291 294 294 295 296 294 294 294 292 294 290 287 287 286 285 284 283 281 279 277 276 276 275 275 275 275 274 274 274 274
291 285 288 289 290 289 288 287 287 283 285 283 287 287 291 293 294 296 297 297 296 296 292 292 290 287 286 285 283 282 281 278 277 275 275 275 274 274 273 273 273 273 273 272
289 284 286 283 287 287 285 288 288 288 288 288 287 285 293 294 295 294 295 295 294 294 295 293 289 286 284 283 282 279 278 276 275 274 274 273 273 272 272 271 271 271 271 271
286 285 284 280 286 285 280 285 287 288 290 289 284 290 294 293 294 294 295 295 294 294 294 293 287 284 283 281 280 278 275 274 274 273 273 271 271 270 270 270 269 269 269 270
286 285 285 280 283 274 286 291 290 288 290 291 291 292 293 294 295 295 297 295 295 295 295 292 288 285 283 281 279 276 273 273 273 272 271 270 269 269 268 268 268 268 269 269
291 287 281 278 279 283 285 288 287 286 286 292 291 292 293 294 294 294 296 297 296 297 297 295 288 284 281 279 276 273 272 272 271 270 270 269 268 267 266 265 267 267 268 268
289 289 283 280 276 275 286 291 293 291 281 293 292 292 292 292 287 292 298 295 294 288 285 282 281 278 276 274 274 272 271 270 270 270 269 268 267 266 265 266 266 267 266 266
282 283 279 280 279 283 290 291 290 280 284 294 293 293 292 290 292 296 288 286 283 281 279 277 276 274 273 273 273 272 270 270 270 269 267 266 266 265 265 265 265 265 265 266
284 281 280 280 278 276 293 292 285 292 296 296 296 292 290 291 292 292 285 281 279 276 276 275 274 272 272 273 273 271 270 269 267 266 265 265 264 265 265 262 264 264 264 264
283 288 286 286 285 292 295 294 296 296 295 296 295 295 293 292 291 289 282 278 278 276 275 274 272 270 271 272 272 270 267 266 265 264 263 263 263 264 263 263 264 265 265 265
291 293 288 288 291 292 294 296 297 297 296 297 297 295 291 292 292 287 283 278 275 274 273 272 270 269 269 270 271 269 266 265 263 263 263 263 263 263 263 265 265 265 265 265
284 286 285 284 287 291 294 295 294 292 293 291 293 291 292 292 289 289 285 280 276 273 272 271 271 270 268 268 266 266 265 263 263 264 264 263 263 263 263 264 264 265 266 267
286 284 282 282 289 290 291 295 296 295 294 295 294 293 293 290 292 291 287 281 277 273 271 270 271 269 267 265 264 264 263 264 264 263 262 262 262 262 262 263 263 263 265 267

GFSCGP_sfc_thetae_027.txt.gz
Theta_e
304 299 296 300 302 301 299 297 296 298 301 298 298 298 300 304 304 303 304 304 305 305 308 306 304 303 301 300 298 296 295 295 295 294 293 293 292 293 292 293 291 290 290 289
299 295 301 302 301 300 299 296 295 299 301 296 297 296 300 302 302 303 303 303 304 305 306 305 303 302 299 297 296 295 295 295 294 295 295 294 293 294 293 292 291 290 289 288
296 299 299 299 298 296 296 294 295 295 298 295 294 292 296 300 301 302 303 303 304 304 306 304 302 299 298 296 295 295 295 295 294 295 294 292 292 290 289 290 290 290 289 288
297 301 298 297 295 297 292 299 298 296 294 290 294 287 296 298 299 300 301 303 304 305 305 304 301 299 297 296 297 295 295 294 294 294 292 290 289 288 290 292 291 289 288 287
295 297 295 294 295 298 295 294 294 295 293 292 292 289 293 296 294 296 299 302 304 306 303 301 300 299 298 297 296 295 294 294 294 294 291 290 289 291 292 289 288 287 288 287
296 297 297 297 294 295 295 293 293 292 291 285 291 290 291 294 294 297 298 300 303 302 301 300 301 299 298 297 296 294 293 292 293 292 291 291 290 290 289 288 287 287 287 286
295 295 297 295 293 293 293 292 287 287 286 285 294 290 292 297 298 298 298 300 302 301 300 300 298 297 296 296 294 293 292 291 292 291 291 290 290 290 288 287 286 286 285 285
291 289 294 294 295 295 291 293 289 283 284 287 291 286 292 299 300 300 300 301 301 299 300 299 299 297 296 295 293 293 292 291 291 290 290 290 290 288 287 287 286 285 284 284
290 290 291 292 292 296 291 287 294 290 288 285 288 293 298 298 297 298 298 297 298 299 299 298 298 298 296 294 293 292 291 291 291 290 290 289 288 287 286 285 285 284 283 282
295 288 293 287 290 290 291 292 287 288 282 281 287 290 291 296 295 296 296 296 299 301 300 299 298 297 296 295 294 293 292 291 291 290 289 288 287 286 285 284 282 282 282 281
296 292 290 288 287 289 285 286 287 287 289 284 282 287 295 295 297 297 297 297 299 302 300 299 297 296 296 295 293 292 292 291 290 289 288 286 285 284 283 282 281 281 281 280
294 292 287 290 294 289 291 291 290 285 284 286 285 285 295 298 298 299 297 298 301 301 301 301 300 297 294 293 293 292 291 290 289 288 287 285 283 282 280 280 280 280 279 279
292 287 284 287 288 286 286 289 289 291 289 285 283 285 296 297 298 296 296 298 299 299 300 301 299 296 294 293 292 291 290 289 289 287 285 283 281 279 279 278 278 278 278 277
295 289 286 283 287 290 287 288 289 288 284 284 285 288 292 295 296 298 298 299 299 300 299 299 298 296 294 292 291 290 289 288 287 285 282 280 279 278 278 278 277 277 276 276
292 285 287 288 290 290 288 288 288 285 287 284 287 288 292 295 296 298 298 298 297 297 298 298 296 297 295 291 289 288 288 287 285 281 280 278 278 277 277 276 276 276 275 275
291 283 286 284 288 288 285 288 289 288 289 288 288 287 294 296 297 296 296 297 296 297 298 297 296 295 291 289 288 286 285 284 281 279 278 277 276 275 275 275 275 274 273 273
286 284 283 280 286 286 281 286 287 288 290 290 286 291 296 296 296 296 297 298 298 297 297 296 296 295 290 288 286 284 284 282 278 278 277 275 275 274 274 273 272 272 271 272
286 284 284 281 283 274 286 293 292 289 291 293 293 294 296 296 297 298 299 298 297 296 295 296 297 297 291 289 286 284 281 278 277 276 275 274 274 273 272 271 270 271 271 271
291 287 282 279 279 284 287 290 289 288 288 293 293 294 295 296 295 295 298 298 298 298 298 293 293 293 290 286 283 280 277 276 275 274 274 273 272 271 270 269 269 270 270 270
290 289 284 281 278 276 287 293 295 294 282 294 294 294 294 294 288 292 298 296 296 289 288 287 286 285 284 282 280 276 275 274 274 274 273 272 271 270 269 269 269 270 269 269
283 283 280 280 279 283 291 294 294 282 285 294 294 294 294 292 295 297 292 290 289 288 284 284 282 281 281 278 276 274 274 274 275 273 271 270 270 269 269 269 269 268 267 268
285 282 280 281 279 277 294 293 286 292 296 297 296 296 294 295 295 295 296 290 286 284 281 281 278 277 276 276 275 274 273 273 271 270 269 268 268 268 268 266 266 266 266 266
284 289 286 286 286 293 295 294 297 298 296 296 296 297 296 293 293 293 292 288 285 284 280 278 277 275 274 275 276 273 273 270 269 268 267 266 266 268 266 265 266 266 266 267
282 286 280 280 287 286 288 291 294 297 296 295 294 293 293 292 292 290 289 288 284 281 279 277 274 273 272 274 275 274 270 269 267 266 266 266 265 265 265 266 267 267 267 267
281 282 280 281 285 287 288 290 292 293 294 294 295 295 295 295 293 292 292 290 286 282 278 275 274 273 272 273 273 269 268 267 266 266 265 265 266 265 265 267 266 267 267 268
280 278 277 277 284 284 286 288 288 288 288 291 291 291 293 292 292 293 291 291 289 281 277 274 274 273 271 271 268 267 267 267 266 265 265 265 264 265 265 265 263 266 267 267

GFSCGP_sfc_thetae_030.txt.gz
Theta_e
299 293 291 294 297 297 295 293 292 295 298 294 293 294 296 299 297 297 300 300 299 300 302 302 301 299 298 296 294 293 292 291 292 290 289 288 288 288 288 288 288 287 287 287
295 292 297 299 298 295 293 291 292 295 296 294 292 292 296 297 298 299 299 300 300 299 299 299 299 298 297 295 294 293 292 291 292 291 290 289 289 288 288 288 287 287 287 286
292 295 300 297 295 293 293 291 291 291 294 291 289 287 291 295 298 299 300 300 300 298 297 297 297 297 295 294 293 292 292 292 291 291 290 289 288 286 285 285 285 286 286 286
294 298 296 294 293 294 289 294 293 292 288 284 290 281 289 292 294 295 296 296 298 296 297 298 296 295 295 294 294 293 292 292 292 291 290 287 286 283 284 286 286 285 285 284
292 292 292 292 293 295 291 293 290 289 288 286 287 283 287 292 290 293 295 296 298 296 297 296 296 296 295 293 292 292 291 291 291 290 290 287 285 285 285 285 285 284 284 284
293 295 293 293 292 293 292 290 288 287 285 279 285 285 285 288 291 292 294 295 296 296 296 296 295 295 294 293 291 291 290 290 290 290 289 287 286 285 284 283 283 282 282 282
290 292 293 293 289 290 289 287 280 278 277 279 287 284 289 290 292 293 293 295 295 296 294 293 293 293 293 292 291 291 290 289 290 290 289 288 286 285 284 284 283 282 281 280
286 285 291 292 292 290 287 288 281 274 275 282 285 280 286 294 296 294 295 296 294 294 294 294 293 293 292 291 291 291 290 289 289 289 288 287 286 287 286 284 284 282 280 280
286 286 289 290 290 293 287 283 289 283 277 276 284 286 290 292 293 293 294 293 292 292 293 294 293 292 291 291 291 290 289 289 289 288 288 287 286 285 285 282 281 280 280 280
291 286 289 286 288 288 286 289 282 283 273 272 282 281 285 289 292 292 290 291 292 293 293 293 293 293 292 292 291 290 290 289 289 288 287 287 286 284 282 281 280 279 279 278
292 289 285 286 283 285 283 283 284 285 283 277 278 282 287 291 292 292 291 292 293 294 294 293 293 292 292 291 291 290 289 288 288 287 287 286 284 282 281 280 279 278 278 278
292 289 284 287 289 288 288 287 286 282 281 280 281 284 291 291 291 293 292 293 294 294 294 293 293 291 291 291 290 289 289 288 287 287 286 284 282 281 280 278 277 278 277 277
291 285 280 283 286 284 284 286 289 289 286 283 280 283 293 296 294 292 291 291 293 293 293 294 293 291 291 290 289 289 288 288 286 286 285 283 281 280 278 277 277 277 276 276
295 287 284 280 284 287 285 286 287 286 282 283 283 285 290 293 293 295 296 296 293 293 293 292 292 291 291 290 289 289 288 288 286 285 284 282 280 279 277 276 276 276 275 275
290 283 285 287 288 288 287 286 286 284 285 281 285 285 289 292 293 295 296 296 294 295 295 295 291 291 290 288 287 287 287 286 285 284 283 281 279 277 276 275 275 275 275 274
290 283 284 282 285 285 283 286 286 286 286 287 286 285 292 294 295 294 294 295 294 295 296 293 291 289 288 287 288 285 285 284 284 283 281 278 276 276 275 275 275 274 274 274
286 284 282 279 284 283 280 284 285 286 288 287 283 288 293 293 293 294 295 296 296 296 295 291 290 289 288 287 286 284 282 281 281 280 278 276 275 274 274 274 274 274 273 273
285 284 284 282 283 274 284 291 290 287 289 290 290 291 294 294 295 296 297 297 295 295 293 290 288 289 290 286 283 281 281 280 278 277 276 275 274 274 274 273 272 272 272 272
293 288 283 280 279 283 285 288 287 286 286 291 291 292 294 295 295 295 298 298 296 297 293 290 289 288 286 282 280 280 278 278 277 276 274 274 273 272 272 271 271 271 271 271
291 291 285 283 278 276 285 291 294 291 281 292 293 292 292 293 287 291 297 293 292 293 290 288 285 283 281 279 279 278 276 275 275 275 274 274 274 272 271 271 271 271 271 271
283 284 281 282 280 283 289 291 290 280 283 293 294 293 293 289 292 294 290 290 291 290 286 283 281 281 280 278 278 276 275 274 276 275 273 272 272 272 271 271 271 270 269 270
282 281 281 282 279 277 287 289 284 285 290 291 291 290 290 290 290 289 290 289 287 286 281 281 280 278 277 277 277 275 274 275 275 273 271 271 271 271 270 269 269 268 268 267
276 278 275 277 277 284 286 284 288 289 289 287 287 288 289 288 289 289 288 288 287 284 283 280 278 276 274 275 276 274 274 274 272 270 269 269 269 269 268 267 266 266 267 267
277 281 276 276 281 281 283 286 289 289 287 288 289 289 290 289 289 289 287 287 286 284 282 278 275 275 273 274 275 274 273 271 269 268 267 268 268 266 266 267 267 267 266 267
275 276 274 273 276 278 280 282 284 285 285 284 284 283 284 285 286 288 289 289 288 286 280 277 277 277 275 273 273 272 271 270 268 267 266 267 267 266 266 267 267 268 269 268
276 274 271 270 277 278 278 281 282 280 279 278 279 280 283 284 284 285 286 287 288 289 283 277 276 276 274 272 272 269 269 269 268 266 266 266 266 266 266 266 267 271 270 272

GFSCGP_sfc_thetae_033.txt.gz
Theta_e
295 289 288 291 293 292 289 288 287 291 295 292 291 292 294 297 293 295 297 297 296 297 301 298 299 299 298 297 293 292 291 291 292 291 289 288 288 287 286 286 287 287 287 286
291 288 293 294 293 292 291 289 289 292 294 292 290 291 294 295 297 295 297 298 299 299 296 297 296 297 297 295 293 292 291 291 292 292 291 288 287 287 286 287 286 286 286 286
290 292 297 295 293 291 291 289 289 289 291 290 288 286 289 294 296 297 298 299 300 299 297 296 294 296 296 294 292 292 291 291 292 291 289 287 287 285 284 284 284 285 285 285
290 295 294 291 291 293 288 292 291 289 286 284 287 282 286 290 292 294 297 297 298 298 294 295 294 294 294 294 293 292 292 290 291 290 289 288 286 286 287 287 285 284 285 284
289 289 289 290 292 292 291 291 290 287 284 284 284 282 284 290 288 291 295 296 299 297 294 293 294 296 295 294 292 292 291 290 290 290 290 289 287 287 283 283 283 284 283 283
290 292 291 291 290 291 291 288 287 284 283 279 283 284 285 285 290 290 295 295 297 295 294 294 295 295 293 291 292 290 290 290 290 289 289 288 287 284 283 284 284 283 283 282
287 289 292 292 288 289 289 287 279 276 275 278 285 282 288 290 291 293 295 296 297 294 293 292 291 292 291 290 290 290 289 289 290 289 289 288 287 286 285 284 284 283 282 281
283 283 288 291 291 288 287 288 281 274 275 281 281 279 285 293 296 293 294 295 292 293 293 292 293 292 291 291 289 290 289 289 289 289 288 288 287 286 286 284 284 283 283 282
283 284 288 288 289 292 286 283 289 283 277 275 284 285 289 290 291 291 292 291 291 292 291 292 291 290 290 289 289 289 289 289 288 289 289 288 287 287 286 284 283 283 282 281
289 284 287 285 287 287 286 287 282 283 276 272 281 279 285 286 291 293 290 289 290 291 291 292 292 291 291 290 290 289 290 289 288 288 288 288 286 286 286 283 282 281 280 279
288 287 285 284 283 284 282 282 283 284 282 279 278 282 287 288 290 291 291 290 290 291 292 292 292 291 291 290 289 289 288 288 288 287 287 287 286 285 283 283 282 281 280 278
290 287 282 285 287 287 287 287 288 283 281 279 281 283 291 292 291 291 289 291 292 292 293 293 292 290 290 290 290 289 289 288 288 287 286 286 284 282 282 282 280 279 279 278
291 285 280 281 285 282 283 284 287 287 284 282 279 282 292 294 291 291 290 290 292 292 293 292 291 290 291 291 290 289 289 288 287 287 284 284 282 281 281 280 278 278 277 277
296 286 284 282 285 286 284 286 286 285 281 282 283 285 290 293 294 295 296 293 293 293 292 292 291 290 290 290 290 289 289 288 286 285 284 283 282 282 280 278 278 277 277 276
292 283 285 287 289 288 288 287 287 285 286 281 283 284 288 291 292 294 296 295 294 293 292 292 292 291 291 290 288 288 288 286 285 284 284 283 282 281 278 277 277 276 276 275
290 284 286 284 286 286 285 287 287 287 286 286 287 286 293 294 295 294 295 295 294 295 295 295 293 291 289 287 289 286 286 284 284 284 283 282 279 278 277 277 276 275 275 274
288 284 284 280 285 285 280 285 286 287 289 288 283 288 292 292 293 294 295 295 295 295 295 293 293 292 290 289 286 285 285 283 283 283 282 279 278 277 276 276 275 274 274 274
286 284 284 281 283 275 284 290 290 288 289 290 289 291 293 294 295 296 296 295 295 296 293 293 291 291 289 287 286 283 281 281 282 280 279 277 276 276 275 274 274 274 274 273
290 287 282 279 279 283 285 286 286 284 285 291 290 291 293 294 294 294 296 295 296 297 297 296 293 290 289 287 284 281 279 280 279 278 277 275 275 274 274 273 273 273 273 273
289 290 284 282 278 276 285 290 293 292 282 284 286 284 284 287 285 289 291 292 291 291 291 289 288 287 286 283 280 279 277 278 278 278 277 275 275 274 273 273 273 273 273 273
279 282 280 280 279 283 283 285 287 280 276 283 286 285 285 283 286 289 290 290 291 287 284 284 282 283 283 279 278 277 276 277 278 276 275 274 274 274 274 273 273 272 272 272
272 272 273 275 277 276 282 283 275 278 282 283 284 284 284 286 287 288 289 288 288 289 288 283 281 280 279 278 277 276 276 276 274 274 273 273 273 273 272 272 272 272 271 269
271 276 270 271 273 279 284 279 281 283 284 285 284 285 284 283 283 285 286 287 288 289 289 286 280 279 277 276 276 275 275 275 273 272 272 271 271 271 271 270 270 269 269 268
272 275 272 271 275 275 277 280 282 282 281 283 283 282 281 280 281 282 283 284 285 287 287 286 279 279 278 276 277 278 275 275 273 272 270 269 270 269 270 271 270 269 268 268
273 274 270 271 274 276 278 279 279 278 280 279 278 277 278 279 279 280 281 282 283 285 286 284 285 284 283 279 277 276 275 273 272 270 270 269 269 269 268 269 269 268 270 270
275 273 270 269 276 274 274 277 277 273 272 272 273 274 275 274 274 276 276 278 280 281 283 284 282 281 282 277 277 276 275 273 272 270 269 269 269 268 268 268 268 273 272 275

GFSCGP_sfc_thetae_036.txt.gz
Theta_e
293 288 286 290 291 292 286 285 285 289 292 290 290 291 294 297 294 293 296 297 295 295 300 299 297 298 297 296 294 293 292 292 293 291 290 290 290 288 286 286 287 286 286 286
289 286 292 292 291 290 289 287 287 291 293 289 290 291 294 294 297 297 296 297 298 299 300 299 295 295 296 296 295 293 292 292 293 293 293 290 290 286 288 287 286 286 286 285
289 291 294 292 289 289 288 287 288 287 289 288 287 288 288 291 295 298 299 298 299 299 299 300 294 294 295 295 294 293 292 291 293 293 291 286 286 284 284 284 285 285 286 285
288 293 292 290 289 290 287 291 291 289 284 282 287 282 284 289 291 293 296 297 297 298 300 301 293 292 294 296 294 293 292 291 292 291 290 288 288 287 287 287 285 283 285 284
288 288 288 288 290 291 290 290 288 285 283 282 283 280 285 289 288 292 295 296 297 298 299 297 293 295 295 295 293 292 292 291 292 290 290 289 288 287 284 283 283 284 283 283
290 290 290 290 290 290 289 287 286 283 281 277 285 282 286 285 289 291 294 296 297 298 299 292 294 293 291 290 291 291 290 289 290 289 289 289 288 283 283 283 284 284 283 283
285 287 290 292 288 288 288 284 278 275 275 278 283 281 287 288 290 291 294 296 297 298 297 293 292 291 289 289 289 289 289 288 288 288 288 288 288 285 286 285 285 284 283 282
281 283 287 290 290 287 285 287 279 272 276 281 281 278 287 291 294 295 294 296 296 294 292 293 292 291 290 290 289 290 289 289 288 288 289 289 288 287 287 286 286 285 284 284
282 283 287 288 288 290 284 282 289 281 272 273 280 285 291 291 290 290 291 292 292 290 291 292 291 291 290 289 289 289 288 289 289 288 289 288 288 287 287 285 285 285 284 283
287 283 286 285 286 286 286 288 281 280 273 272 278 279 284 288 289 292 292 290 292 291 290 291 291 291 289 289 288 288 288 289 288 288 288 288 288 287 287 284 283 283 283 281
289 287 286 283 283 284 282 283 283 283 282 279 278 282 293 292 289 288 290 290 290 289 290 291 292 292 290 289 288 288 287 287 287 288 288 288 287 286 286 284 283 282 281 280
290 288 283 286 291 287 286 285 286 282 281 281 283 283 295 293 290 289 289 290 290 290 292 292 292 292 290 290 288 289 288 287 288 288 287 287 285 284 284 283 282 281 281 280
290 285 281 281 285 289 285 287 287 287 286 282 279 282 295 295 295 291 289 292 292 292 292 293 292 291 291 291 290 289 289 289 288 286 285 285 283 283 284 283 282 281 281 279
295 288 285 280 284 286 283 285 288 286 281 282 283 284 289 292 292 294 295 297 297 297 296 293 293 293 293 292 291 288 289 289 288 286 285 284 284 284 284 283 280 280 280 278
292 285 287 288 288 288 287 287 288 284 284 281 284 284 288 291 292 294 294 293 291 292 293 293 293 293 292 292 290 290 290 288 286 285 284 284 284 284 283 281 279 279 279 278
288 284 286 284 287 286 284 287 287 288 288 288 288 287 294 296 297 296 296 296 296 296 297 297 293 292 289 289 290 287 288 287 285 285 285 285 283 281 280 279 279 278 277 276
284 282 281 278 284 284 280 285 286 287 289 288 284 289 293 292 293 294 295 292 290 289 290 291 292 292 291 291 289 289 289 285 284 284 283 281 281 280 278 278 277 276 276 275
282 280 280 277 279 272 283 290 290 287 289 286 284 283 284 283 285 288 289 288 288 289 289 289 289 290 292 291 288 287 284 282 283 282 281 279 279 278 277 276 276 275 275 274
283 281 278 275 275 280 284 282 281 281 279 278 278 279 282 283 284 287 286 288 288 288 289 289 288 286 287 288 289 285 281 281 281 280 280 278 278 276 275 275 275 274 274 274
282 284 280 278 275 274 273 279 280 283 276 277 279 279 280 281 275 278 285 287 287 288 289 288 287 286 284 282 280 281 279 279 279 280 279 277 277 276 275 276 274 275 275 274
264 265 267 271 269 273 275 279 279 275 270 279 281 281 281 278 281 283 284 283 285 286 286 288 288 286 284 280 278 278 277 277 277 276 275 275 275 276 276 275 274 274 273 273
267 268 268 267 262 264 277 277 270 274 279 281 281 280 279 280 280 280 281 281 282 283 284 286 286 286 284 280 278 277 277 277 274 274 273 273 274 275 274 273 272 273 272 272
266 271 268 268 268 276 278 277 279 280 280 278 277 278 279 278 277 278 278 280 281 282 283 284 284 285 285 279 277 278 279 276 273 271 271 273 273 274 274 273 271 272 271 271
271 274 268 267 273 274 276 278 280 280 277 278 279 277 276 274 276 277 277 277 277 278 279 281 282 283 284 285 279 279 278 276 276 275 273 272 271 272 273 273 272 271 271 271
271 273 269 270 274 275 276 277 277 276 277 275 274 274 273 274 273 273 273 274 275 276 277 278 279 279 280 283 283 280 277 276 275 275 273 272 273 272 272 272 272 272 272 272
275 273 270 269 275 275 276 278 275 272 271 271 270 271 272 272 271 271 271 272 273 273 273 272 272 273 274 277 280 283 278 276 276 273 272 272 271 271 271 271 271 276 275 276

GFSCGP_sfc_thetae_042.txt.gz
Theta_e
290 286 285 289 288 286 283 282 281 285 290 286 288 288 291 293 294 294 295 296 297 298 301 301 298 295 295 294 294 294 292 293 294 293 291 291 291 291 290 290 290 289 289 287
287 284 289 289 288 287 286 284 284 288 290 286 287 288 292 293 293 295 295 296 297 298 299 298 298 293 293 295 294 294 293 293 293 294 294 294 293 292 292 290 288 288 287 287
286 288 291 289 286 286 284 283 285 284 286 286 284 285 286 289 292 295 296 297 297 297 297 298 297 294 292 293 293 294 294 293 293 294 293 286 286 284 284 285 286 286 287 286
286 289 289 286 286 287 283 287 287 285 282 279 285 280 282 289 289 290 293 294 295 295 295 295 295 292 291 293 294 294 294 293 293 293 292 291 291 289 289 289 289 287 287 286
286 286 286 285 287 288 286 287 285 283 281 280 279 278 282 285 285 289 291 292 294 293 293 295 295 294 294 293 293 294 293 293 292 292 292 291 291 292 287 287 287 287 286 285
288 288 288 288 288 289 287 285 284 281 280 276 281 280 286 283 285 286 289 291 293 293 292 292 292 292 292 292 291 291 290 291 291 291 292 291 291 288 286 286 286 285 285 284
283 286 288 288 285 285 286 282 277 275 274 277 280 280 287 287 289 290 292 292 293 292 292 291 291 291 292 290 289 288 289 289 290 290 291 290 291 287 288 286 287 285 284 284
281 284 286 287 288 286 283 284 279 273 276 281 279 277 287 290 290 290 291 291 290 290 290 289 289 289 289 289 288 287 287 286 288 289 289 290 290 288 289 287 287 286 286 287
281 281 285 286 286 287 282 281 286 281 280 276 282 283 289 294 294 292 289 288 290 289 289 289 291 290 289 288 288 287 286 286 287 288 289 288 289 288 288 286 286 286 286 286
287 283 285 285 284 285 285 286 279 278 273 274 278 282 283 288 290 292 289 290 290 290 291 290 289 291 290 289 287 286 286 286 286 287 288 288 288 288 288 286 285 285 285 284
287 287 287 285 282 285 282 281 281 282 282 277 276 280 290 291 292 291 290 289 290 291 291 292 291 291 290 288 286 286 285 285 285 286 287 287 287 287 286 285 285 285 285 284
291 288 284 285 291 287 286 286 286 281 280 282 281 281 293 293 294 294 294 294 291 292 290 290 290 290 291 291 291 287 286 285 285 286 286 287 286 285 285 286 286 286 285 284
292 285 281 282 284 285 283 286 286 287 286 281 278 280 292 292 292 293 293 291 289 288 288 288 288 288 288 288 289 290 290 287 286 285 284 284 283 284 286 286 285 285 284 284
293 286 284 279 283 285 283 285 285 283 278 280 281 283 287 290 285 285 285 288 286 285 286 286 287 288 288 287 287 288 289 290 290 286 284 284 284 284 286 286 284 284 284 283
287 281 284 283 281 281 281 280 280 278 279 276 279 280 284 281 280 281 284 284 284 284 284 284 284 286 287 286 288 288 288 287 287 287 286 285 286 286 285 284 284 283 283 283
282 274 277 274 278 278 275 276 276 277 278 278 281 281 280 280 281 280 282 281 280 281 282 283 283 284 284 284 286 286 287 285 284 285 285 287 285 284 284 284 283 282 282 282
276 273 265 269 275 272 267 273 275 276 277 275 274 274 278 278 278 278 281 281 280 280 281 281 282 283 283 283 285 286 285 284 284 283 284 285 285 283 283 283 282 282 281 281
272 265 263 263 262 257 272 278 277 274 274 276 275 276 278 279 279 280 282 282 279 280 281 282 282 283 284 285 285 285 284 284 283 283 282 281 282 283 281 281 281 281 281 280
278 274 263 263 262 270 276 274 271 270 269 273 275 277 279 280 278 276 279 280 280 281 282 281 281 282 282 283 283 283 283 283 282 282 281 280 281 281 279 280 279 280 280 279
274 277 273 263 262 257 266 271 277 274 263 271 272 273 274 277 269 273 279 280 280 281 281 280 281 282 281 280 280 280 281 281 281 281 279 278 277 279 278 279 278 279 279 279
258 256 257 253 253 261 272 275 275 260 264 273 274 273 275 271 272 276 278 279 279 278 279 280 279 278 279 279 279 278 279 279 280 279 279 278 276 275 276 275 275 276 277 276
263 257 255 253 251 256 275 273 268 272 276 276 275 276 277 276 277 277 277 276 275 276 277 277 276 276 277 278 277 276 275 277 276 278 279 278 275 275 276 277 273 273 275 275
265 268 262 264 264 273 275 274 278 277 276 276 276 278 276 276 275 276 274 274 274 275 275 276 274 274 275 275 275 273 274 275 275 274 275 277 278 275 276 276 275 273 272 272
271 274 270 270 273 274 277 278 278 278 277 278 278 276 275 274 274 273 273 274 274 273 273 274 273 272 272 272 273 272 272 272 270 269 269 271 275 277 276 276 275 275 273 273
273 273 269 271 274 275 276 277 278 278 277 276 275 274 272 271 271 272 272 272 271 272 272 272 271 270 270 270 269 269 268 267 266 266 267 269 271 276 276 275 275 275 276 276
276 273 271 269 276 275 276 278 275 273 272 271 270 269 271 271 270 270 269 270 270 269 269 269 269 268 267 266 266 265 264 263 263 263 265 266 268 270 275 275 274 279 280 280

GFSCGP_sfc_thetae_045.txt.gz
Theta_e
291 287 285 289 288 287 284 283 282 285 290 286 289 289 290 293 293 293 295 296 297 297 300 300 300 300 298 297 297 296 295 298 299 300 299 297 296 297 296 297 296 294 295 293
287 284 290 289 288 287 286 284 284 287 289 286 287 288 292 293 293 295 295 295 296 297 297 298 298 298 297 298 296 296 295 296 297 299 299 300 298 297 297 295 294 294 294 293
286 289 290 289 287 286 284 283 285 284 286 286 284 286 287 291 292 294 294 296 296 296 296 298 297 297 297 296 296 296 296 295 296 297 298 291 293 291 292 292 292 291 292 292
286 289 288 286 286 286 283 287 287 285 283 280 286 280 285 289 290 291 294 294 294 295 295 295 295 295 296 297 297 296 296 295 295 296 295 294 295 292 293 295 293 291 291 291
286 286 285 286 287 288 286 287 285 284 282 280 280 279 284 286 287 290 291 293 294 295 294 294 294 294 295 295 296 295 295 294 295 295 296 294 294 295 292 294 292 291 290 291
287 288 288 288 287 288 288 285 283 281 280 277 281 281 287 284 287 288 291 293 294 296 293 293 293 293 293 293 294 294 293 293 294 293 294 294 294 294 290 290 290 289 289 289
284 285 288 288 285 285 286 283 278 276 275 279 281 280 287 288 289 292 293 292 294 293 292 292 292 293 294 294 292 292 291 291 292 292 293 293 293 294 291 290 290 289 289 288
281 284 285 288 288 287 284 285 281 275 277 281 280 278 287 291 290 291 291 291 291 292 291 291 292 292 292 292 291 290 290 289 289 290 291 292 292 293 291 290 291 290 289 289
282 282 284 286 286 288 282 281 286 282 279 277 283 284 290 292 291 290 290 290 292 292 291 291 292 291 291 291 291 289 288 289 289 289 290 290 291 292 290 290 291 290 290 290
287 283 286 285 285 284 285 285 280 278 275 274 280 281 283 288 288 290 289 290 290 289 289 289 289 289 290 290 290 291 290 288 288 288 288 289 289 289 290 288 288 288 289 289
288 286 286 286 284 285 285 281 282 282 281 277 276 280 290 289 290 288 286 287 287 287 287 288 288 289 289 289 289 290 290 289 289 288 288 288 288 288 288 286 287 287 288 287
291 289 283 283 288 288 286 285 285 281 279 281 281 281 292 291 291 290 287 287 286 286 286 287 287 288 289 288 288 288 288 289 289 289 288 287 287 286 286 286 286 286 286 286
291 285 280 280 282 284 284 286 287 286 284 279 277 280 289 288 289 288 283 284 284 284 284 285 285 284 287 286 286 287 287 288 287 287 288 287 286 285 285 286 286 286 286 286
293 285 283 279 283 285 283 283 282 281 276 278 278 279 283 285 282 281 284 283 282 281 281 282 283 283 285 285 284 286 286 287 286 286 286 286 286 286 286 287 286 285 286 285
286 281 283 284 280 280 278 278 278 276 277 274 276 276 279 278 279 279 283 282 282 282 280 281 282 283 284 284 285 286 286 286 285 285 285 285 285 286 286 286 286 285 285 285
282 275 276 273 278 278 276 277 276 276 276 275 275 274 278 280 280 278 279 280 281 281 280 281 282 282 282 283 284 284 284 284 284 284 284 284 283 283 284 285 284 284 284 285
278 275 270 270 275 273 266 271 275 275 274 274 272 273 276 277 278 278 278 279 281 279 279 280 281 281 281 282 282 282 282 283 283 283 283 283 282 282 282 283 284 283 283 283
275 265 263 258 259 257 272 275 276 275 274 275 274 274 277 278 280 279 280 279 278 278 279 280 281 280 281 281 281 280 280 281 282 282 283 281 280 280 281 281 281 282 282 282
277 274 262 258 255 266 273 272 270 269 268 272 271 273 274 277 279 277 280 279 278 279 280 280 280 280 280 280 280 279 279 279 280 279 279 278 279 279 279 280 280 281 281 282
275 276 270 256 258 255 266 271 275 272 263 270 271 271 271 275 271 273 277 278 278 278 279 278 278 280 280 279 279 278 277 277 277 277 277 277 278 279 278 279 279 280 280 281
258 255 263 254 257 261 271 274 275 261 264 272 274 273 271 272 274 278 278 277 277 277 277 277 277 277 277 277 276 276 276 275 276 275 275 276 275 276 278 279 279 278 278 279
263 257 253 250 250 256 273 273 268 272 277 277 275 275 275 276 277 279 278 277 277 276 276 276 276 275 276 276 275 274 273 275 274 273 273 271 271 272 274 277 278 278 277 277
264 268 262 263 263 272 274 274 278 278 277 277 277 277 276 276 277 276 276 276 275 275 275 276 274 274 274 275 274 272 273 272 271 268 267 268 268 270 271 272 276 277 276 275
270 273 269 269 273 274 276 278 279 278 278 278 277 276 275 274 274 273 273 273 273 274 273 273 272 272 271 273 273 271 271 270 264 264 265 265 266 267 268 271 275 276 276 275
272 272 268 270 274 275 276 277 278 277 276 274 272 272 271 271 271 271 271 271 270 270 270 270 270 269 269 270 270 269 267 264 263 263 263 263 264 265 266 269 270 274 277 277
274 273 270 269 275 275 276 276 273 271 270 269 269 269 270 269 268 268 267 267 267 267 267 266 266 265 265 265 264 264 263 262 261 260 261 261 262 263 264 265 267 273 278 281

GFSCGP_sfc_thetae_048.txt.gz
Theta_e
297 295 292 296 297 297 294 292 292 295 298 295 294 295 296 299 299 299 300 302 303 303 306 306 307 308 308 307 307 306 306 307 308 309 310 311 310 310 310 311 308 307 305 304
294 291 297 296 294 293 293 291 291 295 296 292 294 293 297 299 299 300 300 301 302 304 305 305 305 306 307 307 307 306 305 305 306 307 309 309 309 309 308 309 307 306 304 303
295 297 296 293 293 291 292 290 292 292 293 295 292 294 295 299 299 300 300 301 302 303 303 303 303 305 306 306 307 306 305 304 304 305 306 306 307 305 305 306 305 304 303 301
294 296 293 291 291 293 289 295 292 290 289 288 292 286 294 297 298 299 300 300 301 303 303 303 304 304 303 303 304 304 304 304 303 303 303 303 301 301 302 303 303 303 302 301
293 291 290 290 292 293 292 293 290 289 289 287 290 286 294 295 295 297 299 301 302 304 302 301 301 301 302 302 302 302 301 302 302 301 302 302 301 302 303 302 301 301 300 300
293 294 293 294 292 293 293 291 290 289 288 284 291 289 291 293 294 295 300 301 303 300 300 300 299 299 299 300 299 299 298 299 300 300 300 300 300 300 301 301 299 299 299 297
292 291 294 293 291 292 292 290 285 285 285 285 290 286 290 297 299 297 297 298 297 297 296 295 294 295 295 295 296 296 296 296 296 297 298 299 299 300 299 300 298 298 297 296
289 288 291 294 294 293 290 291 286 279 281 285 291 284 291 298 298 297 296 294 295 295 295 294 293 293 293 293 294 295 295 294 295 295 295 296 297 297 298 298 298 297 297 297
289 289 292 291 293 294 289 287 292 286 287 284 286 290 296 299 294 293 294 295 294 293 293 293 294 293 292 292 292 293 293 293 293 293 294 293 294 295 295 296 296 295 295 295
291 286 294 291 291 292 290 292 286 285 278 278 283 286 287 293 293 291 291 291 291 291 291 291 291 291 292 291 291 292 292 291 291 291 292 293 293 293 294 296 295 294 295 295
293 291 290 293 291 290 290 286 286 286 285 280 279 284 294 292 291 289 289 289 289 289 288 288 289 289 291 291 290 291 290 291 290 290 290 291 292 291 292 292 293 294 294 294
295 291 285 288 294 295 293 290 290 283 282 285 283 283 296 295 291 287 287 287 287 286 286 287 287 288 288 289 289 289 290 289 289 289 289 290 291 291 290 290 291 293 293 293
293 287 282 285 289 289 287 290 289 289 286 282 279 282 294 292 290 286 286 285 285 286 285 284 285 285 286 287 288 288 288 288 288 288 288 289 289 289 289 289 290 291 291 291
291 285 284 280 284 286 283 287 286 283 278 279 280 282 286 287 284 284 283 284 283 285 283 283 284 284 285 286 286 287 286 287 286 287 287 287 287 287 287 288 289 289 290 290
286 281 283 283 282 281 281 280 280 279 280 275 279 279 283 282 281 282 283 282 281 283 283 282 283 284 284 284 285 285 285 285 285 285 286 286 285 285 285 286 287 288 288 288
283 278 278 275 280 280 278 279 279 279 279 279 279 278 280 281 282 281 281 280 280 282 282 282 282 283 283 283 283 284 284 284 284 284 284 285 283 282 283 284 285 285 286 286
279 278 276 272 277 274 271 276 278 279 280 278 274 278 278 277 278 279 280 281 280 282 281 281 282 282 283 283 283 283 283 283 282 282 284 284 281 281 282 282 282 283 283 285
277 274 275 270 269 264 276 279 279 278 278 279 278 277 278 277 279 280 282 282 282 282 282 282 283 283 283 284 283 283 283 282 281 281 282 281 279 279 280 280 280 281 283 283
280 276 271 268 268 272 274 277 275 273 274 279 277 277 278 279 279 279 282 283 283 283 283 283 284 283 283 282 283 282 281 281 280 279 280 279 278 278 277 276 278 280 281 282
277 278 273 264 265 264 272 276 278 276 269 277 277 277 277 277 272 276 282 282 282 284 284 283 283 282 281 282 282 280 279 279 278 279 279 278 277 276 274 275 276 278 280 280
270 270 269 270 268 270 276 277 278 267 271 278 279 279 278 277 279 281 283 282 283 283 282 282 282 280 280 280 280 278 278 277 278 278 277 276 276 273 273 273 274 275 277 279
270 267 267 263 263 263 277 276 271 277 280 280 280 280 279 280 280 280 281 281 281 280 280 280 278 278 279 279 278 276 276 277 277 277 275 274 272 271 271 270 271 273 274 275
269 273 271 270 271 278 279 278 281 281 280 280 280 281 279 278 278 278 277 277 277 276 277 277 276 275 276 276 275 273 275 275 275 273 269 269 269 269 269 269 269 270 272 274
275 278 272 273 276 277 279 281 282 282 281 281 279 276 275 274 274 274 274 274 273 272 272 272 271 270 270 272 272 272 272 271 266 265 266 267 266 267 267 268 269 269 271 273
276 275 273 274 276 278 279 280 281 280 277 275 274 273 272 272 271 270 269 269 269 268 268 268 267 266 266 266 266 266 266 265 263 263 263 264 264 264 265 266 267 268 270 271
278 275 273 272 278 278 278 281 275 274 272 271 271 270 270 269 267 267 266 266 266 265 264 263 263 262 262 261 261 261 261 261 260 260 260 261 262 262 263 263 264 268 270 272

GFSCGP_sfc_thetae_051.txt.gz
Theta_e
301 296 294 297 298 297 297 295 294 298 301 299 297 297 299 302 303 302 303 304 305 305 308 308 308 309 309 310 309 309 308 310 311 312 313 315 315 317 317 318 318 316 314 312
296 293 299 301 299 296 296 294 294 298 300 296 296 295 299 301 302 303 303 303 304 305 305 306 307 308 307 306 307 307 307 308 308 310 312 313 314 315 316 316 315 315 313 311
295 299 300 297 297 295 295 294 294 293 296 297 296 294 299 302 304 303 303 303 303 304 303 302 303 303 304 303 304 304 305 306 307 308 308 310 311 311 309 311 311 312 311 310
297 299 296 295 294 296 291 297 295 294 291 289 296 287 295 300 301 302 302 303 303 302 301 300 300 300 300 301 303 302 304 303 305 306 305 305 305 304 306 307 308 309 309 308
296 294 293 293 294 296 293 294 293 293 291 291 292 288 294 299 297 298 300 298 299 299 298 298 298 298 298 300 300 301 300 301 301 304 303 303 303 305 306 306 306 306 306 306
295 296 295 296 296 295 295 293 294 294 292 286 293 291 292 294 296 297 297 297 297 297 297 297 297 297 296 297 298 299 298 298 300 299 299 299 300 301 302 303 303 304 304 304
296 294 296 296 292 294 292 291 286 286 286 285 295 291 293 298 300 297 296 295 296 297 296 296 295 295 294 294 295 295 296 294 295 297 297 297 297 298 299 300 300 302 301 301
289 288 293 296 294 294 293 293 287 280 283 287 292 286 291 299 298 297 297 297 296 295 296 295 295 295 295 293 294 294 293 293 293 293 295 296 296 296 296 298 298 299 299 301
290 290 294 295 296 295 293 288 293 286 287 284 287 291 296 300 296 296 295 295 294 293 293 292 293 293 294 293 293 293 293 293 293 292 293 294 295 294 294 295 296 297 298 297
294 287 296 295 294 295 291 292 286 287 278 278 284 287 288 293 293 293 292 291 291 291 291 291 291 291 291 292 292 292 293 292 292 292 292 292 293 293 294 293 293 294 295 296
294 291 290 294 291 290 290 289 289 288 286 280 279 284 294 293 292 290 289 290 289 289 289 289 288 289 290 290 290 290 290 290 290 290 290 291 291 291 292 292 292 292 292 293
296 291 286 288 294 295 293 290 290 283 282 285 283 283 296 295 290 289 288 289 288 288 288 286 286 287 287 287 288 288 289 288 288 288 288 289 290 289 288 288 290 291 291 292
293 288 281 284 288 292 289 290 289 288 287 282 280 283 294 294 292 288 286 287 287 286 287 285 285 285 286 286 286 286 287 287 287 287 287 287 288 287 286 286 287 288 290 290
292 286 284 280 284 286 283 285 286 285 280 281 281 283 287 289 287 286 285 285 284 284 286 286 284 284 285 285 285 286 286 287 287 286 286 286 286 285 284 285 285 285 287 288
288 281 284 285 285 283 281 281 282 280 282 277 280 281 284 286 283 284 285 284 283 282 283 284 283 283 284 285 285 285 286 286 286 285 285 285 286 286 283 283 283 284 284 285
284 280 281 277 281 281 279 281 281 281 280 280 281 280 287 283 282 282 281 281 281 282 283 284 284 284 284 284 284 285 285 285 286 284 283 284 284 284 282 282 282 282 282 283
281 280 277 274 279 277 272 276 278 279 282 281 276 279 280 279 279 279 280 281 281 282 283 283 284 284 285 285 285 284 285 285 284 283 283 283 283 282 281 281 280 280 280 281
279 277 277 272 272 265 276 280 280 278 279 281 280 281 280 278 280 281 282 281 282 282 283 283 285 285 285 286 285 285 284 284 283 282 282 282 282 281 280 279 278 278 278 278
281 278 273 269 270 273 275 278 277 275 275 280 279 280 280 280 280 279 283 283 283 283 284 285 286 286 286 284 284 283 282 282 281 280 280 281 280 279 278 276 276 276 275 276
278 279 275 271 266 264 274 277 279 278 270 279 280 279 279 279 273 277 283 283 283 285 285 285 285 284 283 283 282 280 279 279 279 279 279 280 280 278 276 276 275 274 274 275
272 273 271 271 269 272 279 278 279 268 271 279 280 280 279 278 280 282 283 283 284 283 283 283 282 280 280 280 279 277 277 277 278 278 278 278 278 277 276 275 274 273 272 272
271 269 269 270 267 265 280 278 272 278 280 280 281 280 280 280 281 281 281 281 280 280 279 279 277 276 276 276 274 273 273 275 275 274 273 272 272 274 274 271 271 270 270 269
269 274 272 273 272 280 281 281 282 283 281 281 281 282 281 279 278 279 278 277 277 276 275 274 273 272 272 272 271 269 269 270 269 267 266 266 267 267 268 268 268 268 268 267
276 279 274 274 277 278 280 282 283 283 282 283 282 279 277 275 276 274 274 273 272 272 271 271 269 268 267 268 267 266 266 265 262 261 261 262 262 263 263 265 265 265 265 266
278 278 276 275 278 279 280 281 282 282 282 278 277 275 274 274 272 271 270 270 269 269 268 268 266 265 264 265 264 263 263 262 260 260 260 260 260 260 261 262 263 264 265 266
279 277 274 273 279 278 279 282 281 279 278 276 273 273 272 270 269 269 267 268 267 266 265 264 264 263 262 262 261 261 261 260 259 258 259 259 259 259 260 260 260 265 267 268

GFSCGP_sfc_thetae_054.txt.gz
Theta_e
298 292 289 293 294 294 292 291 290 294 298 295 294 294 295 299 299 298 298 298 297 300 302 302 302 302 301 302 301 302 302 303 305 306 306 307 308 310 311 312 313 311 310 309
293 289 296 298 298 295 293 290 290 294 297 294 292 292 296 298 298 297 296 296 298 297 299 299 299 299 299 298 299 300 300 302 302 303 306 306 307 308 309 310 310 311 309 307
292 296 299 297 294 293 292 290 291 291 293 293 290 289 293 298 298 298 298 298 297 296 296 296 296 296 297 296 297 298 298 298 300 301 302 302 303 302 302 302 304 307 308 306
296 298 295 294 293 294 289 294 292 291 287 284 291 281 290 295 295 295 296 294 294 294 295 295 294 293 294 295 296 297 297 297 298 298 298 297 297 297 299 300 301 303 305 305
294 292 291 291 292 294 291 292 290 289 286 285 287 282 288 293 291 291 292 293 293 293 293 292 293 293 293 294 293 294 294 294 296 295 295 295 294 296 296 297 297 299 300 302
293 293 292 293 294 293 293 290 290 289 286 280 287 286 286 288 290 290 292 292 293 293 293 293 293 293 291 292 292 292 292 292 292 293 294 292 291 292 292 293 294 295 297 297
292 292 293 294 289 291 289 286 281 280 278 279 289 284 288 293 295 292 292 292 293 293 292 291 291 291 290 290 290 291 291 290 291 291 292 292 292 291 291 291 292 292 292 294
286 284 291 293 291 290 289 289 282 275 277 281 286 281 288 293 294 294 293 292 291 290 289 288 289 289 290 290 289 290 290 289 289 289 290 291 292 291 291 291 291 291 292 292
286 286 293 293 293 293 289 286 291 283 277 276 282 287 292 294 292 292 291 290 288 287 287 287 287 287 287 287 287 288 288 288 288 288 289 289 289 289 290 289 290 290 291 292
291 285 293 291 292 291 290 291 283 283 275 270 279 279 283 289 288 289 288 287 287 287 286 285 285 285 285 286 286 286 287 286 286 286 286 287 288 288 287 288 288 288 289 289
292 289 287 291 288 288 287 285 286 287 284 278 276 279 289 287 287 285 286 287 286 285 285 283 284 284 285 284 284 284 285 285 285 284 284 285 285 285 284 284 284 285 286 288
294 290 281 285 291 292 290 287 287 282 280 282 281 281 292 288 287 287 286 286 285 285 285 283 283 283 283 283 284 283 283 284 284 284 283 284 285 284 282 282 282 283 283 285
291 284 275 276 282 289 286 287 288 286 284 279 277 280 292 289 286 287 285 284 284 281 282 284 282 282 283 283 283 283 283 283 284 283 282 282 282 282 282 281 281 282 281 282
293 285 279 275 279 285 281 283 284 283 277 277 278 280 286 287 286 284 283 283 282 281 281 282 282 281 282 283 283 283 283 283 283 283 282 282 281 282 283 281 280 280 280 280
288 279 283 284 284 282 280 280 280 278 279 274 277 278 282 284 284 280 280 280 280 280 281 281 281 281 281 281 281 282 282 283 283 282 282 282 281 281 282 280 279 280 279 280
283 273 277 269 279 279 277 279 279 279 280 279 279 278 283 279 279 277 278 278 279 279 280 281 281 281 281 281 281 282 282 282 282 281 281 282 282 281 281 281 279 279 279 278
279 274 268 265 276 273 267 274 276 278 279 278 274 275 277 277 277 276 276 278 278 279 280 280 280 281 281 281 282 281 281 281 280 281 282 282 282 281 281 281 280 279 278 277
275 270 270 263 264 257 273 278 276 275 276 276 276 275 276 276 277 277 279 278 278 280 280 280 281 281 282 282 281 280 280 279 280 280 280 281 280 280 280 280 279 279 278 276
279 276 265 260 259 269 273 274 273 273 270 274 275 276 277 277 277 276 280 280 279 280 281 281 281 281 281 280 279 278 278 278 278 277 278 278 278 277 278 278 278 278 277 276
276 277 271 261 259 256 268 273 276 275 264 272 272 272 273 276 270 274 279 280 280 280 280 279 278 278 277 277 277 275 274 273 273 273 274 274 274 272 271 273 274 276 276 275
264 264 268 268 266 266 275 276 277 263 267 276 276 274 274 273 275 278 279 279 279 278 278 278 276 275 275 274 273 271 271 270 271 270 269 269 269 267 267 268 269 269 270 271
266 262 261 262 260 263 277 274 270 275 277 278 277 277 277 277 278 278 277 276 276 275 275 274 273 272 272 272 270 268 267 269 268 266 265 263 262 263 263 263 263 264 266 266
265 270 266 268 267 276 277 275 279 279 278 278 277 278 278 277 276 275 274 274 273 273 273 272 270 269 269 269 268 265 266 266 264 262 261 260 260 261 261 260 260 260 261 262
273 275 270 269 274 276 278 279 279 279 279 279 279 277 275 274 274 274 273 273 271 271 270 269 267 266 265 266 266 264 264 264 261 259 259 260 259 259 259 260 261 260 260 260
274 275 271 271 276 277 278 279 280 280 281 278 276 275 274 273 272 271 270 269 269 268 268 266 265 264 264 264 263 262 262 260 259 259 259 259 259 259 259 260 259 260 261 262
277 275 272 271 277 276 277 279 280 277 278 277 274 273 273 271 269 269 267 267 266 265 265 264 263 262 262 261 261 260 260 259 258 257 258 258 258 259 259 259 259 264 266 267

GFSCGP_sfc_thetae_057.txt.gz
Theta_e
294 288 287 289 290 291 288 287 286 290 295 291 291 291 293 297 296 293 295 295 294 294 296 296 297 297 297 297 296 297 298 299 300 304 304 305 306 308 309 310 311 310 310 310
290 287 293 294 294 292 290 288 287 290 294 292 290 289 294 296 295 293 293 292 293 293 293 293 294 294 295 295 296 296 296 296 298 300 301 303 304 304 305 306 308 309 308 307
289 292 296 295 292 291 289 287 287 288 290 291 288 287 290 293 293 293 293 293 293 292 291 291 292 291 292 292 293 294 295 296 296 296 298 299 299 300 299 300 301 303 307 306
292 296 295 292 291 292 287 292 291 289 285 282 288 279 288 290 289 290 290 290 290 291 291 291 291 290 290 290 291 291 292 293 295 295 294 293 293 292 294 295 297 298 300 303
292 290 289 289 291 293 289 291 288 287 284 283 284 281 285 288 286 287 288 289 290 290 290 290 290 290 291 291 289 289 290 291 292 293 293 292 291 291 292 293 293 294 295 297
291 292 291 291 291 291 292 288 288 285 284 279 284 283 284 285 288 287 289 289 290 290 290 290 290 290 289 289 289 289 289 289 290 290 290 290 290 289 289 290 290 291 292 294
290 289 291 292 287 290 288 285 280 278 277 278 286 282 286 288 290 289 288 288 289 289 288 287 288 288 288 287 288 290 289 288 289 288 289 289 289 288 288 288 288 288 289 290
284 283 289 292 290 289 287 288 282 273 276 279 285 280 286 289 290 290 289 288 287 285 286 285 286 286 286 286 286 287 287 287 287 287 287 288 288 288 288 288 288 288 288 288
284 284 290 291 292 293 288 285 290 283 273 274 280 285 288 290 288 287 286 286 284 284 284 284 284 284 284 284 284 285 285 285 285 285 286 286 287 286 285 285 285 286 286 287
290 284 290 290 291 291 290 290 282 281 271 267 277 278 281 285 285 286 285 284 284 284 283 283 283 283 283 283 283 284 284 284 284 284 283 284 285 285 284 283 282 283 284 284
291 287 285 288 286 286 286 284 285 285 282 275 272 277 286 287 285 284 285 286 284 284 282 282 282 283 284 285 284 284 284 284 284 284 282 282 283 284 283 282 282 282 282 282
291 290 282 285 290 290 288 285 285 279 278 280 281 281 289 286 286 286 285 286 284 285 282 281 281 282 283 283 283 283 283 283 283 284 283 282 282 283 283 282 281 281 280 281
291 285 271 274 283 287 285 286 287 285 283 277 277 279 287 287 286 285 284 284 282 281 281 283 282 281 282 282 283 283 282 281 282 282 281 281 280 280 281 282 281 282 281 280
292 283 277 274 278 283 279 283 283 282 276 275 277 279 284 284 283 281 280 279 279 279 280 279 280 280 280 281 281 281 281 282 282 282 281 281 280 281 281 281 280 280 280 280
287 278 280 280 283 281 280 280 279 277 278 272 276 276 279 280 279 277 277 278 278 278 279 279 279 279 279 279 279 280 281 281 281 281 280 280 281 281 281 281 281 280 280 280
282 274 276 271 279 279 276 278 278 278 278 277 278 277 281 276 276 275 276 276 277 277 278 278 279 279 279 280 280 280 280 280 280 279 279 281 281 282 282 282 282 281 281 280
278 273 268 264 274 271 266 273 276 276 277 276 273 277 275 276 276 276 275 276 277 277 278 278 279 279 279 279 280 279 279 279 278 279 279 280 280 280 280 280 280 280 280 280
275 270 266 261 263 258 272 276 276 275 275 276 275 273 275 276 276 276 276 276 278 278 278 278 278 278 279 279 278 277 277 277 277 276 276 276 276 275 274 273 273 273 274 275
279 276 263 261 254 266 273 274 273 273 270 272 272 275 276 276 275 274 278 279 278 277 279 279 278 278 276 275 275 274 274 273 273 272 272 273 271 269 269 268 268 269 269 269
276 277 270 254 257 256 266 272 275 273 265 268 270 270 272 275 268 272 277 279 278 279 278 276 275 275 274 273 273 271 271 270 269 270 270 269 268 266 265 265 264 264 264 265
263 262 269 266 259 263 273 275 276 263 267 274 275 273 272 272 274 277 278 277 277 277 275 275 273 273 272 272 271 269 268 267 268 268 267 266 265 263 263 262 262 261 261 262
265 261 260 262 261 260 276 274 271 275 277 278 276 276 276 277 278 277 277 275 274 273 273 273 271 270 270 270 268 266 266 267 266 265 264 262 261 261 262 260 260 260 260 259
266 269 265 267 266 274 275 275 278 278 277 277 276 277 277 277 277 276 275 273 273 272 272 271 268 268 268 268 267 264 265 265 264 261 259 259 260 260 260 259 259 259 259 259
271 273 269 269 273 275 277 277 278 278 278 279 278 278 277 276 275 274 274 273 271 270 269 268 266 265 265 265 265 264 264 263 260 258 258 259 259 258 259 260 260 259 259 258
272 273 270 269 275 276 277 277 278 279 279 278 277 277 276 274 272 272 271 270 269 268 267 266 265 264 263 263 262 262 262 260 258 258 258 258 258 258 258 259 259 260 261 262
276 274 271 269 277 275 276 278 279 278 278 278 275 273 274 273 271 269 268 268 266 265 264 263 263 261 261 260 260 260 260 259 258 258 258 257 257 258 258 258 258 264 266 268

GFSCGP_sfc_thetae_060.txt.gz
Theta_e
293 288 286 288 290 289 287 285 284 288 293 289 290 289 292 295 293 290 291 291 290 290 292 293 293 293 293 293 294 295 294 295 297 298 302 303 304 305 306 307 309 311 312 313
289 286 292 293 291 290 289 286 286 289 292 290 289 289 291 290 290 291 291 290 290 290 290 291 291 291 290 290 291 292 294 294 295 296 296 299 300 300 299 299 299 300 304 307
289 292 294 292 290 290 288 286 286 287 289 289 286 286 287 289 290 291 290 290 289 289 288 289 289 289 290 289 289 290 291 293 293 294 295 295 295 295 294 295 295 296 296 298
290 294 293 291 290 291 286 291 290 288 284 281 287 279 285 286 286 287 287 286 287 288 288 289 289 288 288 288 289 290 290 291 292 292 291 290 290 289 290 291 292 293 294 294
291 290 289 290 291 292 289 290 287 286 283 282 282 279 283 286 284 285 286 287 287 287 287 287 287 288 288 288 287 287 288 289 290 290 290 289 288 289 289 290 289 290 291 292
290 291 290 290 290 291 291 287 287 284 282 278 283 282 282 283 285 285 286 287 288 287 287 287 287 287 287 287 287 287 287 287 288 288 288 288 286 286 286 287 287 287 288 289
288 289 290 291 287 288 287 284 279 277 276 278 284 280 283 286 288 287 286 286 286 285 285 285 285 284 285 285 285 287 286 285 285 286 286 287 286 285 285 285 285 285 285 285
284 282 288 290 289 287 285 286 281 272 275 278 282 279 283 287 288 288 287 285 285 284 284 284 284 284 284 284 284 284 284 284 284 284 285 285 286 284 284 283 283 283 283 284
284 283 289 289 290 291 286 283 288 281 269 274 280 281 286 286 284 284 284 284 282 282 282 282 282 283 282 282 283 283 284 284 284 283 284 284 284 285 283 283 282 282 282 283
288 282 288 289 290 288 288 289 282 280 270 268 277 278 280 282 282 283 283 282 283 282 282 281 282 282 282 282 282 282 283 283 283 282 282 283 283 284 284 283 282 281 282 282
290 286 284 287 286 286 285 283 285 285 281 273 270 277 284 285 285 284 284 284 283 282 280 281 281 282 282 282 282 282 282 282 282 282 282 281 281 282 282 282 281 281 281 281
291 287 278 284 287 289 286 285 285 280 277 278 278 279 288 288 286 285 285 286 283 283 281 280 281 281 281 281 281 281 281 281 281 282 281 281 282 281 280 280 281 281 280 281
290 283 272 277 281 285 283 284 284 283 280 272 274 277 286 285 285 286 284 284 283 281 281 280 279 280 280 280 280 280 280 280 281 281 280 280 280 280 280 280 280 281 281 281
292 281 278 279 278 281 278 282 283 280 273 274 276 277 281 284 282 281 279 280 278 278 279 278 279 279 279 279 278 279 279 280 280 280 279 279 279 280 280 281 280 281 281 280
287 277 280 280 282 282 280 280 280 278 278 275 278 278 281 278 279 279 276 277 277 277 277 277 278 278 278 278 278 279 279 279 279 279 278 279 279 280 280 279 280 280 280 281
282 273 275 270 279 279 277 279 279 280 280 277 279 277 281 275 275 274 276 276 277 276 277 279 279 278 279 278 279 279 278 278 278 277 277 278 278 278 277 277 277 276 276 276
279 274 269 265 272 271 267 271 277 277 277 277 273 277 276 274 275 275 275 276 277 277 278 278 278 278 279 278 278 276 276 276 275 275 276 275 275 274 274 273 273 272 271 271
275 270 266 261 262 258 272 274 275 275 274 276 274 273 275 276 275 276 277 277 277 278 278 278 278 277 278 277 276 275 275 274 274 273 273 273 272 271 271 270 269 269 268 267
279 275 265 263 256 267 273 274 272 272 270 273 274 275 276 276 275 274 277 277 277 277 279 278 277 277 275 274 273 273 272 272 271 270 270 270 269 267 267 265 265 265 264 264
277 278 269 255 256 258 266 272 274 273 265 269 270 271 272 275 268 272 276 278 278 279 278 276 274 275 273 272 272 270 270 269 268 268 268 268 267 265 264 264 263 263 262 263
263 266 270 261 256 262 272 274 276 264 267 272 274 273 272 271 274 276 278 277 278 277 275 274 273 272 271 271 270 268 267 266 267 267 266 265 264 263 262 262 262 261 260 261
265 264 263 264 264 260 275 274 270 274 276 277 276 276 275 276 278 277 277 277 275 274 273 272 270 270 270 269 268 266 265 266 265 265 263 262 261 260 261 259 260 260 259 259
266 269 265 267 267 274 276 275 278 278 277 277 277 277 277 277 277 277 276 274 273 271 272 270 268 267 267 267 266 263 264 264 263 261 259 259 259 260 260 258 258 258 259 259
271 273 269 268 273 274 277 278 278 278 278 278 278 278 277 276 276 276 274 274 272 270 269 268 266 265 265 265 265 263 263 263 259 258 258 259 259 258 259 259 259 258 258 258
273 273 268 269 274 275 276 277 279 278 278 278 277 277 277 276 274 274 272 271 269 268 267 266 264 264 263 263 262 261 261 259 258 258 259 259 259 258 258 259 259 259 261 262
275 273 271 269 276 276 277 278 279 278 277 278 277 274 275 275 274 271 270 269 267 265 264 263 262 261 260 259 259 258 255 255 256 256 258 258 258 258 258 258 258 264 266 267

GFSCGP_sfc_thetae_063.txt.gz
Theta_e
292 287 286 288 289 287 287 285 283 286 291 288 289 288 290 290 289 288 288 288 287 288 289 290 290 290 290 291 292 292 292 293 295 295 297 300 297 297 296 298 297 298 300 305
289 285 291 291 290 289 287 284 284 288 291 290 288 288 287 288 288 288 287 286 287 287 288 289 289 289 288 289 290 291 291 292 293 293 293 294 295 294 294 294 294 294 295 295
288 291 293 291 289 288 286 285 285 287 288 287 286 284 285 287 288 288 287 287 287 286 286 287 287 287 287 287 288 289 290 291 291 292 292 292 292 291 290 290 291 292 292 293
289 293 292 289 289 289 285 291 289 288 284 281 285 279 283 284 284 285 285 284 285 285 286 287 286 286 286 286 286 288 289 289 290 290 289 288 287 286 287 288 288 289 290 290
290 290 289 288 290 291 289 290 288 285 282 281 281 279 280 284 282 283 284 285 285 285 285 285 285 286 286 286 285 284 286 287 288 288 287 286 285 286 286 286 285 286 286 287
291 291 289 290 289 291 291 287 286 283 282 277 282 281 281 281 284 283 285 285 286 285 284 284 285 285 284 284 284 283 284 284 286 286 286 285 284 283 283 283 283 284 284 284
286 288 289 290 286 287 286 283 278 277 276 277 282 280 282 284 286 286 285 284 284 284 283 283 282 283 283 283 283 284 283 282 283 283 284 284 283 283 282 282 281 282 282 282
283 282 288 290 288 286 284 284 279 272 274 278 281 279 282 284 286 287 286 284 283 283 283 283 283 282 282 282 282 283 282 282 282 282 282 282 283 282 282 281 281 280 281 282
284 284 288 288 288 289 284 282 286 279 268 274 279 280 283 284 283 283 283 282 282 282 283 282 283 282 282 282 282 282 282 282 282 282 282 282 282 282 282 282 282 281 281 283
288 282 287 287 288 287 287 288 281 280 270 269 276 278 280 280 281 282 281 281 281 281 281 281 281 281 281 281 281 281 282 282 282 282 281 282 281 282 282 282 281 281 281 281
288 286 283 286 285 284 284 282 283 283 280 272 269 276 283 284 284 282 282 283 282 281 280 280 280 281 281 281 280 280 280 281 281 281 280 280 280 280 280 280 280 280 280 280
290 287 278 283 286 287 286 285 284 282 277 277 277 279 285 287 286 284 283 284 282 281 280 279 280 281 281 281 280 280 280 280 280 280 280 280 280 279 279 279 279 280 280 280
291 284 273 280 282 284 283 284 284 282 279 276 275 277 284 284 284 284 284 284 282 281 279 279 279 279 279 279 279 278 278 278 279 278 278 279 279 279 279 279 280 280 279 279
292 283 280 280 279 281 278 282 282 280 274 277 277 277 280 282 283 282 282 282 280 279 279 278 278 278 278 278 277 277 278 278 278 278 278 278 278 278 278 278 278 278 278 278
288 282 281 281 283 282 281 281 282 278 279 278 279 279 281 282 282 281 280 279 276 276 277 276 277 277 277 277 277 278 278 277 277 276 276 276 276 276 276 276 276 276 275 274
283 280 280 278 278 278 278 280 281 281 280 278 279 280 282 280 277 276 276 276 276 276 277 278 278 278 278 279 278 278 276 275 275 274 275 275 275 275 275 274 274 273 272 271
281 278 276 274 272 273 271 275 280 281 280 281 277 280 276 273 276 276 275 276 276 277 277 278 278 278 279 278 278 274 274 274 274 274 274 274 273 272 272 271 270 269 269 268
277 274 271 267 265 262 275 273 275 279 276 277 275 272 274 276 275 276 276 276 277 277 277 278 277 277 278 276 274 273 274 273 273 272 272 271 271 269 269 268 267 267 266 266
279 277 268 269 262 269 274 273 272 273 272 274 276 275 275 275 274 272 276 276 277 277 278 278 278 277 274 274 273 272 272 272 271 270 270 269 268 266 266 264 264 264 264 263
278 278 276 259 263 262 266 271 274 274 267 270 271 272 273 274 268 272 276 277 277 278 278 277 275 275 273 272 272 270 269 269 268 268 268 267 266 264 263 263 262 262 262 262
270 272 273 264 266 265 272 274 275 265 268 271 274 273 273 271 275 276 277 276 278 278 276 274 273 272 271 271 270 268 267 266 267 267 266 265 265 263 262 261 261 260 260 261
267 267 264 267 266 263 275 274 271 274 275 277 275 276 275 276 277 277 277 277 276 274 274 273 271 270 270 270 267 266 265 266 265 265 263 262 261 261 261 259 259 259 259 258
266 270 267 270 269 274 276 275 278 278 277 277 277 277 277 276 276 276 276 275 274 273 273 271 269 268 267 267 266 263 264 264 263 259 258 258 259 260 260 258 258 258 258 258
271 272 268 269 273 274 276 278 278 278 278 278 278 278 276 275 276 276 276 275 273 271 270 268 266 265 265 265 265 263 263 262 255 255 257 258 258 259 259 259 259 258 258 258
273 272 267 268 274 275 276 278 279 279 278 277 277 277 277 276 275 275 274 273 271 270 268 266 265 265 263 263 262 260 261 257 256 257 258 258 258 258 258 259 259 259 261 262
274 271 270 269 276 276 277 279 279 278 277 277 276 275 276 276 276 274 272 271 269 267 265 264 263 261 260 259 258 257 254 253 252 255 257 257 257 258 258 258 258 263 266 267

GFSCGP_sfc_thetae_066.txt.gz
Theta_e
291 287 285 288 288 287 286 284 283 286 289 287 288 287 287 289 288 286 285 285 285 286 287 288 288 288 289 290 290 291 291 292 294 294 295 294 292 293 293 293 293 294 294 295
288 285 290 291 289 288 286 284 284 287 289 288 288 287 286 287 286 286 285 284 285 285 286 287 287 286 286 287 288 289 290 290 292 292 291 291 291 290 289 289 289 289 289 290
287 290 293 291 288 287 285 283 283 285 287 287 285 284 284 285 286 286 285 285 285 284 284 285 285 284 284 285 286 287 288 289 289 290 290 289 288 287 286 286 286 287 287 287
288 292 291 288 288 288 282 289 288 286 284 281 284 278 281 283 283 284 284 283 283 283 285 285 284 283 283 283 284 286 287 287 287 287 286 285 284 283 284 285 285 285 286 286
289 289 288 288 290 290 287 290 288 286 282 279 280 279 280 283 281 282 282 283 283 283 283 283 283 284 284 283 281 282 285 286 286 285 285 284 283 283 283 282 282 283 283 284
290 291 290 291 289 291 290 287 285 283 281 276 282 281 280 280 283 282 283 283 284 283 282 282 283 283 282 282 281 281 282 282 284 284 283 282 281 281 281 281 281 281 282 282
288 289 289 289 286 286 285 283 278 277 275 276 280 279 282 283 284 285 283 283 283 283 281 281 281 281 281 281 281 282 282 281 282 282 283 282 282 281 281 280 280 280 280 280
283 281 288 289 288 286 284 284 279 273 273 277 281 279 283 283 285 287 286 285 283 282 282 281 281 281 281 281 281 281 281 281 281 281 281 281 282 281 281 280 280 280 279 280
283 283 287 287 288 289 284 281 286 279 269 273 279 281 282 283 283 283 283 282 281 281 281 281 281 281 281 280 281 281 281 281 281 281 281 281 281 281 281 281 281 280 280 282
288 283 286 286 288 287 286 287 281 280 271 269 277 278 281 280 280 281 281 281 281 281 280 281 281 280 280 281 280 280 281 281 281 281 281 281 280 280 280 280 280 280 280 280
287 285 282 285 284 283 283 282 283 283 280 273 270 276 282 283 283 282 282 282 281 280 279 279 280 280 280 280 280 280 280 280 280 280 279 279 279 279 279 279 279 279 279 279
289 287 279 282 284 285 284 284 284 279 276 277 276 280 283 285 286 284 283 283 282 281 280 279 279 279 279 279 279 279 278 279 279 278 278 279 279 278 278 277 278 278 278 278
290 285 276 278 281 282 282 283 283 282 279 277 275 278 284 284 283 284 283 282 282 280 279 279 278 278 278 278 278 277 277 277 278 278 278 278 277 276 276 276 276 277 276 276
293 284 279 280 281 283 279 282 283 281 273 278 281 278 280 282 282 282 282 283 281 281 279 278 277 277 278 278 277 276 277 277 276 276 276 275 275 275 275 275 275 275 275 273
291 284 280 281 282 282 280 280 281 279 283 279 283 280 282 284 284 284 283 282 280 279 278 278 277 277 277 276 277 277 276 276 275 274 274 274 275 275 274 274 274 273 273 272
286 283 283 279 278 277 277 280 280 282 280 279 279 279 282 282 280 279 280 279 278 277 277 277 278 278 277 278 277 278 275 274 274 273 274 274 274 274 273 273 272 271 270 270
282 279 279 278 273 275 275 278 280 281 281 282 278 283 278 278 279 279 279 277 278 277 277 277 278 278 278 278 278 274 273 273 273 274 274 273 272 271 271 270 269 268 267 267
279 280 277 270 272 270 278 274 275 279 281 281 276 274 277 278 277 277 277 276 276 277 277 277 277 276 277 276 274 273 273 272 272 272 271 271 270 268 268 267 266 266 266 265
279 278 269 271 268 273 276 274 272 274 273 278 278 277 276 275 275 274 276 276 277 277 278 278 278 277 275 274 273 272 271 271 270 269 269 269 268 266 265 264 264 264 263 263
279 278 279 264 267 265 270 271 274 275 268 271 276 274 273 274 269 273 276 277 277 278 278 278 277 275 274 272 271 270 269 268 268 268 268 267 266 264 263 263 262 262 262 262
272 273 274 268 269 269 274 274 275 268 272 271 275 274 273 273 275 277 277 276 277 277 277 275 274 273 272 271 269 268 268 267 267 266 266 265 265 263 262 261 261 260 260 261
270 270 266 268 267 269 275 274 271 275 275 276 275 275 276 276 276 276 276 276 276 275 275 274 272 271 270 270 268 267 266 267 265 264 263 261 260 260 261 259 259 259 259 258
267 273 270 272 271 274 276 274 277 278 277 277 276 276 276 277 276 276 275 275 275 274 274 272 270 268 268 268 266 264 265 264 263 258 257 256 258 259 260 258 258 258 258 258
270 272 269 269 272 274 276 278 278 278 277 278 278 277 276 276 276 275 275 275 274 273 271 269 268 267 265 265 266 264 263 263 255 252 255 257 257 258 258 259 259 258 258 258
272 272 267 268 273 274 276 277 278 278 278 277 277 277 277 275 274 275 274 274 273 271 269 268 267 266 265 264 263 261 261 257 256 256 257 257 257 256 257 259 258 259 261 262
273 270 269 268 275 275 276 279 279 277 277 277 276 275 275 276 275 274 273 274 271 269 267 266 265 264 262 261 260 257 254 254 252 255 257 257 257 257 258 257 257 263 266 267

GFSCGP_sfc_thetae_069.txt.gz
Theta_e
291 288 287 290 289 288 287 286 286 288 290 289 288 288 289 288 287 285 285 285 286 286 288 288 288 288 289 290 291 292 293 294 297 296 295 292 290 290 289 290 290 290 291 292
287 285 292 291 289 288 287 285 285 288 290 289 288 288 287 287 286 286 285 285 285 286 286 286 286 286 287 288 289 290 290 292 293 293 292 292 289 288 288 288 288 288 289 289
287 289 291 290 288 286 285 284 284 286 288 289 287 286 284 285 286 286 286 286 286 285 284 285 284 284 285 285 286 287 288 288 289 291 290 289 288 288 287 286 287 287 287 288
288 291 291 288 287 289 284 288 287 287 285 282 286 281 283 283 283 284 284 284 284 285 285 284 283 283 284 283 285 287 287 287 287 288 286 286 285 284 285 285 286 286 287 287
289 289 288 288 290 290 288 288 287 286 284 281 282 280 282 283 281 282 283 283 284 284 284 283 283 283 283 283 283 285 286 286 286 286 286 285 284 284 285 285 285 285 286 286
290 291 291 291 290 291 289 287 285 283 282 277 282 283 282 280 283 283 283 283 284 283 283 283 283 283 282 283 283 284 284 284 286 285 285 284 284 283 284 284 284 284 285 285
287 288 289 289 286 287 286 284 279 277 276 277 281 280 284 284 285 285 283 283 283 283 282 282 282 282 282 282 282 283 283 283 284 284 284 284 284 284 284 283 283 283 283 283
284 283 288 289 288 286 283 284 280 273 274 278 282 279 284 284 286 287 286 285 284 282 282 281 281 281 281 282 282 282 282 282 283 283 283 284 284 284 283 283 283 282 282 283
283 284 287 287 288 289 284 281 286 279 270 274 279 282 282 283 283 284 284 283 283 282 281 281 281 281 281 282 282 282 282 282 282 283 283 283 283 283 283 283 283 283 283 283
288 283 285 286 288 287 286 288 281 280 272 270 277 279 282 280 280 282 282 282 283 282 281 281 281 281 281 281 281 282 282 282 283 282 282 282 281 282 282 282 281 281 281 281
289 286 283 285 284 284 283 282 283 283 281 274 271 278 283 284 283 282 283 284 283 282 282 282 281 281 281 281 281 281 282 282 281 282 281 281 281 281 281 280 280 280 279 279
289 287 279 281 284 285 284 284 284 281 276 276 277 278 284 285 285 284 284 284 283 283 282 281 281 280 280 280 280 281 280 281 280 280 280 280 280 279 278 277 277 278 277 277
289 286 279 281 282 283 283 283 283 283 281 274 275 278 284 284 284 285 284 284 283 282 280 280 279 279 279 279 279 279 279 279 280 280 279 278 277 276 276 276 276 277 276 275
294 286 283 283 281 282 280 282 283 284 275 277 281 279 281 282 283 283 284 284 282 282 281 280 279 279 279 279 278 277 278 278 278 277 276 276 275 275 275 275 275 275 274 273
292 284 281 281 281 282 280 280 281 280 283 281 281 282 283 285 285 284 285 283 282 281 280 279 279 279 278 277 277 278 278 277 276 275 275 275 275 275 275 274 273 273 272 272
287 283 285 281 280 280 279 280 281 282 282 280 280 281 285 285 283 281 283 283 282 282 281 280 280 279 279 278 277 279 276 275 275 275 274 274 274 273 273 272 271 270 270 269
284 281 281 277 275 278 278 279 280 280 280 283 280 286 280 280 282 283 282 283 283 283 281 280 280 280 280 278 279 276 275 274 274 274 273 273 272 271 270 269 269 268 267 267
283 281 280 272 274 271 277 274 277 282 281 282 279 278 280 281 279 281 281 282 281 279 279 279 279 278 278 278 277 275 274 273 273 272 271 271 270 268 268 267 266 266 266 265
282 280 272 272 273 276 278 274 274 276 277 282 283 279 277 276 277 277 279 279 279 278 278 278 279 278 277 276 274 273 272 272 271 270 270 269 268 266 266 264 265 265 264 264
280 280 282 270 271 270 274 273 275 277 272 276 280 277 276 276 274 276 277 277 277 278 278 278 278 277 276 274 273 271 270 270 269 269 269 267 267 264 263 264 263 264 263 263
274 274 276 272 273 274 275 274 276 270 274 273 276 276 274 275 278 278 277 276 278 278 278 277 276 276 275 272 271 270 269 268 269 267 266 265 265 263 262 262 262 261 261 261
272 273 270 270 269 270 275 274 273 277 275 276 275 276 276 277 277 277 276 276 276 276 276 275 274 273 271 271 270 269 268 268 266 265 264 262 260 260 262 258 259 260 259 259
270 274 271 273 273 275 277 276 278 278 277 276 276 277 278 276 276 276 275 275 275 275 275 274 272 270 269 269 268 267 267 266 264 261 257 256 258 260 260 258 258 259 259 259
270 272 270 271 273 274 276 277 277 278 277 278 277 276 276 276 276 275 275 275 274 274 273 271 270 269 267 267 268 266 265 264 258 255 256 257 257 258 258 260 260 259 258 258
272 272 268 268 273 275 277 277 278 278 277 276 276 277 277 275 273 275 274 274 274 274 271 271 270 269 267 266 265 263 263 260 258 257 258 258 258 257 258 259 259 259 261 263
273 271 270 269 275 276 277 279 279 277 277 277 276 275 275 276 276 274 273 274 273 272 269 269 268 267 265 264 263 260 258 257 256 257 258 258 258 257 258 258 258 262 265 268

GFSCGP_sfc_thetae_072.txt.gz
Theta_e
299 297 294 297 298 299 297 294 294 295 296 295 296 297 297 295 294 293 293 293 292 292 292 293 295 297 297 296 296 297 298 299 299 297 294 294 292 293 293 293 294 294 294 295
294 293 299 297 297 295 294 294 293 295 295 294 296 294 297 294 294 294 293 292 292 291 292 292 293 295 296 295 295 295 296 297 297 297 296 294 293 292 292 292 292 292 292 292
295 297 298 295 292 292 293 292 293 293 294 294 293 293 293 289 290 290 291 291 291 291 289 290 290 292 293 294 294 295 295 295 294 293 293 292 293 293 291 291 290 291 291 291
295 297 293 293 292 293 290 294 294 292 291 290 293 289 292 291 288 288 289 290 289 289 289 288 289 289 290 290 292 292 292 292 292 293 292 292 290 288 289 290 290 290 291 290
294 292 293 292 293 293 293 294 293 292 292 290 290 289 293 288 286 287 288 289 289 289 288 287 287 287 288 290 290 291 290 291 291 292 291 290 289 289 290 290 289 289 290 290
295 296 295 295 294 295 294 292 290 290 290 284 290 289 293 287 289 288 288 288 288 288 287 286 286 287 287 289 290 290 290 290 291 291 291 290 289 289 289 289 288 289 289 289
294 293 294 294 293 292 293 291 285 282 282 284 287 287 293 292 291 291 288 288 288 287 286 285 285 285 286 287 288 289 289 288 289 289 289 290 289 289 288 288 288 287 287 286
290 288 293 294 296 292 290 293 288 281 281 285 285 283 290 289 290 292 291 289 288 287 286 285 285 285 286 286 287 288 288 287 288 288 288 289 289 288 288 288 288 287 286 285
289 289 293 291 293 296 289 286 292 283 278 283 288 289 288 287 288 289 289 288 286 286 286 285 285 286 286 286 287 287 287 287 287 287 288 288 288 288 287 288 287 286 285 284
294 289 290 290 293 292 291 293 285 287 281 280 285 285 289 285 286 287 287 286 286 287 286 286 285 285 286 287 287 288 287 287 287 287 288 287 287 287 287 286 284 283 283 283
294 291 287 289 288 289 288 287 288 289 287 283 282 285 292 291 290 287 288 288 288 287 286 286 286 286 286 287 287 287 287 287 287 287 287 287 286 285 284 283 282 282 281 281
295 291 287 287 289 289 292 290 290 286 282 284 284 286 289 290 292 290 289 289 289 288 287 287 286 286 285 286 286 287 287 287 287 286 286 285 284 282 281 280 280 280 279 280
293 288 285 286 286 288 287 289 290 292 288 284 283 287 288 289 290 290 290 290 289 288 288 287 286 285 285 285 286 286 286 286 286 286 285 283 281 280 279 279 279 278 278 278
295 289 288 287 289 290 285 288 288 289 286 286 286 289 286 287 288 289 290 291 290 288 287 287 285 285 285 285 286 286 285 285 285 284 282 280 279 279 278 278 277 277 277 276
292 285 289 291 285 286 286 288 287 286 288 286 289 288 290 291 290 291 291 291 289 287 286 286 286 285 285 285 285 284 284 284 283 281 280 279 279 278 277 276 276 275 275 274
289 285 286 286 282 283 283 285 287 288 289 289 287 287 293 294 292 292 290 289 287 287 287 287 286 285 284 284 284 283 283 282 281 280 279 278 277 276 275 274 273 273 273 273
285 284 284 282 278 281 281 285 285 286 288 288 284 290 288 287 289 291 290 289 287 288 287 287 285 285 284 284 283 283 282 280 279 278 277 276 275 274 273 272 272 271 271 271
285 285 285 276 277 275 282 280 285 287 289 288 287 287 288 291 290 290 292 290 289 289 288 287 286 285 285 285 283 283 280 278 278 277 275 274 273 272 271 270 270 270 270 269
282 283 276 276 277 279 283 278 279 282 284 287 287 288 286 281 283 285 287 288 290 289 288 287 286 284 284 283 282 279 277 277 276 274 274 273 271 269 269 267 268 268 268 268
281 282 283 275 275 274 284 278 279 284 279 284 288 287 282 281 282 287 282 284 283 283 283 283 284 283 282 280 279 277 276 275 274 274 273 272 270 268 267 267 267 267 267 267
277 278 278 276 277 280 283 278 279 277 282 279 283 284 280 282 286 284 282 281 282 283 282 282 281 280 280 277 277 276 275 274 274 273 271 269 268 266 266 266 266 265 265 265
277 277 276 278 275 274 278 277 279 284 279 280 280 282 281 282 280 281 281 280 280 280 281 280 279 278 277 277 277 275 274 274 272 271 269 267 265 266 266 264 264 264 264 264
276 281 279 280 280 278 280 282 282 282 281 280 281 281 282 280 280 280 280 280 280 280 280 279 279 276 276 276 277 275 274 271 269 267 265 264 264 264 264 263 264 264 265 264
275 276 277 278 277 278 279 280 280 281 281 281 281 282 281 281 281 279 279 278 278 278 278 277 276 275 273 274 274 275 271 270 265 265 264 263 262 264 263 265 265 265 264 264
277 276 273 274 275 277 280 280 282 281 280 279 280 280 281 281 280 280 279 279 279 279 278 277 276 276 275 273 272 271 269 266 265 265 264 265 264 263 264 264 265 264 265 265
276 274 274 275 279 281 281 284 283 280 279 281 280 279 279 280 280 279 279 279 279 278 277 275 275 275 274 271 271 268 266 265 265 264 264 265 265 264 264 263 264 266 267 268

GFSCGP_sfc_thetae_075.txt.gz
Theta_e
303 298 295 298 300 301 300 298 297 300 301 298 298 299 302 300 299 300 300 299 298 297 296 298 301 298 297 298 299 299 299 298 297 296 294 295 294 294 296 296 295 295 296 296
296 294 301 303 301 300 298 296 296 300 300 296 298 298 302 302 299 300 299 298 297 295 295 297 299 297 296 296 296 297 297 297 296 297 296 296 295 295 294 294 294 293 293 293
297 300 301 300 297 296 296 295 295 296 298 297 296 295 298 302 299 297 297 298 296 295 294 295 298 296 296 295 296 296 295 295 296 296 296 295 295 294 293 292 292 292 291 292
298 302 297 297 295 296 292 299 297 295 293 290 297 288 298 300 293 293 294 294 294 294 294 294 295 296 295 295 296 296 296 296 297 298 296 294 292 290 291 291 291 291 291 290
296 295 295 294 296 297 295 297 295 295 293 293 294 289 295 297 292 293 293 293 293 293 292 292 293 292 293 294 294 293 293 294 295 295 294 292 291 291 292 291 290 290 290 289
297 298 298 297 297 297 297 294 293 293 293 286 292 292 293 294 294 295 293 293 292 292 291 291 290 290 290 291 292 293 291 291 293 292 292 292 291 290 290 290 289 289 289 288
295 295 298 298 294 295 295 292 286 285 283 283 292 292 294 298 295 296 292 292 291 291 289 288 287 287 288 289 290 290 290 289 291 291 291 291 291 290 289 289 288 288 287 286
292 290 296 297 297 295 292 293 288 282 283 286 287 285 293 292 295 296 294 293 291 289 289 287 287 287 288 289 289 289 289 289 289 290 289 290 290 289 289 289 287 286 286 285
293 293 297 298 299 299 293 290 296 286 283 283 289 291 291 291 290 293 292 291 290 288 288 287 287 288 288 288 289 289 289 289 289 289 289 289 289 289 288 288 287 285 285 284
298 291 294 295 295 296 295 296 286 287 281 281 288 290 290 287 288 290 290 290 290 289 288 287 287 287 288 289 289 289 289 288 288 289 289 288 288 288 287 286 285 284 284 283
298 294 289 291 290 291 290 289 291 292 289 285 284 288 296 295 292 290 290 291 290 288 288 287 287 287 288 288 288 288 288 288 288 288 288 288 287 286 285 284 283 283 283 281
298 293 289 289 293 295 296 292 292 287 284 287 287 289 293 294 295 293 292 291 291 290 289 288 287 287 287 287 288 287 288 288 288 288 288 286 285 284 283 282 282 282 281 280
296 287 286 286 289 290 288 292 293 292 291 287 285 288 291 292 294 294 293 292 291 290 289 288 287 286 287 287 287 288 288 288 288 287 286 284 283 282 281 281 280 280 279 279
297 288 288 288 290 291 286 289 290 290 286 287 288 291 289 291 291 292 293 293 292 290 289 288 287 287 287 287 287 287 287 287 287 286 285 283 282 281 281 280 279 278 278 277
293 284 288 291 292 288 289 289 289 287 289 287 290 291 294 293 293 293 294 293 291 289 289 288 287 287 287 287 287 287 287 287 286 285 283 282 281 280 279 278 277 276 276 275
291 285 288 286 291 288 284 288 290 290 290 291 291 292 295 297 296 294 293 293 291 290 290 289 288 287 286 286 286 286 286 285 285 283 282 281 280 278 277 276 275 275 274 274
286 285 284 283 286 283 280 285 288 290 291 291 287 292 292 290 292 294 293 293 291 291 290 289 288 287 286 286 286 285 285 284 283 281 280 278 278 276 276 275 274 273 272 272
284 285 285 282 280 276 285 284 291 290 292 293 291 291 292 292 293 293 296 293 291 291 290 289 289 288 287 287 286 285 284 281 281 279 277 277 277 275 274 273 272 272 272 271
284 285 280 279 279 284 285 283 285 286 288 292 290 292 290 284 285 288 290 293 294 293 292 291 290 288 287 285 285 283 281 279 279 278 276 276 275 273 272 270 271 271 270 270
283 284 284 278 277 276 287 282 282 287 281 290 290 291 288 284 286 291 286 288 289 291 291 289 289 287 285 284 283 280 279 278 277 277 276 275 273 271 270 270 269 270 269 269
279 281 281 280 280 283 287 281 281 279 285 284 289 288 284 286 290 286 286 286 287 286 286 287 286 284 284 282 280 279 278 277 277 276 274 273 272 270 270 269 269 268 267 268
280 279 278 281 278 276 281 278 279 284 281 282 286 285 284 285 283 283 283 283 282 282 283 282 281 281 279 280 280 278 277 278 276 274 272 270 269 269 268 266 267 266 266 265
278 284 282 283 283 280 281 282 284 283 283 282 284 284 285 283 281 281 281 281 281 281 280 280 280 278 278 278 279 277 277 274 273 271 269 267 267 267 267 266 266 266 267 266
278 279 280 282 280 280 280 283 282 283 283 283 283 284 283 282 281 280 280 280 279 280 279 279 278 277 276 277 278 278 275 273 269 268 267 266 265 266 265 267 267 267 267 267
279 278 277 278 278 279 281 282 283 283 282 280 281 282 283 283 281 281 280 279 279 279 279 278 278 277 277 276 276 274 273 270 269 268 267 267 267 266 267 267 268 267 268 267
278 278 277 278 282 283 283 285 285 282 280 281 281 280 281 282 281 281 280 280 280 279 279 277 277 277 277 275 274 272 270 269 269 268 267 268 268 266 266 266 266 269 270 271

GFSCGP_sfc_thetae_078.txt.gz
Theta_e
299 294 292 295 296 297 295 293 292 295 298 294 293 294 297 296 295 294 295 295 294 294 294 297 297 296 298 300 299 298 296 297 296 296 294 293 291 292 292 292 292 292 293 292
294 291 298 300 299 297 295 292 292 295 297 294 293 293 297 297 296 296 296 295 294 291 292 296 295 296 296 296 297 297 297 296 296 296 294 293 291 291 289 290 289 289 289 289
294 296 300 298 297 294 293 292 292 292 296 294 290 290 293 297 298 297 297 296 295 292 291 294 293 293 295 294 295 295 296 295 294 294 293 292 291 289 288 287 287 288 288 288
296 300 298 295 294 295 290 296 295 294 290 285 292 284 290 295 296 294 293 292 291 291 292 293 293 294 293 294 295 294 294 294 294 294 293 289 287 285 286 287 287 287 287 287
294 294 293 294 295 296 292 296 293 292 289 287 288 285 288 294 292 292 292 291 291 290 290 291 292 293 292 293 292 292 292 293 292 290 289 288 287 287 288 287 286 285 285 286
295 296 295 294 295 296 296 292 291 290 288 281 288 287 289 292 294 293 292 292 291 290 289 290 289 291 291 291 290 290 289 289 289 288 288 288 287 287 286 285 285 284 284 283
293 293 295 296 291 293 293 289 281 281 280 280 289 287 291 293 293 294 292 291 290 289 288 286 286 285 287 288 287 287 287 287 288 288 288 287 287 286 285 285 284 283 282 282
288 286 293 295 293 291 289 290 283 278 279 280 283 281 288 290 291 294 294 292 290 288 287 285 285 285 285 286 285 286 286 286 287 287 286 286 286 286 285 284 283 282 282 281
290 290 295 295 296 295 289 286 292 286 277 278 283 286 289 289 288 290 290 290 288 287 286 285 285 286 286 286 286 286 286 286 286 286 286 285 285 285 284 283 282 281 281 282
295 289 292 291 294 294 292 294 285 286 278 276 282 284 286 285 286 289 288 288 288 287 285 285 285 285 286 285 285 286 286 285 285 285 285 285 285 284 283 282 281 280 280 279
295 293 288 289 287 289 289 288 289 289 286 280 277 282 288 290 289 288 288 289 288 286 285 284 284 285 285 285 285 285 285 285 285 285 285 284 283 282 281 280 279 279 278 277
296 293 286 286 290 294 295 291 291 285 281 283 282 283 290 291 291 290 289 289 289 287 285 284 284 284 284 284 285 284 285 284 284 285 284 283 281 280 278 278 278 278 277 277
295 287 284 285 288 289 287 291 292 292 287 284 280 284 289 289 290 290 289 289 289 287 285 284 284 284 284 284 284 284 284 284 284 284 282 280 279 278 277 277 277 277 276 276
298 287 287 285 285 288 283 286 290 290 284 284 286 285 285 287 288 289 289 289 288 287 285 284 284 283 284 284 284 284 284 284 284 283 281 278 278 277 277 277 276 276 275 274
295 284 286 288 291 288 288 287 287 287 288 284 288 288 292 290 290 290 290 289 288 287 285 284 284 283 283 283 284 284 284 284 283 282 279 278 277 277 277 276 275 275 274 274
291 286 287 286 289 290 287 288 287 288 288 289 289 288 292 294 292 291 291 289 288 287 287 286 285 284 283 283 284 284 283 283 283 280 279 279 278 278 277 276 275 275 274 273
285 285 284 283 286 286 280 286 288 289 290 289 285 290 290 290 290 290 289 290 289 288 288 286 286 285 284 284 284 284 283 283 281 280 279 278 277 276 275 275 274 273 272 272
285 284 284 280 281 274 283 283 287 289 292 293 291 287 288 290 293 292 292 291 290 289 289 288 287 286 285 285 284 283 283 282 280 279 278 277 276 275 274 273 272 271 271 270
285 285 282 279 277 281 284 282 283 285 285 291 287 288 287 285 288 289 290 292 292 291 291 291 290 288 285 284 284 282 281 281 279 278 277 276 275 274 273 270 270 270 269 268
282 283 283 278 277 275 280 280 282 285 278 287 289 288 287 286 286 290 292 290 289 289 289 287 287 285 284 284 283 281 279 279 278 277 277 276 274 273 270 270 269 268 267 268
277 280 279 279 278 281 285 281 281 278 281 281 287 285 284 286 287 284 284 284 285 285 286 285 285 284 283 282 282 280 278 278 279 278 276 274 272 271 269 268 267 265 263 266
279 278 277 279 278 276 280 279 281 283 278 280 283 284 283 283 281 281 281 281 281 282 282 281 281 281 280 281 280 278 277 279 277 275 273 271 268 270 267 264 263 263 261 260
277 281 279 281 280 280 280 279 281 281 280 279 281 282 283 281 279 279 279 278 278 279 280 279 278 277 277 279 280 278 277 275 273 271 269 267 266 267 265 262 263 262 261 261
276 277 277 278 278 279 280 281 281 280 279 279 279 280 282 280 279 279 279 279 278 278 277 276 276 275 275 275 277 276 274 273 271 268 266 265 265 263 263 265 265 263 263 263
276 277 274 275 278 278 280 280 281 280 279 278 278 279 280 280 278 279 278 278 278 278 277 277 276 275 274 274 273 273 272 270 269 267 266 265 264 264 263 264 264 265 264 264
276 276 275 275 281 280 281 282 282 280 279 279 278 277 279 280 279 278 277 278 277 276 275 274 273 272 271 272 271 269 269 270 268 266 266 265 265 264 264 264 261 271 271 271

GFSCGP_sfc_thetae_081.txt.gz
Theta_e
295 290 288 292 292 293 291 289 288 291 296 292 290 291 293 294 293 292 292 292 292 292 293 295 295 295 296 295 297 296 296 296 297 296 294 293 290 291 290 291 291 291 291 290
292 288 295 297 295 293 292 289 289 292 295 292 291 291 294 294 294 295 295 293 292 290 292 293 293 293 295 296 296 297 296 297 297 296 294 292 290 289 289 289 288 288 288 288
289 293 298 295 293 292 291 290 290 291 293 291 290 288 290 294 294 294 296 295 293 291 292 292 292 291 292 295 296 296 296 295 294 293 291 290 289 289 287 287 286 286 287 286
293 297 295 293 292 293 289 293 293 292 288 284 290 284 289 291 292 293 296 292 291 290 293 292 291 290 291 295 296 295 294 293 293 292 290 289 287 285 285 285 285 285 286 285
292 292 292 293 293 294 291 294 292 291 287 285 285 283 286 292 292 292 294 289 289 290 292 291 291 291 293 294 294 293 293 293 293 292 290 288 286 285 285 284 283 284 284 285
292 295 293 293 293 294 294 291 291 288 286 280 285 285 289 291 293 295 292 289 289 289 290 290 290 291 291 291 292 293 292 291 290 290 289 287 285 284 284 283 282 282 283 283
290 292 293 294 290 291 291 287 280 278 278 280 287 284 289 293 293 294 291 290 289 289 289 288 287 288 289 289 289 289 289 288 288 288 287 287 286 285 284 283 282 282 281 281
284 284 291 293 292 289 288 288 282 275 277 279 283 281 287 290 290 292 292 291 289 288 288 286 286 287 288 288 288 288 288 287 286 286 285 286 286 285 284 283 282 281 281 281
286 287 292 292 293 294 287 285 291 284 280 277 283 285 290 288 287 288 288 288 287 286 285 285 285 285 287 287 287 287 287 286 286 286 286 285 285 284 282 282 282 281 280 281
294 287 289 289 294 292 290 292 284 287 277 276 280 281 286 286 286 286 286 286 285 284 284 284 284 284 285 287 286 286 286 285 285 285 285 284 283 283 282 281 280 279 279 279
292 292 287 289 287 287 288 287 289 289 285 278 275 281 288 289 288 287 287 287 286 283 283 283 284 285 285 284 285 284 284 284 284 285 284 283 282 281 281 280 278 278 278 277
293 293 286 289 290 292 294 291 291 285 280 283 280 284 288 288 289 289 288 288 286 284 284 283 284 284 284 284 284 284 284 284 284 284 283 281 281 279 279 278 277 277 276 276
295 288 283 285 289 291 288 290 293 292 287 284 281 285 288 289 288 288 287 287 286 284 283 283 283 284 284 283 283 284 284 283 284 283 281 280 279 278 277 277 277 277 276 275
298 286 287 284 284 286 282 285 291 290 285 285 286 288 286 285 287 286 286 287 286 284 283 282 282 283 283 283 283 283 283 284 283 282 280 278 277 277 277 277 276 276 276 274
295 286 287 290 290 288 284 284 288 288 288 284 288 288 292 290 288 290 288 287 286 284 283 282 282 282 283 283 283 283 283 283 283 281 279 278 277 277 277 276 276 276 275 275
292 287 286 286 289 289 287 289 289 288 289 288 289 288 295 292 291 290 289 288 286 285 284 284 283 283 283 283 283 283 283 283 283 280 279 278 278 277 277 276 276 275 275 274
287 287 285 283 287 286 283 287 289 290 292 290 285 290 294 291 292 291 289 288 287 287 286 285 284 283 283 284 284 283 283 283 282 280 279 278 278 277 276 275 275 274 273 273
284 285 284 281 279 277 285 284 291 290 292 293 292 292 288 293 295 292 292 291 289 289 288 287 285 285 284 285 285 284 283 283 282 280 279 278 277 276 275 274 274 273 272 271
287 285 283 278 278 281 283 281 282 284 285 291 292 294 288 286 288 288 291 293 292 291 291 289 288 287 285 284 285 284 282 282 281 279 278 277 277 275 274 273 272 272 271 270
283 283 283 279 277 273 279 280 283 285 278 284 288 291 285 287 284 289 289 290 290 291 291 290 288 287 285 284 284 282 281 281 280 279 278 278 277 276 274 273 272 271 270 270
277 278 278 280 278 279 283 282 282 279 281 280 284 285 284 284 285 285 286 285 286 287 288 287 286 285 284 283 282 281 281 280 281 280 278 276 276 275 274 272 270 269 268 268
277 277 277 279 277 274 280 280 283 284 279 280 284 285 285 283 281 281 281 282 283 283 282 283 282 281 281 282 282 280 279 280 279 278 276 275 275 274 272 270 268 267 265 262
275 279 275 278 278 280 279 281 282 281 280 280 281 283 284 281 280 280 279 279 280 281 280 280 279 278 278 281 282 279 279 277 276 275 275 274 272 271 269 267 265 263 262 263
275 278 280 280 282 280 281 281 280 281 280 280 280 281 282 281 279 279 279 279 279 279 278 276 277 276 275 276 278 278 276 275 274 274 273 270 269 266 265 266 265 264 263 263
277 278 274 275 280 279 280 280 281 281 280 279 279 280 280 280 277 279 278 277 278 278 276 276 276 276 275 275 275 274 274 275 274 271 268 268 267 266 264 265 265 265 265 265
276 277 276 276 281 282 282 281 282 280 279 279 278 277 279 280 279 278 277 278 277 276 275 274 273 272 272 272 271 270 271 273 270 268 267 267 266 264 265 264 262 271 271 272

GFSCGP_sfc_thetae_084.txt.gz
Theta_e
294 289 287 291 291 291 289 288 287 289 294 291 290 291 294 293 292 291 291 291 291 292 293 294 295 295 294 294 296 297 296 297 297 296 294 293 291 291 290 291 291 291 291 290
291 287 294 295 293 291 289 288 288 290 293 291 291 290 292 292 292 294 294 293 292 289 292 292 293 294 294 295 297 297 296 297 297 295 293 292 289 289 289 289 288 288 288 287
289 292 295 294 291 290 289 288 287 289 292 290 288 289 290 293 293 294 296 297 294 291 291 292 292 292 293 296 296 296 297 297 296 293 290 289 289 288 287 287 286 286 286 286
291 295 294 291 290 292 287 292 292 290 287 284 288 284 288 290 291 292 296 295 292 291 292 292 292 291 293 296 297 297 296 293 292 292 290 288 287 285 285 285 286 285 285 285
291 292 291 291 291 293 290 293 291 289 286 284 284 283 285 289 289 292 296 295 290 291 292 291 291 292 293 296 296 295 293 292 292 291 290 288 285 285 285 285 284 283 283 284
291 293 293 293 293 293 293 290 289 286 284 280 285 284 289 289 292 292 292 289 289 289 291 291 291 292 292 294 293 292 292 291 292 290 289 287 285 284 283 282 282 282 282 282
289 290 292 293 289 290 290 287 280 278 277 280 284 283 289 291 293 293 293 287 287 290 290 289 289 289 291 293 292 292 292 290 289 289 287 286 285 284 282 282 281 281 281 280
284 284 290 292 292 289 287 288 282 274 275 278 283 280 286 291 291 290 291 288 287 288 289 288 288 288 289 291 291 291 289 288 288 287 286 286 285 283 282 282 282 281 281 280
284 285 290 291 291 294 286 285 291 284 275 276 282 285 291 291 288 287 286 286 286 287 287 287 287 287 287 287 289 289 288 287 287 287 286 286 284 283 282 281 281 281 280 280
290 285 288 289 292 291 289 291 283 285 276 275 279 281 286 289 289 287 285 284 284 284 285 284 285 286 286 287 286 288 288 287 287 286 286 284 283 282 281 281 280 279 279 279
292 290 286 288 287 287 287 286 287 288 284 277 274 281 288 289 289 288 286 286 284 284 284 284 284 284 285 285 286 287 287 286 285 286 284 282 281 281 281 279 279 278 278 277
292 291 283 286 288 290 292 290 290 284 280 281 280 284 288 287 288 288 287 286 284 284 283 283 283 283 282 284 285 285 285 285 285 284 282 281 280 280 279 278 278 278 277 277
295 288 283 281 288 290 288 289 292 292 287 284 282 284 287 288 287 287 286 285 284 282 281 282 282 283 282 283 284 285 285 285 283 282 281 280 279 278 277 277 277 277 276 276
298 288 284 281 283 286 282 285 290 290 285 283 285 288 290 286 286 286 285 285 283 282 282 281 282 283 282 283 283 283 283 283 282 281 280 279 278 278 277 277 277 276 276 275
296 287 287 289 289 286 284 284 287 287 289 285 288 287 292 292 292 291 287 285 284 282 282 281 282 283 282 282 283 283 283 283 282 281 279 278 278 278 277 277 277 276 276 275
292 288 286 287 288 287 288 289 286 288 290 290 290 289 296 293 289 288 288 287 285 284 283 283 283 283 282 283 283 283 283 283 282 281 279 279 278 277 277 277 276 276 275 274
289 288 286 283 288 287 283 288 289 290 291 291 286 291 296 292 294 294 288 288 287 286 285 283 283 283 283 283 284 283 283 283 282 280 279 278 278 277 277 276 276 275 274 274
286 287 288 284 285 278 285 283 290 290 291 293 293 293 294 294 296 296 294 291 289 288 286 285 284 284 284 285 284 284 283 283 282 280 279 278 278 277 276 275 275 274 273 273
287 285 283 279 280 280 282 281 284 286 287 292 293 294 295 293 286 289 292 293 292 290 289 288 286 286 285 284 284 284 282 282 281 280 279 278 278 277 275 275 274 274 273 272
284 285 283 281 277 275 281 280 283 285 280 282 289 293 292 286 283 291 291 289 289 289 289 288 286 286 284 284 284 283 282 282 281 281 280 279 278 277 275 275 274 274 273 272
277 279 278 280 279 280 284 281 283 277 282 281 285 286 284 285 289 286 286 286 286 287 288 287 285 285 284 284 284 282 282 281 283 282 280 278 278 277 277 275 274 272 271 271
278 277 277 280 278 276 282 280 283 283 279 279 282 285 285 284 281 281 283 282 284 284 284 285 283 282 282 283 283 282 281 283 283 281 279 278 277 277 276 275 273 271 270 269
277 281 278 281 280 281 281 280 281 280 280 279 281 284 285 282 281 281 280 280 281 281 281 280 280 278 279 281 282 281 281 280 279 278 278 277 277 276 275 274 272 269 268 267
277 279 278 280 281 282 282 281 281 281 280 280 280 282 282 281 280 280 280 279 280 279 279 277 277 276 276 276 279 279 277 278 277 277 276 275 275 273 272 273 271 269 266 265
277 279 276 277 280 280 281 281 282 281 280 279 279 280 280 280 278 279 278 278 279 279 276 276 276 276 275 275 275 275 275 276 276 275 273 272 273 271 269 270 268 268 268 268
276 277 277 276 282 282 282 281 282 281 280 279 279 277 278 279 279 277 277 278 276 275 273 274 272 272 272 272 272 271 274 276 275 272 270 271 271 269 269 267 262 273 271 273

GFSCGP_sfc_thetae_087.txt.gz
Theta_e
293 289 287 291 291 290 289 286 286 289 292 289 289 290 294 293 291 290 291 291 292 292 292 295 295 295 295 293 295 298 298 298 297 296 295 295 291 291 291 291 291 291 290 289
289 286 293 294 292 290 288 286 286 289 292 291 290 290 291 292 291 294 294 293 293 291 291 293 293 293 293 296 297 297 297 297 298 298 294 293 292 290 289 289 289 289 288 288
288 291 294 293 289 288 287 286 286 288 290 289 288 288 289 292 293 294 295 298 295 293 291 292 292 294 292 296 297 297 296 296 296 293 291 289 289 288 287 287 286 287 287 286
290 294 293 290 289 290 285 290 290 288 286 283 287 283 288 290 291 291 294 296 293 291 292 293 293 293 293 297 297 297 297 296 293 292 290 290 288 286 286 286 286 285 286 285
290 290 290 289 290 292 288 291 289 287 285 282 281 282 285 288 288 291 295 294 291 290 292 292 293 294 294 297 297 297 296 293 292 291 291 290 288 286 285 285 284 284 284 285
290 292 292 292 291 293 292 289 287 285 283 280 285 284 289 287 289 291 291 291 290 289 290 292 293 294 294 297 297 295 292 291 291 291 290 288 285 284 283 283 283 283 283 283
288 289 291 292 289 289 290 287 280 278 277 279 283 282 289 291 293 292 292 290 289 287 289 289 289 291 293 295 294 293 292 290 290 289 287 286 285 285 284 283 282 282 281 280
284 283 289 292 292 289 287 287 281 274 275 278 282 280 286 290 292 291 290 288 286 287 288 288 290 290 292 293 292 292 291 290 289 288 286 286 286 285 284 283 283 282 280 280
283 284 289 289 290 293 286 284 290 282 271 276 281 284 289 291 290 291 287 285 285 286 286 287 288 290 291 292 291 292 290 289 288 287 286 285 285 284 283 282 282 280 279 279
289 284 287 288 291 290 288 291 284 284 275 275 279 280 284 288 290 289 287 285 284 285 285 285 286 287 288 290 292 291 290 288 287 287 286 285 284 284 283 282 279 279 278 278
291 288 285 287 286 286 286 284 286 288 283 275 273 281 287 289 289 288 288 287 284 283 284 284 284 284 285 284 289 289 288 287 286 286 286 284 283 283 282 280 278 278 278 277
291 289 280 285 288 290 289 288 290 284 279 281 279 284 288 288 287 288 288 286 284 284 283 282 282 283 283 283 284 286 287 286 286 286 285 283 282 281 280 278 277 278 277 277
294 286 282 282 287 289 287 288 291 290 286 280 281 284 287 287 287 287 287 284 283 282 281 281 281 282 282 283 283 285 285 285 286 284 283 281 280 280 278 277 277 277 277 276
297 287 284 284 284 287 284 285 288 289 284 284 285 288 292 287 287 288 286 285 283 282 282 282 282 282 282 283 284 284 284 285 284 283 282 280 279 279 277 277 277 277 277 276
295 287 287 288 287 287 286 286 286 287 288 286 289 287 292 293 292 294 290 286 283 282 281 281 282 282 282 282 283 283 284 283 284 282 281 280 279 279 278 277 277 277 277 276
293 288 287 287 288 287 285 285 287 288 289 290 290 289 297 293 290 289 290 287 284 283 283 283 283 283 282 282 282 283 283 283 283 281 281 280 279 278 278 277 277 276 276 275
287 290 287 284 287 286 282 287 288 289 290 290 286 291 296 292 294 295 294 288 287 287 285 283 282 283 283 283 283 282 282 282 282 281 280 278 278 277 277 277 276 276 275 274
287 285 284 283 283 278 286 286 290 289 290 292 292 293 294 295 295 293 293 293 290 289 287 285 284 283 285 284 284 284 283 282 281 281 279 278 278 277 277 276 276 275 274 274
290 288 284 281 281 283 283 282 284 285 287 292 292 294 295 296 287 293 292 294 295 292 291 288 285 284 284 284 284 283 282 282 281 280 279 278 278 278 276 276 275 275 274 273
285 286 284 282 277 276 282 280 285 287 284 282 291 292 292 287 284 291 289 288 288 289 288 285 283 282 283 283 284 283 281 281 281 281 280 280 279 278 276 276 275 275 275 274
279 279 279 280 279 280 285 282 285 280 280 281 284 285 282 285 288 284 285 285 285 286 285 284 283 283 283 284 283 282 282 281 283 282 281 279 279 278 277 277 276 274 274 273
278 278 277 280 278 276 283 281 283 284 280 281 280 282 285 284 283 282 282 282 284 285 285 283 281 281 281 283 283 282 281 283 283 282 280 278 278 278 278 277 275 274 274 273
277 281 278 282 281 283 281 282 283 282 282 280 281 282 284 283 282 281 282 280 281 282 282 282 281 280 280 282 283 282 281 281 281 280 280 278 278 278 278 276 275 273 273 273
278 279 278 279 282 282 282 281 281 281 281 280 281 283 284 282 282 281 280 281 280 280 280 276 277 277 276 275 279 280 279 280 281 280 279 278 277 277 277 277 275 274 273 272
279 280 277 278 282 281 282 282 284 283 280 279 279 281 283 281 278 278 278 278 279 279 275 275 275 275 274 274 274 274 276 279 279 278 276 275 276 275 274 275 274 274 274 275
277 278 279 279 284 285 285 282 283 282 281 280 279 278 279 279 280 278 276 278 276 275 273 272 271 271 270 271 272 272 275 277 275 272 272 273 273 272 272 272 267 277 276 277

GFSCGP_sfc_thetae_090.txt.gz
Theta_e
291 289 287 290 289 288 287 285 285 287 291 288 288 288 293 293 290 291 291 291 292 293 296 294 295 295 295 294 295 298 300 299 299 298 297 296 292 292 292 293 294 294 293 292
288 286 292 293 291 289 287 285 285 289 291 289 289 289 292 294 291 293 295 295 294 293 290 292 293 294 297 296 296 299 297 297 299 299 296 294 293 290 289 290 289 289 289 289
288 290 293 292 288 287 285 285 285 287 288 288 286 286 288 291 293 294 294 297 297 293 289 291 292 295 297 295 296 298 298 299 299 294 292 290 289 289 288 287 287 287 287 287
289 292 291 288 288 290 284 289 288 287 285 282 286 282 287 290 291 290 294 295 292 291 290 292 293 294 295 297 298 298 298 297 294 294 292 292 292 289 287 286 286 286 286 286
288 289 289 288 289 291 287 289 288 286 284 281 281 281 284 287 287 291 294 293 292 290 290 291 293 294 296 298 298 297 297 294 292 291 293 293 291 287 286 285 285 285 285 285
289 292 292 292 291 291 291 288 287 284 283 279 283 284 290 286 289 290 291 291 291 289 288 290 291 293 295 295 298 297 295 292 292 291 292 291 286 285 284 284 283 283 284 283
287 288 290 291 288 289 287 286 280 278 277 279 281 281 290 291 291 290 292 290 290 288 287 288 289 293 294 296 296 295 293 290 291 291 289 288 287 286 285 284 283 282 282 281
285 283 289 291 290 288 286 286 281 274 275 278 282 279 285 290 291 291 289 288 287 285 287 287 288 292 295 296 295 293 292 290 290 288 287 287 287 286 285 285 284 283 282 281
283 284 288 289 290 293 285 283 289 282 270 275 280 283 289 290 290 290 290 287 287 285 286 287 288 290 293 294 293 293 291 290 288 287 286 286 286 285 284 284 283 282 281 280
289 284 286 288 290 289 288 290 283 282 275 274 278 280 285 287 288 289 288 288 286 284 285 286 286 288 289 291 291 292 291 290 288 287 287 286 285 285 284 283 281 280 280 279
291 289 284 287 285 286 286 285 286 287 282 275 272 281 286 288 289 289 288 288 286 285 285 284 285 286 288 288 290 290 290 288 287 287 286 285 284 284 283 282 281 280 279 278
292 290 283 284 286 290 288 287 288 284 279 280 279 283 289 289 288 288 288 287 284 284 284 283 283 283 283 285 286 288 288 288 287 287 285 284 283 282 282 280 280 279 278 278
294 287 281 283 286 288 286 287 290 289 286 279 277 284 286 287 288 288 287 285 285 283 283 282 282 283 283 284 284 286 286 287 287 286 284 283 282 282 281 280 279 279 277 277
297 287 284 283 284 287 285 285 288 289 284 282 285 288 290 287 288 289 288 286 285 283 282 282 282 283 284 283 284 284 285 287 286 285 283 282 281 281 280 279 279 278 277 276
294 287 286 286 286 286 285 286 287 286 288 286 289 287 292 293 292 294 293 289 285 283 282 282 282 283 283 283 283 283 284 284 285 283 282 281 281 281 280 279 278 278 277 277
293 286 286 287 286 286 283 286 287 288 289 289 290 288 296 292 291 290 291 290 286 285 284 283 283 283 282 283 283 283 283 283 283 282 281 281 280 279 279 278 278 277 276 276
288 288 285 284 288 286 282 287 288 288 290 289 286 291 295 293 291 293 295 291 289 289 287 284 283 283 284 283 284 283 283 282 282 281 281 280 279 278 278 278 277 276 275 275
289 285 285 284 286 278 286 285 292 290 291 292 292 293 295 294 294 294 292 293 292 290 289 288 285 284 284 284 283 283 282 282 281 281 280 279 279 278 277 277 276 276 275 275
293 288 284 281 281 282 284 283 284 285 287 292 292 294 295 295 287 293 292 293 294 293 292 290 287 284 284 283 283 282 282 282 282 280 279 279 279 278 277 277 276 276 275 274
285 287 285 283 279 277 278 279 283 287 283 282 291 292 292 288 281 291 286 285 287 287 288 287 283 282 283 282 282 282 281 281 281 281 280 279 279 279 277 277 276 276 275 275
279 282 280 282 281 281 285 282 284 281 282 282 286 288 283 285 289 286 283 283 283 285 285 283 281 281 282 282 282 281 281 280 282 281 280 279 280 279 278 277 276 275 275 274
278 278 277 280 279 276 285 284 282 285 281 281 281 284 286 286 285 284 283 283 282 282 283 281 280 280 280 281 282 281 280 282 283 281 280 279 279 279 278 277 276 275 275 273
278 283 277 281 281 286 284 285 285 284 283 281 281 283 285 285 284 283 282 281 281 281 283 282 280 279 279 281 282 280 280 281 281 281 280 279 279 278 278 277 275 274 274 273
278 280 281 281 283 284 284 284 283 282 281 281 280 281 284 284 283 282 281 281 281 280 280 276 277 277 276 276 279 278 278 279 280 279 278 278 278 278 278 278 277 276 274 274
278 280 279 279 283 283 284 284 284 283 282 280 280 282 283 283 279 279 278 279 279 279 275 274 275 276 276 274 274 275 277 279 279 278 277 276 277 277 277 277 277 276 276 277
277 278 278 277 283 284 285 284 284 283 282 281 281 279 280 280 280 278 277 279 276 275 273 273 271 271 270 270 271 269 274 278 277 273 273 275 275 275 276 275 271 281 280 280

GFSCGP_sfc_thetae_096.txt.gz
Theta_e
299 297 294 297 298 296 294 293 293 296 297 296 297 297 299 303 303 302 304 305 306 307 309 308 307 309 312 315 314 315 315 315 314 308 306 306 304 301 301 305 301 301 301 301
296 293 298 298 297 295 294 293 293 296 296 295 296 295 299 301 302 304 305 306 307 308 306 304 305 306 308 311 312 313 313 312 313 313 310 305 301 298 297 298 302 300 299 297
293 295 297 296 293 292 293 292 293 292 295 295 293 294 297 300 301 303 304 305 306 307 305 304 303 304 307 308 309 310 312 311 312 313 306 300 294 293 293 293 293 297 295 296
295 297 294 293 293 294 290 295 294 292 292 289 294 287 296 300 301 301 304 305 305 305 305 304 303 303 305 307 309 309 310 309 310 307 306 303 301 298 299 295 294 292 292 291
294 293 293 292 293 295 293 295 294 293 292 290 292 289 295 297 297 301 305 305 303 303 302 302 301 303 304 306 306 308 309 307 304 303 303 303 302 301 298 296 293 290 290 289
294 296 296 296 294 296 294 293 292 291 291 286 292 291 293 297 299 302 303 301 301 301 300 299 299 301 302 305 304 307 307 306 302 301 300 301 302 296 295 294 290 288 287 287
292 293 295 295 292 294 294 293 287 286 284 285 290 289 294 299 300 301 301 301 302 300 299 298 298 299 301 302 303 304 305 303 304 304 302 301 298 296 295 292 293 290 287 285
289 287 294 296 296 293 291 294 289 284 284 288 287 286 294 300 302 301 300 300 300 300 298 297 298 299 300 300 301 303 303 302 302 301 300 298 295 294 294 294 293 289 289 288
290 289 295 294 296 298 292 288 296 290 282 285 291 295 297 299 299 299 299 299 300 298 296 296 296 298 299 299 300 302 302 301 301 299 296 294 293 293 292 289 288 287 286 283
294 289 291 293 296 295 295 297 288 290 284 283 289 290 292 296 297 298 298 300 298 296 296 296 296 297 299 299 300 301 301 300 300 298 295 293 292 291 290 288 286 284 283 282
296 292 289 291 291 292 291 290 290 292 290 286 285 290 297 299 298 298 298 298 298 296 296 296 296 297 298 300 300 300 299 299 298 296 295 292 291 289 287 287 285 284 282 281
295 292 287 289 292 294 294 293 293 288 285 287 286 290 296 297 299 299 298 297 297 297 297 296 296 296 296 297 299 298 298 297 296 295 293 291 290 287 286 285 284 283 282 281
295 288 284 285 289 293 289 292 294 294 290 287 286 290 292 293 294 295 297 296 295 294 294 294 294 294 295 296 296 297 296 296 295 293 292 290 288 287 286 285 283 282 280 279
297 287 286 286 288 291 287 289 291 292 287 288 288 292 292 293 294 295 295 296 296 294 294 295 294 294 294 295 295 295 295 295 293 292 291 289 288 287 286 284 282 281 280 279
292 284 286 291 293 291 291 291 290 288 290 286 292 292 296 298 297 299 298 296 294 293 293 294 295 295 294 293 294 294 294 294 292 291 290 289 289 287 284 282 281 280 279 279
292 285 286 286 288 288 286 291 292 293 292 291 292 292 300 301 303 302 298 298 297 295 295 295 294 292 291 291 292 292 293 292 291 290 289 288 287 284 282 281 280 279 278 278
287 286 285 283 288 287 283 288 290 292 294 294 289 295 300 299 298 299 300 301 300 300 299 298 296 294 293 292 291 291 292 291 290 289 288 286 285 283 281 280 279 278 278 278
286 285 285 283 284 277 288 292 294 293 295 295 294 296 297 299 300 301 302 302 300 300 300 300 300 298 296 294 292 291 291 289 288 287 286 285 284 283 281 280 279 278 278 277
290 286 283 281 281 285 288 289 290 290 290 296 295 297 300 300 298 298 300 300 301 302 301 300 300 299 297 292 291 289 288 288 287 286 285 285 284 282 281 279 279 279 278 278
287 287 284 283 279 277 288 287 289 294 286 288 295 296 297 298 291 297 296 295 296 294 293 292 294 292 291 290 289 287 286 286 285 286 285 284 283 281 280 281 280 280 280 280
280 282 279 280 280 284 290 288 289 283 285 288 290 290 290 292 296 296 292 292 291 291 291 290 289 288 288 286 286 285 285 284 286 286 284 283 282 281 281 281 281 281 280 280
281 280 281 282 279 277 287 288 286 288 289 286 288 288 288 291 292 292 292 291 290 290 289 286 286 284 284 285 285 284 284 285 285 284 283 282 281 282 281 280 280 280 280 279
278 283 282 283 283 289 289 289 292 288 288 289 288 288 286 287 288 290 289 289 288 286 286 285 284 283 283 284 285 283 284 284 283 282 280 280 281 281 281 280 280 280 280 279
281 284 282 282 284 286 288 291 290 290 289 289 287 286 284 285 286 285 286 285 285 284 284 282 282 281 281 282 282 284 283 283 282 281 280 281 280 280 280 280 280 280 279 279
282 282 281 281 283 286 288 289 290 289 288 286 286 284 284 284 284 284 284 284 283 282 280 280 281 280 281 280 281 281 282 282 282 281 280 281 281 281 281 281 281 280 282 281
283 280 278 278 284 284 285 289 288 286 287 287 286 285 283 283 284 284 282 283 281 282 279 279 278 278 279 279 280 280 281 282 280 279 279 280 281 280 280 281 281 283 283 283

GFSCGP_sfc_thetae_099.txt.gz
Theta_e
303 297 294 297 299 299 297 296 294 297 300 297 297 298 300 304 304 304 305 306 307 308 312 313 312 314 320 325 326 326 325 326 320 312 310 309 308 305 305 307 307 305 306 305
297 293 299 301 299 298 296 294 294 297 300 297 297 297 301 303 303 304 305 306 307 309 310 312 311 311 313 319 323 323 323 323 322 317 315 312 309 305 303 303 304 304 303 302
294 297 300 299 296 294 294 293 293 294 297 298 296 295 298 302 304 305 306 307 308 308 309 309 307 309 310 313 318 320 321 321 320 319 315 302 299 298 297 297 299 303 302 300
296 300 297 296 294 296 291 297 296 294 292 289 296 288 296 299 301 304 306 308 309 309 309 309 309 307 308 311 315 317 318 318 317 316 314 307 309 305 302 299 298 298 299 297
294 295 295 293 295 297 294 297 295 295 293 293 293 289 294 300 298 301 306 308 310 309 308 307 307 307 308 311 313 313 314 315 314 314 311 308 309 312 306 300 295 293 293 294
297 298 298 297 297 298 298 296 295 295 293 286 292 291 292 296 299 302 306 307 306 305 305 304 304 305 306 309 310 310 310 311 311 310 308 309 310 306 302 296 294 291 291 289
295 294 297 298 294 296 296 293 286 286 286 285 294 292 295 300 303 304 306 305 304 305 304 303 302 302 304 305 307 307 309 308 308 305 307 307 308 304 301 297 295 291 289 288
289 287 294 297 296 293 293 293 288 284 284 287 290 287 294 303 305 306 306 307 305 304 304 303 303 303 303 304 305 306 306 307 307 305 305 304 302 300 299 299 299 296 292 290
291 291 298 298 299 298 293 290 297 290 288 286 290 295 301 302 302 304 304 303 303 305 302 301 301 302 303 303 303 305 305 306 305 306 307 305 303 298 296 296 296 295 293 289
295 290 296 296 297 299 296 299 289 291 284 283 288 291 293 298 299 303 303 302 304 303 300 300 301 301 302 303 303 304 305 304 304 304 303 301 300 299 297 295 291 290 288 285
296 294 290 293 292 292 292 292 293 294 291 286 285 290 301 300 303 303 304 304 304 301 301 301 301 301 302 302 302 303 303 303 303 303 302 299 298 296 294 291 290 288 285 284
296 293 289 291 294 296 296 293 294 289 287 290 289 290 300 300 302 303 302 301 302 302 302 301 300 300 300 301 302 302 302 301 302 302 300 298 296 294 291 289 288 285 283 282
294 286 284 285 289 293 290 294 294 295 291 289 286 290 297 297 298 298 300 300 299 299 299 298 298 298 299 300 301 301 300 300 301 300 298 296 294 291 289 288 286 284 283 281
295 286 286 286 287 291 288 291 293 292 287 288 289 293 298 298 296 298 299 299 299 298 297 298 298 298 298 299 299 299 300 300 299 298 296 293 292 290 289 287 285 283 282 280
292 285 287 288 289 288 287 287 291 289 290 285 291 293 297 300 300 299 301 301 298 297 297 298 299 300 299 298 298 299 299 298 298 295 293 292 292 290 289 286 284 282 281 280
293 285 287 285 289 289 286 288 289 290 292 291 293 292 300 301 302 303 303 301 297 298 299 299 300 299 299 298 297 298 298 297 296 294 292 292 290 288 286 284 282 281 280 279
287 285 285 283 289 287 283 287 289 291 294 294 289 295 300 300 300 302 302 303 303 302 302 302 301 299 299 298 297 296 296 296 294 292 291 290 288 285 284 283 281 280 279 278
286 285 285 282 285 278 289 295 295 293 294 296 296 298 300 300 301 301 304 303 303 303 304 304 304 305 304 301 298 296 294 294 291 290 289 288 286 284 283 281 280 280 279 278
291 287 283 280 281 285 288 290 291 290 290 288 291 294 296 298 300 301 304 304 303 304 301 300 300 300 300 300 297 292 291 291 289 289 288 287 285 283 282 280 280 280 279 278
287 288 284 282 277 276 287 289 291 295 285 289 289 289 289 292 290 296 296 298 298 297 296 295 294 293 292 294 292 289 288 288 288 288 287 286 285 283 281 281 280 280 279 278
281 282 279 280 279 283 289 288 290 282 284 290 290 290 290 288 291 293 295 295 295 293 292 292 291 289 289 288 288 287 287 287 288 288 286 284 284 282 282 282 281 280 279 279
281 280 279 281 278 277 290 289 286 287 290 289 290 292 291 291 290 291 291 292 292 291 291 289 286 286 286 286 286 286 285 287 287 286 284 283 283 283 283 281 281 280 279 279
278 284 284 285 285 290 290 288 291 293 291 291 291 292 290 289 288 289 289 289 290 289 287 287 286 285 284 285 286 285 285 285 284 283 281 282 282 282 282 281 280 280 280 279
285 287 283 283 286 287 287 289 291 292 291 292 292 291 291 289 289 286 286 286 286 286 285 284 284 283 283 283 283 285 284 284 283 282 281 281 281 281 281 282 281 281 280 279
284 284 282 282 284 285 286 288 289 290 290 289 289 287 287 286 285 285 285 285 286 285 283 281 282 282 282 281 282 282 283 282 282 282 281 281 281 281 280 280 281 280 281 282
284 281 279 279 284 284 285 288 289 288 288 289 288 287 286 286 286 285 284 285 284 283 282 281 280 279 281 280 281 282 283 283 282 280 280 281 281 281 281 280 280 283 283 283

GFSCGP_sfc_thetae_105.txt.gz
Theta_e
294 288 285 288 289 290 287 286 284 288 294 291 290 290 292 295 293 293 293 295 296 297 299 301 301 302 309 315 320 323 322 322 321 318 316 314 314 311 312 316 321 322 319 315
290 286 291 293 291 290 288 286 285 289 293 291 289 290 292 294 295 295 296 295 295 295 297 300 300 300 308 315 320 321 322 321 320 318 312 313 310 307 307 308 310 312 314 311
287 291 295 293 290 289 287 286 285 287 289 289 288 286 289 292 294 296 297 297 297 297 297 298 298 299 304 312 316 321 321 319 317 314 306 303 303 302 302 303 303 305 307 307
289 293 292 290 289 290 285 290 290 288 285 281 287 279 286 291 292 294 296 295 296 296 298 298 299 298 301 307 313 316 319 317 315 311 310 309 308 305 304 302 302 302 303 303
288 291 290 289 290 292 288 291 289 288 284 283 283 280 284 288 289 292 293 297 295 297 298 298 298 299 300 303 307 313 315 316 314 311 311 312 310 310 304 302 301 300 300 301
290 293 292 291 292 292 294 291 290 287 285 279 283 283 281 285 290 291 294 294 296 295 296 297 298 299 299 300 302 307 310 310 311 310 306 307 306 306 301 300 299 298 297 296
289 290 292 293 290 292 291 285 278 278 277 277 284 281 286 290 293 295 295 296 296 296 295 296 296 296 298 300 302 304 306 305 306 305 303 302 303 300 299 296 297 295 293 291
285 283 290 293 291 288 288 286 280 273 276 278 283 280 286 293 295 298 296 297 296 296 296 296 296 296 297 299 300 302 302 302 303 302 301 300 300 298 297 295 292 292 292 293
284 284 292 293 293 293 288 285 289 282 275 276 281 285 291 294 296 297 295 296 296 295 295 296 296 296 297 298 299 300 300 301 301 301 300 299 298 297 295 294 292 291 290 290
289 283 289 291 293 292 290 292 284 283 275 273 278 280 284 290 292 295 293 294 293 294 294 294 295 296 296 297 298 299 299 300 300 299 299 298 297 296 295 294 292 291 289 287
292 289 285 289 287 287 288 286 288 287 284 277 275 278 289 291 291 291 293 294 294 293 293 293 294 295 296 296 297 297 298 299 298 298 298 297 296 294 293 292 292 291 287 286
293 290 282 285 290 292 290 289 289 282 279 282 281 283 292 293 293 293 292 294 293 294 293 293 294 294 295 295 295 296 297 297 297 297 297 295 294 292 291 289 289 287 286 284
294 287 279 281 286 288 287 289 290 290 287 282 280 282 291 292 292 292 292 292 293 292 292 293 293 293 293 294 295 295 296 296 296 296 296 294 292 291 289 288 285 284 283 282
296 286 286 283 283 288 284 287 289 289 283 283 284 286 290 291 293 294 294 293 293 292 294 293 293 293 293 294 294 295 296 296 296 296 295 294 292 290 288 285 283 282 281 280
292 284 286 288 287 286 286 285 286 286 288 285 288 287 290 293 295 297 296 295 294 293 293 294 294 294 293 293 293 295 295 296 295 295 294 293 290 287 285 283 282 281 280 279
292 284 285 283 286 285 284 286 287 287 287 287 288 286 295 297 297 295 296 296 295 294 294 294 294 293 293 294 293 293 294 294 293 293 292 289 287 285 284 282 281 280 279 278
287 285 283 279 284 284 280 285 287 288 290 290 285 289 293 291 293 292 291 292 293 294 295 295 295 295 295 294 294 293 293 293 291 290 288 287 286 285 284 282 280 279 278 277
286 285 284 279 279 276 281 289 291 289 290 292 291 287 288 289 291 292 290 289 290 292 293 292 292 292 294 293 293 293 291 291 289 288 287 286 285 284 282 281 280 278 277 277
289 284 278 274 269 277 281 284 287 286 287 288 286 288 288 289 290 291 289 289 290 291 291 291 291 290 289 289 288 287 288 288 287 287 286 285 283 281 279 279 278 276 275 275
285 284 278 274 269 267 277 283 287 289 280 285 288 287 287 287 283 287 290 289 289 289 290 289 289 287 286 285 284 285 285 285 285 285 285 283 281 280 279 278 276 274 274 276
280 282 279 273 269 273 281 285 286 277 279 285 286 285 283 282 286 289 290 289 288 288 288 288 285 285 285 284 284 284 283 284 285 285 281 280 280 278 278 276 275 274 274 278
276 276 277 277 274 270 285 285 282 283 285 285 285 286 285 286 287 287 287 287 287 287 285 285 284 284 284 283 283 283 282 284 284 280 278 276 276 279 277 275 276 278 278 277
274 277 275 276 277 282 282 282 286 286 284 284 285 285 285 284 284 285 286 286 286 285 284 284 283 283 283 282 281 280 283 283 279 276 275 273 274 277 277 276 277 278 277 277
276 280 276 277 279 282 283 284 284 285 284 286 286 284 283 283 284 284 284 284 284 284 284 283 280 280 280 280 280 281 281 280 278 276 275 276 277 278 279 280 279 279 277 277
277 280 274 274 280 280 280 283 283 284 284 284 285 284 283 283 282 283 282 283 283 283 280 279 278 278 278 277 277 276 277 275 275 274 274 274 275 276 277 280 280 279 280 280
279 278 276 273 279 280 280 281 282 282 282 283 282 281 282 283 283 282 281 282 281 280 277 276 274 272 273 273 272 272 271 272 272 272 273 273 275 274 276 277 277 283 283 283

GFSCGP_sfc_thetae_108.txt.gz
Theta_e
293 288 285 288 288 286 286 285 283 286 292 290 289 289 291 293 292 292 292 292 293 295 300 299 299 300 302 309 317 322 325 325 326 326 325 325 326 320 325 328 325 323 321 316
289 284 289 291 289 288 286 284 283 288 290 290 287 288 290 292 293 294 296 295 294 293 294 298 298 297 299 308 317 321 324 322 324 326 326 320 314 311 311 312 320 323 318 315
286 289 293 291 288 287 285 284 284 286 287 286 286 285 287 289 291 293 294 297 297 294 293 295 296 296 296 306 314 319 322 321 323 317 310 306 307 306 307 306 307 309 318 314
288 292 291 288 287 288 283 289 288 287 284 280 284 279 283 288 290 291 293 293 294 294 294 295 296 296 296 304 312 318 319 320 316 312 314 311 311 310 308 307 305 305 307 311
287 289 289 287 288 290 287 290 287 285 283 281 280 280 282 285 287 290 292 293 292 293 295 296 296 297 297 305 310 314 315 315 312 312 314 312 310 312 306 305 305 303 302 304
288 292 291 290 290 291 292 289 287 285 282 277 281 281 279 283 288 288 292 293 293 294 293 294 296 297 298 300 306 310 312 311 311 310 309 313 313 308 304 302 303 302 300 299
289 289 291 292 289 290 288 284 277 276 276 276 281 280 283 287 291 291 294 295 294 293 294 295 295 296 298 298 301 305 308 306 307 306 306 306 308 307 306 304 303 299 297 295
284 282 289 293 290 288 286 285 279 272 274 277 281 278 284 290 292 293 295 295 294 293 294 293 294 296 298 299 299 301 303 303 304 303 302 302 303 301 300 299 297 300 300 299
284 283 290 291 292 293 287 284 287 281 272 275 280 284 289 292 294 293 294 294 293 292 294 294 294 295 296 298 299 300 300 301 301 301 300 299 299 298 297 295 294 294 292 291
287 282 288 289 291 290 289 291 283 282 273 272 277 279 283 287 289 292 293 292 292 292 293 294 295 295 296 296 298 298 299 299 299 300 299 298 297 297 296 294 292 291 290 289
289 286 284 288 286 285 287 285 286 286 282 276 274 278 286 289 291 291 292 293 292 292 293 293 293 294 295 295 296 296 297 297 298 298 298 297 296 295 294 293 292 290 288 287
291 287 280 284 288 290 288 287 288 281 278 280 280 281 291 290 291 292 291 292 292 293 292 292 293 293 293 294 294 295 295 296 297 297 296 296 295 293 292 290 290 288 287 285
294 286 278 280 284 287 286 288 289 289 285 280 277 280 290 289 290 291 292 292 292 291 290 292 292 293 293 293 293 294 294 295 295 295 295 294 293 292 291 290 288 287 286 285
297 287 285 282 282 286 284 287 289 288 281 282 283 283 288 288 291 293 294 293 292 292 293 292 292 293 293 293 294 294 294 295 296 295 295 294 293 292 291 289 287 285 284 283
293 285 287 288 287 287 286 286 287 285 287 282 285 285 288 291 292 294 293 294 293 294 293 293 293 293 292 292 292 293 294 294 294 294 294 293 292 290 288 286 285 283 282 281
292 284 286 284 287 286 283 287 288 288 288 288 287 285 292 294 294 292 293 294 293 293 293 294 294 294 293 293 292 292 293 293 293 293 292 291 289 287 286 285 283 282 281 279
286 285 283 279 285 284 280 285 287 288 289 289 284 290 294 291 292 290 288 290 291 291 292 292 292 293 293 292 292 292 292 292 290 289 289 288 288 287 286 284 282 280 279 277
285 285 284 280 283 275 281 287 290 289 290 291 286 286 290 290 290 289 289 288 288 289 290 290 291 290 290 290 289 289 288 288 288 288 287 287 286 285 283 281 281 278 276 277
290 285 280 278 269 277 280 283 286 286 286 291 287 287 288 289 289 288 288 289 289 288 289 290 289 289 288 287 286 284 285 285 285 286 286 285 282 281 280 280 279 277 276 275
286 283 278 273 270 268 277 281 286 288 281 284 287 286 286 287 285 288 288 288 288 287 288 288 288 287 285 285 283 284 284 284 285 285 285 282 281 281 280 279 277 274 273 276
281 282 279 273 267 271 281 283 286 279 279 284 286 286 284 282 286 288 288 288 288 287 287 286 285 285 285 284 283 283 283 283 284 284 280 278 278 278 277 275 273 272 273 276
279 279 278 276 273 271 282 284 281 283 284 285 284 286 286 285 284 284 284 285 286 286 285 285 284 284 284 283 282 282 282 284 283 280 278 275 273 276 274 272 271 272 272 276
273 277 274 278 277 281 281 281 284 283 283 284 285 286 284 283 282 282 283 284 284 284 284 284 283 283 282 282 280 279 282 281 279 275 273 271 271 274 273 271 271 272 273 273
276 279 276 277 279 280 282 283 284 284 284 286 285 284 283 281 282 283 283 284 283 284 283 282 279 280 280 279 279 280 280 280 276 276 275 274 275 275 274 276 275 279 278 274
277 280 275 273 280 280 281 282 283 283 284 284 283 283 282 281 280 281 281 282 282 282 279 278 278 278 278 276 276 275 276 273 274 273 273 273 273 272 272 276 279 279 279 280
278 278 277 274 282 280 280 281 282 281 280 280 280 280 281 281 281 280 280 280 279 278 276 276 274 272 274 273 272 270 269 270 269 272 272 272 272 271 272 278 275 283 283 283

GFSCGP_sfc_thetae_114.txt.gz
Theta_e
291 288 285 287 288 286 286 283 282 283 288 286 286 287 291 291 290 291 292 292 292 292 297 295 295 296 306 310 316 322 325 328 328 329 328 327 326 326 325 324 322 321 321 319
288 284 290 290 288 286 285 283 281 285 288 288 286 287 290 290 291 292 293 292 292 292 292 293 294 294 295 305 313 318 323 326 327 330 330 329 328 327 327 326 323 322 321 319
285 287 290 289 286 285 282 282 281 283 285 286 283 283 285 287 288 290 292 292 292 293 293 292 293 293 292 293 304 313 319 324 327 328 329 315 314 312 313 315 323 322 322 320
285 288 288 286 285 286 282 286 286 284 283 279 282 277 281 285 287 288 290 290 290 289 291 292 293 292 291 292 294 305 313 320 324 327 327 324 323 321 321 323 321 322 322 321
284 287 286 285 286 288 285 287 286 284 281 280 279 278 281 283 285 288 290 289 289 291 291 290 291 292 292 293 293 300 309 314 319 325 327 325 324 325 316 313 316 316 314 319
285 288 288 288 287 289 289 286 285 282 280 277 280 280 278 282 285 285 287 288 291 292 292 293 294 295 296 300 300 303 309 313 318 324 325 324 323 313 310 309 312 312 310 308
285 286 289 289 287 288 285 283 277 276 275 276 279 278 281 285 287 286 288 288 290 292 292 293 293 294 296 299 302 305 310 311 314 317 318 319 320 313 313 311 312 308 307 303
281 280 288 290 287 285 284 284 278 272 273 275 279 277 282 287 288 290 291 292 292 292 292 292 292 293 295 296 299 303 308 308 309 310 312 311 311 312 311 309 309 308 306 305
282 281 288 289 290 290 285 282 285 278 269 274 278 281 286 289 289 290 291 291 290 290 291 291 292 293 294 296 296 298 301 305 307 308 306 307 307 307 306 303 303 302 300 297
286 281 286 288 290 289 287 289 281 279 270 270 276 278 281 284 287 289 289 290 290 291 292 292 292 293 294 294 295 296 298 299 300 303 303 303 302 302 300 298 297 295 294 292
288 285 283 287 285 284 284 283 283 284 281 276 272 278 283 285 289 289 289 290 291 291 291 291 292 292 293 293 294 295 295 297 297 298 298 298 297 296 295 294 294 293 291 290
290 286 281 283 286 288 287 285 285 279 276 278 277 281 288 287 289 290 290 291 291 291 291 291 291 292 293 293 293 294 294 295 295 296 296 296 295 294 293 293 292 291 291 289
291 285 278 281 282 285 284 285 286 285 282 277 275 281 288 288 288 289 289 290 292 289 289 291 291 291 292 292 292 293 293 294 294 294 294 294 293 293 292 292 291 290 289 288
294 285 283 281 281 286 284 285 287 287 281 281 281 281 285 287 289 290 291 290 289 289 290 290 290 290 291 291 291 291 292 293 294 294 293 293 293 292 293 292 290 289 288 288
293 282 284 285 285 285 283 282 286 286 286 282 285 283 286 289 291 290 291 291 290 290 291 291 291 291 291 290 290 291 291 291 291 292 292 292 292 291 291 290 289 288 287 286
293 285 287 286 288 287 285 287 285 285 286 287 286 285 288 293 291 290 292 292 291 291 290 291 291 291 290 290 289 290 289 289 289 290 288 289 288 289 289 288 288 287 286 285
288 285 284 282 286 285 281 286 287 286 288 287 284 289 291 290 291 290 290 290 289 289 289 289 289 289 288 288 288 287 288 287 287 287 287 287 287 287 287 286 285 282 280 278
286 286 285 280 283 277 283 284 291 289 290 289 287 286 290 290 288 288 287 287 287 287 287 288 288 288 287 286 286 285 285 286 286 286 285 285 285 284 282 279 279 277 276 277
291 287 283 280 280 280 282 282 285 286 287 292 290 288 287 286 286 285 287 287 287 287 287 287 287 287 286 285 284 284 284 284 284 284 284 283 279 277 276 276 275 274 274 274
288 288 286 278 275 272 278 280 286 288 281 285 291 288 286 286 283 283 286 286 286 286 286 286 286 285 284 284 284 283 283 283 282 283 283 279 277 274 274 275 274 273 272 275
283 284 282 279 275 274 280 283 286 276 280 283 287 289 286 283 286 286 285 285 285 285 285 285 284 284 284 284 283 282 282 282 282 282 278 276 275 274 273 272 272 270 270 273
281 280 280 277 276 276 281 284 282 284 282 284 284 285 284 282 281 282 282 282 283 283 283 283 282 282 282 282 281 281 280 281 280 278 276 274 271 273 274 269 269 269 269 269
278 281 279 280 281 282 281 282 284 284 283 283 282 282 282 281 281 281 281 281 282 282 282 281 280 280 280 279 278 276 279 278 277 274 275 274 274 275 274 271 272 272 270 270
275 278 278 280 281 281 283 282 282 284 284 283 281 281 281 280 281 281 281 282 281 280 279 277 276 276 276 275 276 274 275 274 270 271 272 273 271 272 270 272 272 269 268 268
278 279 275 275 279 279 281 282 284 284 282 281 281 281 281 281 279 281 280 279 278 277 274 273 273 273 272 271 271 269 268 266 271 273 271 271 270 268 271 271 272 272 272 273
278 278 278 277 281 283 283 282 283 282 281 282 280 279 280 281 281 278 278 276 274 272 270 270 268 267 268 267 267 265 261 261 262 268 273 274 273 271 271 271 276 282 283 284

GFSCGP_sfc_thetae_117.txt.gz
Theta_e
290 288 285 288 288 287 287 284 284 285 289 288 288 288 291 292 292 292 292 293 294 294 298 297 298 299 309 315 319 325 328 330 331 329 327 327 326 326 325 324 324 322 321 318
287 284 289 291 288 287 285 284 284 287 289 289 287 287 290 291 292 293 294 294 294 295 295 295 296 297 297 306 315 319 325 329 329 330 330 330 328 328 327 325 324 323 321 319
284 286 290 289 286 286 284 283 283 285 286 285 284 284 286 288 289 291 292 293 294 294 294 295 295 295 295 296 306 315 320 326 329 331 330 320 320 317 320 323 323 323 322 320
285 287 287 285 285 286 282 287 286 285 284 280 283 278 283 286 287 289 291 291 291 291 292 292 292 293 294 295 296 307 316 322 327 329 329 325 324 321 324 324 325 323 322 321
283 285 285 284 286 287 285 287 286 285 282 281 281 280 282 284 286 289 290 290 292 294 295 295 295 296 296 298 295 297 308 316 323 326 329 326 325 326 324 323 322 322 321 322
284 287 287 286 286 287 288 286 284 282 281 277 280 281 279 283 286 287 288 289 290 293 294 295 296 297 299 303 303 300 303 311 318 324 327 326 324 324 316 315 319 317 312 312
284 285 286 289 286 288 285 283 278 277 276 276 279 279 282 286 287 288 289 289 292 293 294 294 295 296 298 301 306 307 309 311 316 321 324 324 323 320 317 314 316 310 308 306
280 278 286 289 287 285 283 283 278 273 274 276 280 278 283 287 288 290 291 293 294 293 293 293 294 295 297 298 303 308 310 310 313 314 315 316 316 315 315 313 312 311 310 308
280 281 287 288 289 290 285 282 284 278 270 275 278 281 286 288 288 290 292 292 293 293 293 294 294 294 295 297 298 304 307 308 309 310 310 311 311 311 309 307 308 308 305 301
286 280 286 287 290 289 286 288 281 279 270 270 276 277 281 284 287 291 291 291 292 292 292 293 293 294 295 295 297 298 301 304 305 306 307 306 307 306 306 304 303 302 300 299
287 285 283 286 285 284 284 283 283 283 280 274 271 277 283 286 287 289 291 292 292 292 292 292 293 294 294 295 296 296 297 299 300 301 301 302 301 300 300 300 299 298 296 296
288 286 281 283 285 288 287 285 285 280 276 277 277 280 287 286 289 291 291 292 292 292 292 292 292 293 294 294 295 295 296 296 297 298 298 298 298 297 297 297 297 295 295 293
290 283 274 278 282 284 283 284 285 284 283 278 276 281 287 288 289 290 291 292 292 290 290 291 292 292 292 293 293 293 294 295 295 296 296 296 296 296 296 296 295 293 293 292
295 285 283 280 280 285 284 284 286 286 280 282 281 284 285 287 289 290 292 292 292 290 290 291 290 290 291 291 292 292 293 294 294 295 295 294 294 294 295 294 293 292 292 291
291 283 284 284 285 285 283 285 286 286 287 282 286 283 285 288 290 292 292 292 290 290 290 291 291 291 290 290 290 291 291 291 292 292 292 292 292 292 292 291 291 290 290 290
292 284 284 281 286 287 285 285 286 287 287 287 286 284 288 292 290 290 292 292 291 290 291 290 290 290 289 289 289 289 289 289 289 289 289 289 289 289 289 289 289 288 288 287
288 285 285 282 284 284 282 286 285 285 286 286 283 288 290 289 290 291 291 291 291 290 289 289 289 289 288 288 287 287 288 288 287 287 287 287 287 286 286 286 285 283 283 282
285 285 285 281 284 277 285 284 290 288 289 289 288 287 289 290 290 291 291 290 288 288 288 288 288 288 288 287 286 286 287 287 287 286 285 285 284 284 282 282 281 281 280 280
291 286 283 280 280 279 283 283 285 286 287 292 290 288 288 287 286 285 287 288 288 287 288 288 288 287 286 285 285 286 285 285 284 284 284 283 281 279 279 278 278 278 278 278
287 288 285 278 277 273 278 280 286 289 282 286 292 291 286 286 286 286 286 286 286 286 286 286 286 285 285 284 284 284 283 283 282 282 282 280 278 274 275 277 276 277 276 278
284 284 283 280 274 276 281 283 286 278 281 283 288 289 286 287 288 286 286 285 285 285 285 284 284 283 283 283 283 282 282 281 281 281 278 277 277 275 275 275 275 274 274 275
282 282 282 281 278 277 282 284 283 285 283 284 284 286 285 283 283 284 283 283 284 284 284 284 282 281 280 280 280 280 279 279 279 277 276 274 272 274 275 270 273 272 272 272
278 282 280 283 282 282 282 282 285 285 285 284 284 284 283 282 281 281 281 282 283 283 282 281 280 278 276 277 276 276 276 276 274 271 271 271 272 274 273 271 274 274 272 273
275 278 278 280 281 281 282 283 283 284 285 284 283 282 282 281 280 280 281 282 281 280 278 277 277 275 273 273 273 272 271 270 267 267 269 271 271 272 272 274 274 273 274 274
278 279 275 276 278 280 282 283 285 284 283 281 281 280 281 281 280 281 281 281 279 276 274 273 273 272 270 269 269 266 266 264 266 268 270 271 271 269 272 273 274 274 274 275
278 278 278 278 283 284 285 285 283 283 281 281 280 279 280 281 280 279 278 277 274 272 270 270 268 267 266 266 265 262 260 261 262 267 268 268 269 271 272 272 275 280 282 284

GFSCGP_sfc_thetae_120.txt.gz
Theta_e
297 295 292 295 296 294 294 292 291 291 294 294 295 295 298 300 300 301 302 303 304 304 308 308 307 309 319 325 328 332 334 335 332 331 329 328 327 327 328 330 330 329 326 324
295 291 296 297 295 293 293 291 290 292 294 294 294 293 297 299 299 301 302 303 303 305 306 306 306 306 306 311 320 325 330 334 332 332 331 331 329 328 330 327 329 330 326 322
292 293 296 294 291 291 292 291 290 290 291 292 291 292 293 296 296 298 300 302 303 302 303 305 304 305 307 306 309 317 323 329 334 332 331 329 327 325 326 325 326 329 326 323
293 292 293 292 291 293 289 293 292 290 290 287 291 286 292 295 294 296 298 299 300 300 300 300 302 303 303 305 306 309 316 322 330 333 329 327 326 323 326 326 326 327 325 323
291 290 291 291 292 294 291 293 292 291 290 289 289 287 291 290 292 296 298 298 298 301 302 303 302 303 305 306 304 304 307 317 324 332 329 327 326 327 329 327 325 324 323 324
292 293 293 294 291 294 293 292 291 291 290 283 289 288 289 291 293 295 295 297 296 299 301 301 302 304 307 312 311 306 304 310 319 326 327 327 326 325 324 325 324 324 321 321
290 290 292 293 291 292 293 291 284 282 282 281 285 285 290 294 294 294 296 296 300 300 301 301 302 304 306 311 310 311 307 307 315 322 324 325 325 325 324 322 323 317 314 311
285 283 290 293 293 290 291 291 285 279 279 283 284 283 290 295 294 295 295 298 300 300 300 300 300 302 304 306 309 312 313 314 315 319 322 324 324 323 322 320 319 317 316 313
286 286 292 292 293 294 289 287 292 283 278 283 286 288 293 296 294 294 295 297 300 299 300 300 300 301 303 305 306 309 311 312 313 315 315 316 316 316 315 314 315 314 310 306
290 284 290 291 294 293 292 293 285 287 281 279 284 284 287 290 293 295 296 298 299 299 299 300 300 300 301 303 305 309 308 308 310 311 312 312 312 312 312 310 308 307 306 305
291 289 287 291 289 289 288 287 288 288 286 283 280 285 292 294 295 296 298 298 299 299 299 299 299 300 301 302 303 305 308 308 306 306 306 306 305 305 305 307 307 309 307 306
292 290 285 287 291 293 292 290 290 285 282 285 284 285 291 292 295 296 297 297 298 298 298 298 298 299 300 301 302 302 304 304 306 308 308 307 306 306 307 306 305 304 304 301
293 289 283 285 288 290 288 289 291 291 289 285 283 286 292 293 293 296 297 297 297 297 297 297 298 299 299 299 300 301 301 302 302 303 304 304 304 304 304 303 302 301 301 300
295 288 286 282 287 290 287 288 289 289 286 285 286 289 291 293 294 295 296 297 298 297 297 298 298 298 298 298 299 299 299 300 301 301 302 301 301 301 301 301 300 299 299 298
293 286 288 289 289 291 290 288 288 286 288 285 288 289 292 295 296 298 300 299 297 295 295 297 296 297 297 297 297 297 297 297 298 299 298 297 297 297 298 297 297 296 296 296
294 286 288 285 289 289 287 289 290 289 290 290 290 290 295 297 299 299 298 298 296 296 296 296 296 295 295 295 295 294 295 295 296 296 294 294 294 293 293 293 292 292 292 293
289 286 286 283 287 287 284 288 289 290 291 291 287 292 296 293 294 296 298 298 297 296 296 295 295 295 294 294 293 294 293 294 293 292 290 290 290 290 290 290 290 289 290 289
287 287 287 285 285 278 288 292 294 291 293 293 292 293 295 295 296 297 300 298 297 296 295 295 295 294 293 292 292 291 292 292 291 289 288 288 288 287 287 288 288 288 288 288
293 289 285 283 283 285 286 287 289 290 290 295 293 294 295 293 292 293 295 298 298 296 295 295 294 293 291 290 290 290 289 289 288 287 286 285 284 284 285 285 286 286 287 287
289 289 286 284 281 279 288 287 292 294 286 294 296 295 295 292 290 295 291 292 292 292 292 291 291 290 289 289 289 288 287 287 285 284 284 283 283 283 283 284 284 284 284 284
284 285 284 284 282 285 289 287 292 285 289 289 291 294 292 291 296 293 291 290 291 291 290 290 289 288 287 286 287 285 285 283 283 283 283 282 282 282 282 283 283 283 283 283
284 283 284 283 282 280 287 289 287 290 287 290 291 292 291 291 289 289 289 288 288 288 288 287 285 282 282 283 285 283 281 280 280 280 280 280 280 281 282 281 283 282 282 283
283 288 286 287 287 287 289 289 292 290 291 289 291 290 290 287 287 288 287 287 287 287 285 285 282 280 279 279 281 280 277 277 276 277 276 278 278 280 280 281 282 283 283 283
282 283 286 287 287 287 287 288 288 289 289 289 289 289 289 288 287 285 285 284 283 283 282 281 280 278 276 276 275 275 273 273 273 275 276 277 277 277 279 280 281 282 283 283
283 283 282 283 283 285 287 288 290 288 288 285 285 285 287 287 285 285 284 282 281 279 278 279 278 276 273 273 272 269 268 268 272 273 274 275 276 276 277 278 279 280 282 281
282 282 284 286 287 289 289 290 288 288 287 286 284 282 283 284 284 284 282 281 278 276 275 274 273 273 271 270 268 265 263 265 267 273 273 272 273 274 275 276 278 280 281 282

GFSCGP_sfc_thetae_126.txt.gz
Theta_e
298 292 288 291 293 294 291 290 289 292 294 291 291 292 294 296 295 295 296 297 298 299 302 302 305 311 317 321 324 326 328 331 331 329 329 328 328 329 328 329 326 324 323 321
293 289 294 297 295 293 290 289 287 290 293 291 290 291 295 296 295 296 297 297 298 299 300 302 302 304 312 317 321 324 326 330 331 331 330 329 329 329 329 329 329 328 324 321
290 292 297 295 293 291 289 288 288 288 291 290 288 287 290 294 296 296 297 299 299 299 300 301 302 302 303 309 316 321 324 327 331 331 330 328 327 326 326 327 328 328 327 325
292 294 293 292 292 292 287 292 291 290 287 281 288 279 287 291 292 293 295 296 298 297 298 299 300 300 301 302 304 306 317 321 325 331 327 325 325 324 326 326 328 328 328 326
289 290 291 291 292 293 289 293 291 289 286 284 284 281 285 289 289 292 293 294 296 296 298 297 299 301 301 302 301 301 302 305 314 322 329 326 324 325 325 325 325 325 326 326
291 293 293 292 293 293 294 291 290 287 285 279 285 283 283 287 290 290 291 293 295 296 298 299 301 302 302 306 307 306 302 301 305 313 323 326 327 324 323 322 323 324 324 324
289 288 291 293 290 292 291 287 279 278 277 277 284 282 286 291 291 290 292 293 294 297 298 298 299 301 304 305 308 308 304 301 302 308 313 320 326 324 322 323 324 321 319 317
283 281 288 292 291 288 288 287 281 275 276 277 281 278 285 292 292 292 294 293 297 297 299 299 300 301 302 305 305 309 308 302 303 307 310 315 319 319 320 322 322 321 320 319
284 284 291 292 293 292 287 285 289 282 275 277 281 284 290 292 292 291 291 293 294 296 297 298 299 300 301 303 306 307 308 309 310 310 312 313 315 318 318 319 319 317 315 311
289 283 289 291 292 292 290 292 283 282 273 273 278 279 282 287 290 291 291 291 294 297 297 297 298 299 300 302 305 307 310 308 307 308 309 309 311 314 314 314 312 311 307 306
290 288 285 289 286 286 286 286 287 287 284 277 274 278 286 288 291 291 291 293 294 295 296 296 297 298 299 300 303 305 306 308 307 307 305 305 306 307 308 308 307 306 305 306
292 289 281 284 289 292 291 288 288 282 279 280 279 282 290 290 292 292 292 296 296 296 296 296 296 297 298 299 300 302 304 305 307 307 306 305 305 306 306 306 306 306 304 303
292 286 276 279 285 288 287 288 288 288 284 279 276 282 290 291 288 292 293 295 295 295 295 295 296 296 297 297 298 299 300 301 304 307 305 305 305 306 305 303 302 301 299 297
295 288 284 280 281 287 283 286 288 287 281 283 281 285 286 289 290 291 293 294 294 294 295 295 295 296 296 297 297 297 298 299 300 301 301 300 299 300 299 298 297 296 296 295
291 281 285 287 287 286 285 285 286 285 286 282 286 286 290 289 291 292 294 295 295 294 294 295 295 295 295 295 295 296 296 297 298 297 296 295 295 296 295 293 292 290 290 289
292 279 284 280 286 286 281 287 287 287 288 287 288 286 293 292 291 292 295 295 295 295 295 296 296 296 295 295 294 295 294 294 295 293 292 292 290 288 288 287 287 287 287 287
288 282 278 276 285 284 280 285 287 288 289 288 284 289 292 291 292 292 294 296 296 296 295 295 295 295 295 294 294 293 293 292 290 288 287 287 287 286 286 287 286 286 286 284
285 282 283 276 280 275 284 290 291 288 291 291 291 291 291 293 293 294 295 296 296 297 296 295 295 294 294 293 292 292 291 288 286 285 285 286 285 285 285 284 284 284 283 282
291 285 282 277 275 281 286 287 287 286 287 292 292 293 293 293 292 292 296 298 298 297 296 296 295 293 291 291 291 288 286 286 285 284 284 283 283 282 281 281 280 279 281 283
288 287 285 281 279 275 282 289 292 291 283 290 293 293 292 291 288 291 295 295 296 295 294 293 291 290 289 288 287 286 285 284 283 283 283 282 281 280 280 279 278 278 279 280
285 285 283 284 280 281 286 287 292 280 282 288 291 292 291 290 293 292 292 292 292 292 290 289 288 287 287 286 286 284 283 282 282 282 281 280 281 282 280 277 277 276 276 278
285 284 283 284 282 279 286 288 287 288 286 288 289 291 292 290 290 289 289 288 288 287 287 285 284 283 284 284 284 282 280 280 281 280 279 279 278 279 278 275 276 275 275 274
283 288 285 285 284 285 287 285 288 289 287 287 289 288 290 287 286 287 286 286 286 285 284 282 281 280 280 282 281 278 278 278 277 277 278 276 276 276 275 274 276 276 275 274
283 285 286 284 285 284 288 286 289 289 287 288 287 287 287 287 286 285 285 284 283 282 281 280 278 277 276 276 277 276 276 276 277 277 276 273 274 275 275 277 276 274 273 271
284 286 284 283 283 285 287 288 290 287 286 285 285 285 286 286 284 284 283 282 282 281 279 279 278 276 274 273 272 271 272 275 274 272 273 272 272 270 271 273 271 273 272 273
282 284 284 284 287 287 285 287 289 287 286 287 285 283 283 285 284 283 282 281 280 278 277 276 275 274 272 270 268 266 265 268 272 273 272 270 270 269 271 270 270 279 281 282

GFSCGP_sfc_thetae_129.txt.gz
Theta_e
294 289 286 289 291 291 290 288 287 289 292 290 290 289 292 293 291 291 292 293 294 295 298 300 304 309 317 321 327 329 329 329 329 328 329 329 328 329 328 328 326 322 321 319
289 286 291 294 293 291 289 287 286 290 292 290 287 289 291 292 292 293 294 294 295 295 298 298 298 304 312 318 322 327 329 329 328 328 328 328 328 329 329 328 327 326 322 319
287 290 295 293 291 289 288 287 286 287 290 290 287 285 288 292 294 295 296 297 296 297 297 298 298 301 306 312 317 321 326 329 329 328 327 323 325 325 326 326 327 326 325 321
288 292 292 289 289 290 285 291 290 289 284 280 285 278 285 289 290 291 295 295 295 295 295 297 297 297 299 305 309 316 320 324 329 329 326 325 323 322 324 326 327 327 326 323
288 289 288 289 290 292 288 291 290 288 285 282 282 280 284 286 287 291 292 292 293 293 295 296 296 298 299 299 299 300 302 308 317 327 327 325 323 324 322 322 325 326 326 327
289 292 291 291 291 291 292 289 288 286 284 278 282 282 281 285 289 289 290 291 292 293 294 296 298 299 300 302 303 303 301 300 302 307 322 324 323 324 323 322 323 324 325 325
286 287 289 292 289 290 289 285 277 276 276 276 282 280 284 288 291 290 291 291 291 294 295 296 297 299 300 301 304 305 303 300 299 299 308 321 323 324 322 322 322 322 321 319
283 280 287 290 289 287 287 285 280 274 275 277 280 277 284 290 291 290 291 291 292 294 296 295 298 299 301 301 303 305 305 301 299 299 304 310 317 319 319 322 322 322 321 321
283 282 289 290 292 292 286 283 288 280 273 276 279 282 288 289 290 288 289 292 293 294 295 296 297 299 299 302 303 304 305 305 306 307 308 310 312 314 315 316 320 319 317 313
287 282 288 289 291 291 288 291 282 281 272 271 276 277 282 285 288 289 289 289 291 293 294 295 296 297 299 300 303 304 305 304 304 305 306 307 309 311 313 315 314 313 309 308
289 287 284 288 286 285 286 285 286 285 282 276 273 277 284 288 289 289 289 289 290 293 294 295 295 296 298 298 301 302 304 304 303 303 302 303 303 306 309 309 309 308 306 307
290 288 281 284 288 290 290 287 288 282 278 278 279 281 288 289 290 290 289 290 290 293 293 294 295 295 296 297 298 300 301 304 305 305 304 303 303 305 306 306 306 306 305 304
291 285 277 281 284 287 285 287 288 286 282 278 275 281 288 287 288 290 291 292 293 293 293 294 294 294 295 296 297 298 299 301 306 306 306 306 306 306 305 303 302 301 299 298
295 285 282 280 281 285 283 285 288 286 280 281 279 285 285 288 288 290 291 293 293 293 293 293 293 294 295 295 296 296 297 299 301 305 304 302 301 301 300 299 297 295 294 293
292 282 284 284 285 285 283 283 285 285 286 282 285 284 288 287 289 289 291 292 293 293 292 293 293 293 294 294 295 295 296 297 297 296 295 294 295 294 293 291 290 289 289 288
290 280 283 278 284 284 281 284 286 287 287 286 287 284 292 290 290 288 292 293 293 293 293 293 294 294 294 294 293 294 294 294 294 293 291 290 289 287 287 287 287 287 287 287
287 281 275 275 283 281 275 284 285 285 288 287 284 289 289 288 289 289 291 293 294 294 294 294 295 295 294 293 293 292 292 291 290 287 286 286 286 286 286 286 286 286 286 285
282 281 277 272 275 273 284 288 289 287 288 289 289 290 289 291 291 291 291 293 294 294 294 294 294 294 294 292 292 291 290 287 285 285 285 285 286 285 285 285 285 284 283 283
289 284 279 277 266 279 285 285 284 284 285 291 290 292 292 290 289 290 291 294 296 297 296 295 296 295 292 291 290 288 285 285 284 284 284 285 284 284 283 282 282 280 281 281
287 288 285 269 272 271 279 286 290 288 283 289 291 292 292 289 287 292 294 293 296 295 294 293 292 290 289 288 287 286 285 284 283 283 283 282 282 282 282 281 282 281 282 281
280 280 282 276 275 276 284 286 290 280 282 286 289 290 289 288 292 291 292 291 290 290 289 289 289 289 288 286 286 284 283 282 282 282 281 280 281 281 282 282 280 281 280 278
284 283 281 280 279 277 286 286 287 287 285 288 287 288 288 288 289 288 288 288 288 287 285 285 285 284 283 284 284 282 281 281 281 280 279 279 281 281 281 282 280 278 275 275
284 285 282 284 283 285 284 284 286 288 286 287 288 288 289 287 286 286 286 285 285 284 283 283 283 282 281 282 283 280 279 279 278 277 277 279 280 280 279 276 275 277 274 273
284 283 282 284 285 284 287 285 286 287 286 286 286 286 287 286 286 285 284 284 283 282 281 280 280 280 278 276 278 278 277 277 276 278 278 278 275 274 277 278 276 273 270 269
284 285 280 280 282 284 285 288 288 286 285 285 284 285 285 285 284 284 283 282 282 281 278 278 278 277 274 274 272 272 272 272 276 277 274 272 275 272 271 272 271 272 270 272
284 285 283 281 285 286 285 288 287 287 286 286 285 283 284 284 284 283 282 281 280 278 276 276 274 274 271 270 268 266 265 273 275 274 273 272 274 272 271 270 269 280 280 282

GFSCGP_sfc_thetae_132.txt.gz
Theta_e
292 288 285 288 290 291 290 288 286 288 291 290 289 289 291 291 290 291 290 290 292 293 297 298 306 318 319 325 327 327 327 328 328 328 329 328 328 329 327 328 327 324 320 318
288 284 290 293 292 291 288 286 286 288 290 288 286 288 291 290 291 292 292 291 292 293 295 296 298 302 315 321 326 327 327 328 328 329 328 329 329 329 329 328 326 325 323 320
285 289 293 291 289 288 287 286 286 287 289 288 286 285 286 289 291 292 293 295 295 295 295 296 296 297 304 316 323 326 327 328 328 328 326 321 321 324 325 325 325 324 324 322
288 291 291 289 288 288 284 290 289 288 285 282 284 277 283 286 288 289 293 295 296 294 294 296 296 295 298 308 314 323 327 328 328 328 325 324 323 322 323 323 325 326 324 323
286 287 287 287 289 290 287 290 289 288 284 282 281 279 283 286 287 290 292 293 295 296 294 295 296 295 295 299 304 308 315 321 326 326 326 324 323 323 319 319 320 321 324 324
290 291 291 290 290 291 291 288 286 284 282 278 281 281 281 285 289 290 290 291 292 291 291 292 295 297 297 300 300 300 299 301 307 322 325 324 323 319 319 322 323 323 324 325
285 287 288 290 288 288 287 284 277 277 276 276 281 280 285 288 289 289 290 290 289 290 293 294 296 296 299 301 302 303 302 300 299 299 309 321 322 320 322 323 324 322 321 320
282 280 287 290 288 286 286 285 279 274 274 276 280 278 284 290 291 290 290 289 291 292 293 294 296 298 300 301 302 303 303 302 299 297 298 309 318 321 321 320 320 321 322 321
281 281 288 290 291 292 286 283 287 279 272 276 278 281 288 289 289 287 288 289 290 292 293 295 296 298 299 301 302 303 303 303 303 302 300 304 308 314 318 318 316 320 319 315
286 282 287 289 291 290 287 290 283 280 272 272 276 278 281 285 288 288 288 290 291 291 293 294 295 296 298 300 302 302 302 303 303 303 305 306 307 309 311 311 311 313 311 311
289 286 284 287 286 285 285 284 284 284 280 275 272 277 284 288 289 288 289 288 290 292 293 294 294 296 297 298 300 301 302 302 301 302 301 303 304 305 307 308 309 309 307 308
290 287 281 283 287 289 288 287 287 280 277 278 278 279 287 287 288 289 289 289 289 290 292 293 294 294 294 296 299 300 300 301 302 302 301 301 302 303 303 306 306 307 306 305
291 282 275 281 285 286 284 286 287 285 282 277 275 280 286 287 287 288 289 288 289 289 291 293 293 293 294 294 296 298 299 300 302 302 303 305 305 304 304 304 303 301 300 298
294 285 282 279 281 285 283 285 286 286 281 280 281 283 284 286 286 289 290 291 291 291 292 292 292 292 293 294 295 296 297 299 305 305 305 304 303 302 300 299 298 297 296 295
291 278 283 283 284 286 284 285 286 285 286 281 285 283 287 286 287 287 289 291 292 292 292 292 292 292 293 293 294 295 295 297 300 301 299 298 297 296 295 293 292 290 289 288
291 282 284 279 284 284 281 285 286 287 287 286 286 284 288 289 288 287 289 291 292 292 292 292 292 293 293 293 293 294 294 295 295 294 293 291 292 289 288 287 286 286 286 286
287 282 281 276 283 282 279 283 284 286 288 287 283 288 289 285 288 289 290 290 292 293 293 292 294 294 294 294 295 294 293 292 291 289 287 287 286 286 286 286 286 285 286 286
286 286 281 277 279 275 284 288 288 286 287 289 289 290 288 289 289 290 291 290 291 292 292 292 293 294 294 293 292 291 290 289 287 286 286 286 286 285 285 284 284 284 283 283
288 285 277 277 268 279 285 284 283 284 285 289 288 290 291 288 288 290 290 291 293 294 295 295 295 294 292 292 290 289 287 286 286 285 285 285 284 283 284 284 283 282 282 282
285 287 285 268 272 272 279 285 288 287 282 289 291 291 291 287 285 292 292 290 290 292 293 292 292 291 291 288 288 287 285 285 285 284 284 283 282 283 282 282 282 281 281 282
279 278 282 271 277 276 283 285 289 279 282 286 288 291 289 287 292 290 290 290 290 290 291 289 290 290 290 287 287 285 284 284 283 282 281 280 280 281 281 281 281 282 281 280
280 280 281 277 277 277 285 284 285 287 285 288 288 289 288 287 287 288 287 287 288 287 285 285 285 284 284 286 286 284 283 282 281 280 279 278 278 280 280 281 281 280 280 280
281 284 280 285 283 285 285 284 287 287 287 287 287 286 288 287 286 287 286 285 284 284 284 284 283 282 282 283 283 283 280 280 279 278 276 276 280 281 281 281 279 279 278 278
282 283 282 284 284 285 287 285 285 286 286 286 286 286 286 286 285 284 285 284 283 282 282 280 281 280 278 277 279 280 279 278 278 277 277 276 277 279 279 279 278 275 274 272
282 285 280 279 281 283 284 285 285 284 284 285 285 286 285 284 283 284 283 283 282 281 278 278 279 279 276 275 275 276 276 277 277 276 277 278 278 278 276 276 273 276 270 272
282 282 285 284 284 285 284 287 285 285 285 285 285 284 284 284 284 282 282 282 280 277 275 275 274 275 273 272 272 271 272 277 277 277 277 276 276 275 274 275 274 281 281 283

GFSCGP_sfc_thetae_135.txt.gz
Theta_e
293 287 286 287 289 290 289 288 287 288 290 288 288 289 291 290 289 291 292 293 295 297 306 304 314 320 320 322 325 326 325 327 326 326 326 328 327 327 326 327 327 325 323 319
289 284 289 292 291 289 287 285 284 288 290 288 285 288 290 290 291 292 293 291 293 294 294 295 295 309 317 321 324 325 326 326 326 328 326 326 328 329 329 328 327 326 323 321
284 288 292 291 288 287 286 285 284 287 288 288 285 284 286 288 289 292 292 294 295 295 296 295 294 296 310 317 321 325 326 326 327 328 324 320 322 324 325 325 325 324 324 322
286 290 289 286 286 287 283 288 288 287 285 282 285 279 284 285 287 288 292 294 295 296 294 294 294 293 297 310 317 323 325 326 327 327 325 323 323 322 323 321 322 322 322 323
286 286 286 286 287 288 286 289 288 287 283 280 281 280 283 282 285 288 290 293 293 294 293 293 294 295 293 298 309 315 321 324 325 326 326 324 323 324 319 317 318 319 320 321
289 290 290 289 289 290 289 286 285 283 281 277 281 280 281 283 287 288 290 290 291 290 291 291 292 295 295 296 301 305 313 316 319 324 324 323 324 320 317 317 321 323 324 324
284 285 287 289 286 286 286 283 276 276 276 276 279 278 284 288 289 289 290 290 289 288 289 290 294 295 297 298 299 299 300 300 305 316 323 323 322 321 319 319 321 322 322 320
282 279 286 289 286 284 283 284 277 272 273 276 280 277 283 291 292 290 290 289 291 292 293 293 294 296 298 300 301 302 302 300 298 298 304 316 322 323 322 322 322 319 318 321
281 281 287 289 290 290 284 282 285 279 271 274 277 281 287 289 289 288 289 288 291 292 293 294 295 297 298 300 301 302 302 301 300 297 296 297 305 315 319 318 318 321 319 316
286 282 286 288 290 289 287 290 282 279 271 271 276 277 280 285 287 288 288 289 289 290 292 293 295 296 297 299 301 301 302 302 302 302 301 300 301 306 311 312 312 312 313 311
287 286 283 287 285 285 284 282 283 283 279 274 271 277 284 288 288 289 289 289 290 292 292 293 294 295 296 297 299 300 300 301 301 301 301 302 304 305 306 309 311 311 309 309
289 285 280 283 286 288 287 285 286 282 277 278 277 279 285 287 288 288 289 289 289 291 292 292 294 294 294 296 298 299 299 300 300 300 300 301 302 305 307 308 307 307 306 305
290 282 275 280 285 286 284 284 286 283 281 276 275 278 286 286 288 286 288 288 288 288 290 292 292 292 293 294 296 297 297 299 301 300 304 305 304 305 305 304 303 302 301 300
294 284 284 279 282 285 282 284 285 285 279 279 280 281 283 287 287 287 288 288 288 288 290 291 292 293 293 293 294 297 297 299 301 301 304 304 304 303 302 300 298 298 297 296
290 279 282 282 283 286 284 284 285 284 286 281 285 283 286 288 288 288 289 290 290 291 291 291 291 292 292 293 294 295 296 297 301 302 300 298 297 296 295 294 294 293 292 291
289 279 283 279 283 284 281 285 287 287 287 286 286 284 288 290 287 286 288 289 291 291 292 292 292 292 292 293 293 293 294 296 300 300 298 295 294 292 291 290 289 289 288 287
286 281 278 279 282 283 279 283 285 286 288 288 283 288 289 286 286 287 288 288 290 291 292 292 292 293 293 294 294 293 293 293 293 295 291 290 290 289 289 288 286 285 285 284
287 286 283 277 280 274 283 288 288 286 288 289 290 290 288 288 289 290 290 290 289 291 292 291 292 293 293 292 292 292 291 290 289 288 287 286 286 286 285 284 283 282 281 281
291 288 278 278 280 282 284 285 284 283 285 290 289 291 289 288 286 288 289 290 293 292 293 294 293 292 291 292 291 289 288 287 287 286 285 285 284 282 282 282 282 280 281 280
286 290 285 275 273 273 281 288 287 288 282 290 290 290 290 286 284 290 290 290 290 290 290 291 291 290 290 289 290 289 287 287 286 285 285 283 283 284 284 283 281 280 280 281
282 284 282 276 278 277 284 285 289 280 282 286 288 290 289 287 291 289 289 288 288 288 289 288 289 290 291 288 289 288 286 286 285 284 281 280 281 283 282 281 277 279 279 279
283 281 281 279 276 277 284 284 285 287 287 288 287 287 287 287 287 288 289 288 287 287 286 286 286 285 284 287 289 285 286 283 283 281 280 279 278 281 280 280 278 280 280 279
283 287 281 284 284 285 285 285 287 287 287 287 287 287 287 287 286 286 287 283 284 283 285 284 284 282 282 284 286 285 281 281 280 279 277 277 277 279 280 280 278 277 276 279
284 284 285 284 284 285 287 286 286 286 286 287 287 287 285 285 285 285 285 285 284 283 282 281 279 279 278 277 280 280 280 280 280 278 277 276 278 276 275 278 279 280 278 276
285 286 280 280 281 284 284 286 286 285 285 286 285 285 285 285 283 284 284 283 282 281 278 277 278 277 275 274 275 275 276 278 277 277 276 275 276 276 275 275 277 273 270 276
283 283 286 284 284 286 284 285 285 285 284 284 285 284 284 285 284 282 282 282 280 276 274 275 274 274 271 271 270 270 273 278 278 277 277 278 278 277 277 277 277 281 280 282